     2              OBSERVATION DATA    GPS                 RINEX VERSION / TYPE
ASRINEXO V2.4.4 UX USGS 24-FEB-96 16:14                     PGM / RUN BY / DATE
                                                            COMMENT
Contact: kwendt@isdmnl.wr.usgs.gov (Ph: 415-329-4866)       COMMENT
Contact: kwendt@isdmnl.wr.usgs.gov (Ph: 415-329-4866)       COMMENT
Contact: kwendt@isdmnl.wr.usgs.gov (Ph: 415-329-4866)       COMMENT
Contact: kwendt@isdmnl.wr.usgs.gov (Ph: 415-329-4866)       COMMENT
Contact: kwendt@isdmnl.wr.usgs.gov (Ph: 415-329-4866)       COMMENT
Contact: kwendt@isdmnl.wr.usgs.gov (Ph: 415-329-4866)       COMMENT
Original Marker Name: cerr Cerro_Gordo_1934_USC&GS          COMMENT
Campaign Name: USGS Yucca Profile                           COMMENT
4-Character Station Name: CERR                              COMMENT
6-Character Antenna Code: ASHP12                            COMMENT
Vertical Measurement Point: EGP                             COMMENT
Vertical Offset to Rinex Ref. Point: 0.0593                 COMMENT
Radial Measurement Point: EGP                               COMMENT
Radial Offset to Rinex Ref. Point: 0.1425                   COMMENT
Antenna Height from Field Measurement: 1.3370 m             COMMENT
Additional Antenna Identification Info.:                    COMMENT
Ashtech L1/L2 Revision B (700228DE)                         COMMENT
Original XYZ: -2392586.7500 -4541008.3400 3777217.0400      COMMENT
New XYZ position is based on association with SCEC monument COMMENT
E1G0A3W0+0011. Position of that monument is believed to be  COMMENT
valid to within 1 m horizontally; vertical accuracy         COMMENT
should be no worse than 3-times this value.                 COMMENT
                                                            COMMENT
Revised Rinex header created by UCSD GPS archive for        COMMENT
GSAC on 08-Aug-2000 (2000:221) 00:15:12 GMT                 COMMENT
For assistance contact dagnew@ucsd.edu                      COMMENT
or anderson@python.ucsd.edu                                 COMMENT
                                                            COMMENT
CERRO GORDO 1934                                            MARKER NAME
CHS US GEOLOGICAL SURVEY                                    OBSERVER / AGENCY
O4582 ASHTECH Z-XII3 1F00                                   REC # / TYPE / VERS
1068 ASHTECH GEODETIC P                                     ANT # / TYPE
 -2392880.7334 -4541046.3407  3777947.0290                  APPROX POSITION XYZ
        1.2701        0.0000        0.0000                  ANTENNA: DELTA H/E/N
     1     1     0                                          WAVELENGTH FACT L1/2
     5    C1    L1    L2    P1    P2                        # / TYPES OF OBSERV
    30                                                      INTERVAL
  1996     2     9    16    59   30.000000                  TIME OF FIRST OBS
  1996     2     9    23    29   60.000000                  TIME OF LAST OBS
                                                            END OF HEADER
 96  2  9 16 59 30.0000000  0  6 25 22  4 29 18 14
  22200033.793       24641.99619     11175.84559                  22200040.4174
  19824121.466      -25463.62919    -11614.61559                  19824126.5844
  23283124.060      -32694.20519
  19707326.485      -39887.16419    -16510.29259                  19707332.1434
  21766321.430      -57420.89919
  18807470.961      -20756.15519    -11376.25459                  18807477.4974
 96  2  9 17  0  0.0000000  0  7 25 22  4 29 18 14 15
  22209774.896       75818.87159     51053.89349  22209774.0234   22209778.5774
  19813851.555      -79426.06159    -53663.26649  19813853.1514   19813858.6244
  23269814.026     -102619.265 9    -69516.95559                  23269823.4924
  19692703.891     -116733.43659    -76390.51149  19692705.0944   19692708.9764
  21743732.749     -176133.510 9   -118019.14559                  21743737.0864
  18801411.415      -52601.85059    -36191.10349  18801412.5784   18801417.4984
  23097859.467       76510.94319
 96  2  9 17  0 30.0000000  0  7 25 22  4 29 18 14 15
  23718310.699      126155.88149     90277.47349  23718315.5514   23718319.7364
  21302489.267     -133687.80549    -95945.14949  21302489.6184   21302494.9974
  24755393.316     -172945.59559   -124316.70149  24755397.8804   24755402.6714
  21176903.670     -194299.27849   -136831.41849  21176906.8364   21176910.9394
  23219948.149     -295676.26959   -211169.33959  23219946.6034   23219950.7984
  20294248.166      -84785.11949    -61268.98749  20294250.4154   20294255.5064
  24608549.241      138139.456 9    100581.97459                  24608560.4214
 96  2  9 17  1  0.0000000  0  7 25 22  4 29 18 14 15
  23727762.634      175806.46459    128966.20159  23727763.1604   23727769.5854
  21292133.460     -188102.32959   -138346.07259  21292134.6004   21292140.5354
  24741960.341     -243555.51159   -179337.40859  24741960.3784   24741965.7954
  21162026.681     -272478.73959   -197750.48459  21162029.7174   21162034.0994
  23197066.833     -415930.69859   -304874.06659  23197062.2314   23197066.7974
  20288091.935     -117143.45759    -86483.28159  20288093.2494   20288098.3384
  24620119.542      198947.00359    147964.41159  24620123.2834   24620131.8364
 96  2  9 17  1 30.0000000  0  7 25 22  4 29 18 14 15
  23737094.934      224854.17849    167185.16849  23737096.5034   23737101.6784
  21281775.354     -242544.80549   -180768.76449  21281775.0374   21281780.2884
  24728488.997     -314339.10449   -234493.45649  24728490.6594   24728496.1324
  21147055.927     -351155.54749   -259057.08249  21147058.3684   21147062.2674
  23174063.791     -536789.18149   -399049.46849  23174064.7594   23174068.3444
  20281920.394     -149572.88649   -111752.97049  20281922.0344   20281927.2704
  24631555.596      259016.49759    194771.75249  24631554.9504   24631562.3604
 96  2  9 17  2  0.0000000  0  7 25 22  4 29 18 14 15
  23746324.426      273351.16049    204974.96249  23746326.1974   23746330.0384
  21271424.732     -296933.13849   -223149.26949  21271425.4324   21271430.4054
  24714997.867     -385234.77449   -289736.83549  24715000.0004   24715005.8054
  21132001.315     -430272.81949   -320706.89849  21132002.7264   21132006.8414
  23150962.918     -658182.34749   -493641.53749  23150963.5614   23150968.3344
  20275744.032     -182026.92849   -137041.84049  20275746.5374   20275751.2744
  24642856.603      318415.87149    241056.93049  24642858.2894   24642865.3834
 96  2  9 17  2 30.0000000  0  7 25 22  4 29 18 14 15
  23755457.356      321342.73249    242370.96249  23755459.0234   23755462.0024
  21261095.468     -351220.41449   -265451.03449  21261095.0344   21261099.9964
  24701498.628     -456180.41949   -345019.15549  24701498.8934   24701505.2514
  21116870.722     -509784.14049   -382663.78049  21116872.2614   21116876.3144
  23127771.217     -780054.98649   -588607.22149  23127772.7144   23127778.1704
  20269569.550     -214480.56049   -162330.39249  20269570.5474   20269575.6564
  24654042.153      377191.00449    286855.68249  24654042.0384   24654050.3824
 96  2  9 17  3  0.0000000  0  7 25 22  4 29 18 14 15
  23764500.071      368872.56249    279407.11749  23764503.6614   23764507.9444
  21250784.977     -405398.46949   -307667.69849  21250785.0554   21250790.3174
  24687995.800     -527129.68149   -400304.30049  24687998.2784   24688003.6264
  21101673.912     -589641.67349   -444890.43249  21101675.5614   21101679.9614
  23104493.521     -902380.13049   -683925.51049  23104494.7954   23104499.6084
  20263399.968     -246901.41249   -187593.40549  20263401.2394   20263406.3624
  24665117.438      435379.83749    332197.58049  24665115.9994   24665123.4944
 96  2  9 17  3 30.0000000  0  7 25 22  4 29 18 14 15
  23773465.866      415980.22649    316114.35249  23773466.9964   23773472.0814
  21240501.681     -459437.53349   -349776.05549  21240502.0294   21240506.8744
  24674499.116     -598053.64149   -455569.72049  24674502.2914   24674507.2264
  21086419.966     -669803.26449   -507354.00749  21086421.6184   21086426.1884
  23081136.642    -1025123.96049   -779570.03749  23081136.5024   23081141.9634
  20257239.824     -279270.39449   -212815.99649  20257241.6784   20257246.9664
  24676083.607      493013.92449    377107.18549  24676084.0314   24676090.6334
 96  2  9 17  4  0.0000000  0  7 25 22  4 29 18 14 15
  23782356.493      462706.23749    352524.16449  23782358.9644   23782364.2564
  21230248.795     -513310.92149   -391755.31249  21230250.4524   21230255.0804
  24661013.168     -668918.73549   -510789.27549  24661016.6154   24661022.4204
  21071113.705     -750236.42949   -570029.19749  21071115.8144   21071120.0814
  23057707.840    -1148240.49449   -875504.98949  23057708.8594   23057713.7854
  20251096.521     -311554.19949   -237972.21549  20251098.0444   20251103.2414
  24686950.250      550120.15249    421605.49149  24686949.7814   24686957.5334
 96  2  9 17  4 30.0000000  0  7 25 22  4 29 18 14 15
  23791182.049      509080.89049    388660.21549  23791184.2374   23791189.6114
  21220033.472     -566997.56149   -433589.05449  21220033.9264   21220039.0944
  24647550.142     -739676.44049   -565925.18149  24647552.5974   24647557.8884
  21055765.956     -830895.12049   -632880.13349  21055767.4004   21055771.1514
  23034216.406    -1271693.11149   -971701.80449  23034217.1064   23034222.3824
  20244980.094     -343696.48549   -263018.16749  20244981.7124   20244986.5964
  24697721.768      606724.98349    465713.10249  24697720.6294   24697728.9074
 96  2  9 17  5  0.0000000  0  7 25 22  4 29 18 14 15
  23799944.952      555134.95849    424546.43849  23799947.0214   23799953.0414
  21209857.330     -620468.34149   -475254.59849  21209858.7414   21209863.9654
  24634112.254     -810293.56149   -620951.51549  24634114.7744   24634118.5764
  21040382.119     -911736.26049   -695873.23149  21040383.6594   21040387.7974
  23010667.347    -1395446.98849  -1068133.38349  23010667.5094   23010671.9154
  20238905.176     -375623.68649   -287896.52149  20238906.3254   20238911.1454
  24708406.248      662863.65449    509457.45549  24708404.3144   24708411.8764
 96  2  9 17  5 30.0000000  0  6 25 22  4 29 18 14
  23808646.619      600837.59849    460158.84549  23808645.0574   23808649.1714
  21199725.411     -673717.64549   -516747.56149  21199725.2784   21199730.8734
  24620695.794     -880801.12549   -675892.47049  24620697.4014   24620701.6394
  21024959.895     -992781.45649   -759025.33449  21024961.2814   21024965.2724
  22987058.377    -1519510.82849  -1164806.48349  22987059.3184   22987063.1874
  20232866.966     -407356.41049   -312623.33049  20232867.8184   20232872.6864
 96  2  9 17  6  0.0000000  0  6 25 22  4 29 18 14
  23817265.457      646155.73849    495471.62349  23817268.5754   23817273.8094
  21189627.550     -726777.14349   -558092.62449  21189628.4164   21189633.6894
  24607298.801     -951203.43849   -730751.43949  24607299.1994   24607305.1934
  21009495.934    -1074044.87649   -822347.48049  21009497.5594   21009501.4924
  22963386.191    -1643913.03549  -1261743.26649  22963384.9004   22963389.9954
  20226862.228     -438907.24549   -337208.40749  20226864.0444   20226868.9234
 96  2  9 17  6 30.0000000  0  6 25 22  4 29 18 14
  23825815.301      691067.93149    530468.08649  23825814.5274   23825820.4684
  21179562.580     -779669.75549   -599307.65249  21179563.7994   21179568.5964
  24593916.711    -1021525.81849   -785548.06949  24593918.0004   24593923.9784
  20993986.094    -1155550.55249   -885858.40249  20993987.5014   20993991.1964
  22939643.314    -1768679.36349  -1358963.76849  22939643.3804   22939647.7274
  20220889.718     -470295.08949   -361666.47749  20220890.8814   20220896.1384
 96  2  9 17  6 59.9990000  0  6 25 22  4 29 18 14
  23834297.134      735656.17449    565212.11049  23834299.9844   23834305.1434
  21169546.023     -832310.85049   -640326.68849  21169546.6974   21169551.3064
  24580559.316    -1091720.79249   -840245.47649  24580560.5844   24580565.4584
  20978441.879    -1237236.83749   -949510.04949  20978443.2934   20978446.8534
  22915845.442    -1893734.77949  -1456409.53649  22915845.1554   22915850.2504
  20214958.140     -501462.07249   -385952.44949  20214959.8104   20214965.1224
 96  2  9 17  7 29.9990000  0  6 25 22  4 29 18 14
  23842723.624      779935.32649    599715.28949  23842725.6194   23842730.9974
  21159578.361     -884690.63249   -681142.10549  21159578.8384   21159583.8264
  24567226.386    -1161787.11849   -894842.61449  24567227.9714   24567233.0394
  20962861.833    -1319109.97049  -1013307.29449  20962863.2744   20962867.1004
  22891992.278    -2019081.79349  -1554082.52049  22891993.0934   22891997.6684
  20209064.773     -532429.93249   -410083.25949  20209066.9584   20209072.5064
 96  2  9 17  7 59.9990000  0  6 25 22  4 29 18 14
  23851094.939      823911.15949    633982.11349  23851093.9914   23851099.4934
  21149656.863     -936827.65249   -721768.36449  21149657.7134   21149662.8624
  24553922.218    -1231703.58249   -949322.96349  24553922.8334   24553928.8834
  20947245.329    -1401174.30549  -1077253.53249  20947246.8524   20947250.4514
  22868084.559    -2144719.83449  -1651982.28149  22868085.4144   22868089.7154
  20203210.566     -563198.41949   -434058.71749  20203211.9474   20203217.3594
 96  2  9 17  8 29.9990000  0  7 25 22 19  4 29 18 14
  23859410.424      867612.06149    668034.72349  23859410.5374   23859415.2684
  21139789.948     -988684.27249   -762176.12749  21139789.6974   21139794.8584
  24586593.674     -676304.96419
  24540645.995    -1301465.70449  -1003683.07949  24540647.3424   24540653.8204
  20931595.774    -1483410.33649  -1141333.55349  20931597.8884   20931601.6204
  22844127.184    -2270620.00149  -1750086.30349  22844127.4314   22844131.8724
  20197395.751     -593757.32549   -457870.86649  20197396.7584   20197402.2264
 96  2  9 17  8 59.9990000  0  7 25 22 19  4 29 18 14
  23867675.138      911061.28349    701891.18649  23867678.1244   23867684.3274
  21129981.318    -1040221.81749   -802335.26049  21129982.1674   21129987.4444
  24559866.142     -816765.043 9
  24527405.599    -1371037.56549  -1057894.91549  24527409.1924   24527414.3394
  20915920.510    -1565788.02949  -1205523.96249  20915921.9684   20915925.8504
  22820123.858    -2396756.21149  -1848374.22949  22820123.8514   22820128.8484
  20191625.301     -624078.00249   -481497.38249  20191627.1814   20191632.4394
 96  2  9 17  9 29.9990000  0  7 25 22 19  4 29 18 14
  23875899.410      954278.20449    735566.66249  23875902.3314   23875907.7894
  21120240.876    -1091409.50149   -842221.76749  21120241.5204   21120246.9804
  24533109.394     -957367.484 9
  24514211.915    -1440368.65549  -1111919.13349  24514214.8324   24514217.7384
  20900224.301    -1648268.66549  -1269794.58849  20900226.2724   20900230.5074
  22796078.490    -2523110.77749  -1946832.31849  22796079.5934   22796084.9194
  20185907.323     -654128.42949   -504913.31249  20185908.5994   20185913.9764
 96  2  9 17  9 59.9990000  0  7 25 22 19  4 29 18 14
  23884079.889      997246.37349    769048.29249  23884079.4894   23884084.0814
  21110567.793    -1142244.62749   -881833.56749  21110568.1204   21110573.3364
  24506327.641    -1098114.648 9
  24501064.895    -1509466.27149  -1165761.46949  24501065.4194   24501070.8154
  20884507.949    -1730858.59949  -1334150.38049  20884509.9444   20884514.1424
  22771990.576    -2649700.53349  -2045473.67149  22771990.0924   22771995.9794
  20180239.874     -683912.32449   -528121.55949  20180241.2054   20180246.1904
 96  2  9 17 10 29.9990000  0  7 25 22 19  4 29 18 14
  23892225.783     1040066.78749    802414.80149  23892228.3444   23892233.2904
  21100983.829    -1192609.39249   -921078.84549  21100984.1034   21100989.2084
  24479539.528    -1238898.818 9
  24487976.762    -1578242.04049  -1219352.99549  24487978.5554   24487984.0534
  20868789.895    -1813465.04749  -1398519.03649  20868790.5234   20868794.5444
  22747875.848    -2776424.38249  -2144219.50649  22747875.6344   22747880.7844
  20174643.409     -713320.81349   -551037.27749  20174644.8144   20174650.0454
 96  2  9 17 10 59.9990000  0  7 25 22 19  4 29 18 14
  23900321.908     1082618.75449    835572.11749  23900324.9964   23900330.2374
  21091463.731    -1242635.29549   -960060.08049  21091464.7454   21091469.8254
  24452718.113    -1379840.61259   -386830.41459  24452719.5444   24452728.3754
  24474930.583    -1646804.00649  -1272777.90049  24474932.6334   24474936.9144
  20853044.501    -1896203.66049  -1462990.69149  20853046.0044   20853049.9704
  22723714.348    -2903398.75249  -2243160.56149  22723712.7874   22723719.2244
  20169099.413     -742457.49749   -573741.20649  20169100.5334   20169105.3664
 96  2  9 17 11 29.9990000  0  7 25 22 19  4 29 18 14
  23908381.075     1124965.80349    868569.76949  23908382.9594   23908387.8474
  21082019.942    -1292264.33149   -998732.06249  21082020.5724   21082025.6184
  24425878.557    -1520902.71349   -496748.92759  24425878.7184   24425884.8844
  24461937.040    -1715084.51049  -1325983.49849  24461938.5514   24461944.2264
  20837289.169    -1978997.41449  -1527505.30449  20837290.6804   20837294.8404
  22699515.054    -3030549.85049  -2342239.31449  22699517.1944   22699522.9994
  20163618.799     -771256.77949   -596182.21649  20163620.3404   20163625.2914
 96  2  9 17 11 59.9990000  0  7 25 22 19  4 29 18 14
  23916404.050     1167109.45049    901408.92749  23916403.7494   23916407.9124
  21072650.197    -1341502.68849  -1037099.61849  21072650.7114   21072656.0484
  24399007.828    -1662082.42959   -606759.09349  24399011.5564   24399018.2614
  24448997.912    -1783079.34449  -1378966.48349  24448998.5974   24449006.2734
  20821523.273    -2061845.37049  -1592062.15449  20821525.0414   20821529.5144
  22675292.387    -3157846.52449  -2441431.49949  22675293.1484   22675297.9144
  20158206.134     -799703.06749   -618348.16649  20158207.1784   20158212.0904
 96  2  9 17 12 29.9990000  0  7 25 22 19  4 29 18 14
  23924387.520     1209067.27849    934103.27449  23924386.9124   23924392.5724
  21063355.806    -1390348.61749  -1075161.39149  21063355.2644   21063361.0284
  24372129.405    -1803353.81749   -716840.68949  24372128.5534   24372135.7784
  24436115.087    -1850773.15649  -1431714.92849  24436117.3414   24436123.3404
  20805753.998    -2144714.75349  -1656635.70749  20805755.4654   20805759.9004
  22651048.769    -3285251.50349  -2540708.07449  22651048.8204   22651053.4834
  20152863.946     -827776.64249   -640223.69849  20152864.9234   20152869.9884
 96  2  9 17 12 59.9990000  0  7 25 22 19  4 29 18 14
  23932325.581     1250794.68149    966618.06249  23932327.3114   23932333.5684
  21054127.263    -1438838.43749  -1112945.67349  21054128.5204   21054133.7934
  24345221.699    -1944731.72149   -827005.31149  24345225.4344   24345231.9234
  24423285.254    -1918195.35249  -1484251.70549  24423287.1214   24423293.5564
  20789977.824    -2227615.12649  -1721233.40349  20789980.2664   20789984.5564
  22626775.250    -3412803.30649  -2640099.06749  22626777.0104   22626781.5374
  20147584.101     -855521.88449   -661843.38549  20147585.0944   20147590.0044
 96  2  9 17 13 29.9990000  0  7 25 22 19  4 29 18 14
  23940229.795     1292331.14449    998984.05649  23940232.0124   23940237.4184
  21044977.346    -1486924.56049  -1150415.39149  21044977.9864   21044983.3184
  24318313.561    -2086159.12549   -937208.45649  24318314.1164   24318319.6474
  24410514.343    -1985310.59749  -1536549.31349  24410515.5834   24410521.5724
  20774203.752    -2310518.26049  -1785833.25449  20774204.2574   20774208.5994
  22602480.815    -3540472.72149  -2739581.70149  22602481.4304   22602487.0974
  20142372.892     -882902.98149   -683179.32149  20142374.3734   20142379.6134
 96  2  9 17 13 59.9990000  0  7 25 22 19  4 29 18 14
  23948102.858     1333697.37949   1031217.40249  23948104.0874   23948109.1144
  21035906.504    -1534589.68449  -1187557.05449  21035907.4954   21035912.7954
  24291399.164    -2227590.76049  -1047414.89149  24291399.1914   24291405.7184
  24397801.395    -2052111.53249  -1588602.00849  24397803.2284   24397810.2044
  20758428.161    -2393415.82349  -1850428.75949  20758429.5754   20758433.5554
  22578164.203    -3668253.15349  -2839150.82649  22578165.2604   22578171.1934
  20137236.712     -909895.66049   -704212.58849  20137238.0054   20137243.3884
 96  2  9 17 14 29.9990000  0  7 25 22 19  4 29 18 14
  23955934.097     1374847.57649   1063282.43149  23955935.6404   23955939.2994
  21026908.759    -1581873.30649  -1224401.44149  21026909.9704   21026915.0494
  24264475.573    -2369070.81249  -1157659.09649  24264476.9794   24264483.0774
  24385138.923    -2118659.36249  -1640457.47249  24385139.4944   24385146.5484
  20742644.433    -2476357.44949  -1915058.59349  20742646.1934   20742650.1694
  22553813.565    -3796220.81149  -2938865.85949  22553813.8524   22553820.3094
  20132163.555     -936556.79449   -724987.50849  20132164.6734   20132169.6884
 96  2  9 17 14 59.9990000  0  7 25 22 19  4 29 18 14
  23963737.965     1415849.25149   1095231.72749  23963737.6094   23963741.8464
  21017997.331    -1628711.37949  -1260898.63949  21017996.9694   21018002.0194
  24237553.833    -2510556.60249  -1267907.73849  24237553.9194   24237558.8674
  24372535.281    -2184890.70449  -1692066.31249  24372537.5544   24372542.6554
  20726862.759    -2559295.23549  -1979685.44249  20726863.7584   20726867.7904
  22529437.395    -3924323.22149  -3038685.87649  22529436.6674   22529443.2484
  20127166.228     -962819.48549   -745451.95849  20127166.9544   20127172.1624
 96  2  9 17 15 29.9990000  0  7 25 22 19  4 29 18 14
  23971520.141     1456748.80349   1127101.44749  23971520.3634   23971525.1714
  21009173.923    -1675070.80649  -1297022.87549  21009174.5984   21009180.1284
  24210629.490    -2652034.68249  -1378150.40049  24210631.0804   24210636.5664
  24359999.841    -2250764.01649  -1743396.18649  24360000.9584   24360008.0524
  20711087.133    -2642194.33749  -2044282.14349  20711088.5314   20711092.7994
  22505043.793    -4052509.96149  -3138571.61249  22505044.5594   22505050.5134
  20122253.458     -988637.75049   -765570.10049  20122253.8254   20122259.2344
 96  2  9 17 15 59.9990000  0  7 25 22 19  4 29 18 14
  23979286.880     1497557.97849   1158900.73549  23979286.5474   23979290.7954
  21000446.063    -1720933.80949  -1332760.28349  21000447.2424   21000452.7484
  24183707.377    -2793510.42549  -1488391.20449  24183707.5864   24183713.4494
  24347537.778    -2316251.28249  -1794425.23649  24347539.8634   24347546.4014
  20695326.211    -2725018.81149  -2108820.69749  20695327.2964   20695331.6774
  22480640.153    -4180748.36949  -3238497.60949  22480639.8714   22480646.8214
  20117424.695    -1014009.88249   -785340.60349  20117425.6374   20117431.1014
 96  2  9 17 16 29.9990000  0  7 25 22 19  4 29 18 14
  23987025.504     1538236.42349   1190598.17549  23987026.7314   23987031.5514
  20991807.765    -1766334.33249  -1368137.31649  20991807.7014   20991813.0944
  24156775.433    -2935035.74549  -1598670.67149  24156777.1364   24156784.3654
  24335147.051    -2381373.82849  -1845170.10249  24335146.3554   24335152.9224
  20679572.433    -2807803.90049  -2173328.55549  20679573.8524   20679578.2134
  22456225.273    -4309054.91049  -3338476.69349  22456225.6704   22456230.4064
  20112670.022    -1038995.19049   -804809.68849  20112671.1574   20112676.6484
 96  2  9 17 16 59.9990000  0  7 25 22 19  4 29 18 14
  23994742.652     1578781.36749   1222191.57249  23994741.5284   23994748.5074
  20983255.784    -1811279.00349  -1403159.14449  20983254.9824   20983260.4024
  24129832.606    -3076620.56349  -1708996.47549  24129834.6544   24129841.1404
  24322826.237    -2446122.27249  -1895623.45049  24322826.9394   24322832.1154
  20663826.999    -2890546.40749  -2237803.23749  20663828.6114   20663832.9874
  22431799.109    -4437412.73049  -3438495.74249  22431800.1904   22431805.8204
  20107987.380    -1063604.15749   -823985.51749  20107988.4054   20107993.6154
 96  2  9 17 17 29.9990000  0  7 25 22 19  4 29 18 14
  24002428.099     1619187.11649   1253676.51249  24002431.0384   24002435.3594
  20974789.893    -1855763.83049  -1437822.64649  20974790.2084   20974795.3994
  24102880.060    -3218251.03949  -1819357.85849  24102883.5934   24102889.1774
  24310576.175    -2510492.68349  -1945782.23249  24310576.7504   24310582.1624
  20648090.026    -2973245.75149  -2302244.28249  20648091.7854   20648095.7454
  22407364.938    -4565818.82849  -3538552.41549  22407365.8244   22407370.8224
  20103372.251    -1087855.82349   -842882.93149  20103373.3394   20103378.6934
 96  2  9 17 17 59.9990000  0  7 25 22 19  4 29 18 14
  24010095.996     1659466.17749   1285062.72349  24010095.5024   24010101.7494
  20966416.301    -1899770.40949  -1472113.48949  20966415.9764   20966421.3924
  24075928.383    -3359890.89849  -1929726.54849  24075930.5124   24075937.2184
  24298399.472    -2574474.87449  -1995638.49549  24298402.3124   24298407.5764
  20632361.183    -3055903.37449  -2366652.82249  20632362.3914   20632366.4454
  22382924.269    -4694254.65249  -3638632.24949  22382924.2404   22382930.2884
  20098827.904    -1111738.93749   -861493.16649  20098828.8814   20098833.9604
 96  2  9 17 18 29.9990000  0  7 25 22 19  4 29 18 14
  24017731.576     1699606.50049   1316340.84249  24017734.2634   24017739.4604
  20958129.760    -1943310.87649  -1506041.13049  20958130.3494   20958135.6894
  24048979.461    -3501523.95849  -2040089.95649  24048978.8924   24048985.1244
  24286292.867    -2638094.72849  -2045212.44049  24286295.8484   24286301.1744
  20616635.980    -3138542.27949  -2431046.77049  20616637.0954   20616641.0224
  22358475.240    -4822737.04449  -3738748.37949  22358474.9324   22358479.7014
  20094354.048    -1135248.55349   -879812.35049  20094355.1944   20094360.1414
 96  2  9 17 18 59.9990000  0  7 25 22 19  4 29 18 14
  24025344.157     1739598.69149   1347503.51949  24025343.6104   24025351.2934
  20949930.818    -1986400.39649  -1539617.38649  20949930.9304   20949936.0814
  24022025.494    -3643146.91849  -2150445.47149  24022027.3624   24022034.0854
  24274251.679    -2701374.45349  -2094521.31549  24274253.2994   24274260.0654
  20600912.532    -3221167.22449  -2495429.85049  20600914.0214   20600917.9974
  22334011.013    -4951295.76149  -3838923.98049  22334010.7974   22334016.4374
  20089953.721    -1158376.48149   -897834.12349  20089953.9214   20089959.1174
 96  2  9 17 19 29.9990000  0  7 25 22 19  4 29 18 14
  24032922.662     1779423.47149   1378535.75349  24032923.9664   24032930.0654
  20941815.288    -2029041.53149  -1572844.24849  20941816.5774   20941821.4574
  23995080.072    -3784759.92049  -2260793.23249  23995081.2344   23995085.7944
  24262273.224    -2764324.23249  -2143573.10749  24262274.8114   24262279.9764
  20585188.742    -3303795.35349  -2559815.40449  20585190.2444   20585194.2794
  22309530.202    -5079946.67949  -3939171.42849  22309529.7704   22309535.3414
  20085626.532    -1181108.27649   -915547.22249  20085628.0954   20085633.3794
 96  2  9 17 19 59.9990000  0  7 25 22 19  4 29 18 14
  24040474.292     1819106.41649   1409457.46649  24040475.2884   24040481.5924
  20933793.090    -2071201.48849  -1605696.17349  20933793.7574   20933799.1314
  23968136.535    -3926333.78449  -2371110.49649  23968138.2374   23968145.9584
  24250361.837    -2826918.76449  -2192348.08649  24250364.0574   24250369.8374
  20569472.291    -3386384.61749  -2624170.67749  20569474.1014   20569478.2564
  22285035.173    -5208665.06949  -4039471.45449  22285035.9064   22285040.6404
  20081388.386    -1203386.14949   -932906.61549  20081389.1354   20081394.3794
 96  2  9 17 20 29.9990000  0  7 25 22 19  4 29 18 14
  24048001.630     1858659.18249   1440277.73349  24048001.6464   24048006.9394
  20925863.676    -2112872.17349  -1638166.84549  20925864.1024   20925869.2814
  23941203.213    -4067871.16749  -2481399.33849  23941205.2124   23941211.1264
  24238521.256    -2889144.46349  -2240835.66749  24238523.1634   24238528.1194
  20553769.265    -3468904.16049  -2688471.62149  20553771.1054   20553775.2554
  22260527.576    -5337453.55249  -4139826.09849  22260527.8934   22260532.9074
  20077238.511    -1225190.79049   -949897.25749  20077239.5824   20077244.9954
 96  2  9 17 20 59.9990000  0  7 25 22 19  4 29 18 14
  24055489.849     1898027.86749   1470954.57349  24055493.6484   24055499.3174
  20918018.802    -2154099.50049  -1670292.04549  20918018.8274   20918023.9474
  23914265.579    -4209440.30249  -2591712.91749  23914267.1324   23914272.7394
  24226742.593    -2951040.40549  -2289066.28849  24226745.0364   24226749.3394
  20538072.916    -3551389.76249  -2752746.12149  20538074.4644   20538078.6304
  22235998.443    -5466351.57449  -4240266.09449  22235999.4814   22236004.8484
  20073169.985    -1246570.41749   -966556.72149  20073171.0734   20073176.5584
 96  2  9 17 21 29.9990000  0  7 25 22 19  4 29 18 14
  24062951.836     1937238.64449   1501508.35349  24062954.9374   24062961.1554
  20910263.979    -2194851.37549  -1702046.76149  20910264.2414   20910269.0904
  23887325.094    -4351013.92349  -2702030.00349  23887326.3784   23887332.5974
  24215032.482    -3012577.93949  -2337017.61749  24215034.3444   24215040.3594
  20522387.916    -3633813.12449  -2816972.12349  20522389.8674   20522393.9494
  22211456.867    -5595319.74549  -4340760.74749  22211457.1854   22211462.0314
  20069188.607    -1267495.93849   -982862.33149  20069189.2404   20069194.6034
 96  2  9 17 21 59.9990000  0  7 25 22 19  4 29 18 14
  24070392.963     1976319.60449   1531960.97949  24070392.4894   24070397.8134
  20902604.347    -2235102.90749  -1733411.60049  20902604.4054   20902609.6184
  23860391.856    -4492552.20649  -2812319.54749  23860392.8104   23860396.4904
  24203395.021    -3073732.83249  -2384670.80049  24203395.4674   24203401.0684
  20506724.440    -3716129.99449  -2881115.13849  20506725.5434   20506729.7584
  22186908.691    -5724321.99649  -4441281.95949  22186908.8454   22186914.4444
  20065293.861    -1287962.47449   -998810.29249  20065294.4314   20065299.5234
 96  2  9 17 22 29.9990000  0  7 25 22 19  4 29 18 14
  24077802.540     2015269.56249   1562311.52949  24077804.2864   24077809.0914
  20895037.503    -2274863.99549  -1764394.27549  20895038.3894   20895043.2774
  23833462.432    -4634059.16449  -2922584.66949  23833463.0894   23833470.3984
  24191828.737    -3134510.42449  -2432029.98449  24191830.3754   24191836.5444
  20491079.048    -3798344.78249  -2945178.60549  20491080.6394   20491084.5804
  22162356.634    -5853344.51249  -4541818.96149  22162356.5854   22162362.0324
  20061481.215    -1307998.11149  -1014422.49049  20061482.1724   20061487.1624
 96  2  9 17 22 59.9980000  0  7 25 22 19  4 29 18 14
  24085202.996     2054160.20449   1592615.85049  24085204.3034   24085210.6984
  20887579.482    -2314061.06249  -1794937.45749  20887579.5114   20887584.5234
  23806553.093    -4775460.04349  -3032767.14749  23806555.5474   23806561.1664
  24180346.608    -3194851.14449  -2479048.73449  24180350.5874   24180352.3354
  20475466.458    -3880391.22049  -3009110.89449  20475467.6024   20475471.5674
  22137816.715    -5982302.63749  -4642305.79349  22137817.1014   22137822.4294
  20057761.409    -1327542.92849  -1029652.23349  20057762.8264   20057767.9454
 96  2  9 17 23 29.9980000  0  7 25 22 19  4 29 18 14
  24092579.479     2092924.84749   1622821.99649  24092582.2234   24092586.4004
  20880210.534    -2352782.16449  -1825109.75149  20880211.1154   20880216.1324
  23779649.658    -4916843.09449  -3142935.71449  23779651.4644   23779658.0894
  24168931.026    -3254843.62249  -2525796.14749  24168932.3834   24168938.1794
  20459868.198    -3962362.12049  -3072984.32749  20459869.1824   20459873.2754
  22113271.039    -6111290.31749  -4742815.65849  22113271.4284   22113277.6914
  20054119.962    -1346680.43149  -1044564.58949  20054120.8184   20054126.0584
 96  2  9 17 23 59.9980000  0  7 25 22 19  4 29 18 14
  24099936.292     2131575.61149   1652939.40349  24099937.1804   24099942.0004
  20872935.082    -2391016.21849  -1854902.52949  20872935.5224   20872940.2054
  23752747.347    -5058206.63349  -3253089.08749  23752750.4484   23752757.1734
  24157585.245    -3314469.13349  -2572257.61249  24157585.4614   24157591.6094
  20444289.942    -4044227.67349  -3136775.66749  20444290.8664   20444294.7794
  22088725.404    -6240277.05349  -4843324.78349  22088726.1474   22088731.1424
  20050556.637    -1365404.72949  -1059154.96949  20050557.8564   20050562.9334
 96  2  9 17 24 29.9980000  0  7 25 22 19  4 29 18 14
  24107271.540     2170123.84849   1682976.91849  24107270.8894   24107277.1394
  20865752.895    -2428762.67149  -1884315.35349  20865752.3934   20865757.2924
  23725849.052    -5199567.57449  -3363240.42449  23725850.8404   23725857.1624
  24146310.689    -3373715.31649  -2618423.48449  24146312.2294   24146316.9174
  20428731.346    -4125986.94449  -3200484.19249  20428732.6404   20428736.5354
  22064179.522    -6369269.44449  -4943838.30449  22064179.9354   22064184.3234
  20047076.130    -1383703.49749  -1073413.76549  20047075.8644   20047080.9364
 96  2  9 17 24 59.9980000  0  7 25 22 19  4 29 18 14
  24114582.461     2208556.03649   1712923.99849  24114585.5434   24114590.3764
  20858660.159    -2466031.24249  -1913355.79549  20858660.6634   20858665.2374
  23698950.559    -5340924.52049  -3473388.63849  23698951.7634   23698958.1004
  24135109.463    -3432576.95949  -2664289.73849  24135112.1994   24135114.6754
  20413189.167    -4207659.36949  -3264125.04649  20413190.8604   20413194.8284
  22039625.984    -6498297.68149  -5044379.76249  22039626.1424   22039631.1644
  20043673.641    -1401577.47949  -1087341.55649  20043674.5924   20043679.7584
 96  2  9 17 25 29.9980000  0  7 25 22 19  4 29 18 14
  24121877.734     2246881.58249   1742787.97949  24121877.9004   24121884.1374
  20851665.118    -2502793.59349  -1942001.78849  20851664.9344   20851669.6984
  23672062.785    -5482221.67649  -3583490.25749  23672063.6614   23672070.1064
  24123991.880    -3491002.04249  -2709815.78849  24123993.2064   24123999.7494
  20397670.301    -4289214.99049  -3327674.88649  20397671.5164   20397675.2244
  22015072.366    -6627333.38049  -5144927.04349  22015071.5344   22015076.7104
  20040360.179    -1418991.66849  -1100911.07049  20040360.8054   20040365.8674
 96  2  9 17 25 59.9980000  0  7 25 22 19  4 29 18 14
  24129149.000     2285089.37949   1772560.20149  24129149.3194   24129154.8514
  20844765.911    -2539049.91349  -1970253.46949  20844765.3164   20844770.5664
  23645186.413    -5623457.78149  -3693544.31749  23645187.1194   23645193.4794
  24112956.015    -3548994.91549  -2755005.07449  24112958.0344   24112963.1354
  20382172.776    -4370656.30949  -3391135.66149  20382173.6934   20382177.5774
  21990511.771    -6756393.27949  -5245493.17249  21990512.3494   21990517.4664
  20037132.054    -1435954.38049  -1114128.78649  20037133.1194   20037138.2994
 96  2  9 17 26 29.9980000  0  7 25 22 19  4 29 18 14
  24136399.395     2323192.50149   1802250.87049  24136400.5594   24136405.5634
  20837967.494    -2574775.32649  -1998091.45049  20837966.9324   20837972.0004
  23618327.986    -5764592.12749  -3803519.07549  23618330.0204   23618336.2814
  24102005.523    -3606542.14949  -2799847.08049  24102006.7194   24102011.6944
  20366694.858    -4451993.51249  -3454515.29949  20366695.5614   20366699.3504
  21965946.135    -6885481.84849  -5346081.64949  21965947.6074   21965952.3104
  20033994.724    -1452441.08649  -1126975.58249  20033995.8364   20034000.9264
 96  2  9 17 26 59.9980000  0  7 25 22 19  4 29 18 14
  24143643.297     2361258.01249   1831912.22449  24143644.2924   24143650.0284
  20831284.842    -2609889.12349  -2025452.85349  20831285.3124   20831290.3364
  23591505.486    -5905550.19049  -3913356.46549  23591506.8324   23591512.7704
  24091149.420    -3663593.33449  -2844302.54449  24091151.1314   24091155.2374
  20351246.478    -4533171.12249  -3517770.58449  20351247.9424   20351251.9344
  21941390.723    -7014524.05049  -5446633.99549  21941391.6144   21941395.6034
  20030959.751    -1468388.00149  -1139401.77049  20030961.1234   20030966.4734
 96  2  9 17 27 29.9980000  0  7 25 22 19  4 29 18 14
  24150865.714     2399209.25749   1861484.53949  24150866.9454   24150871.1844
  20824702.180    -2644479.47449  -2052406.38049  20824702.7864   20824708.1094
  23564695.807    -6046446.38049  -4023145.63949  23564695.2214   23564700.8344
  24080364.353    -3720262.33749  -2888460.24549  24080365.7174   24080372.3654
  20335815.291    -4614262.14949  -3580958.40049  20335816.9774   20335820.8754
  21916829.889    -7143599.45549  -5547212.22449  21916829.0464   21916834.2424
  20028010.520    -1483884.09749  -1151476.66749  20028012.3844   20028017.5834
 96  2  9 17 27 59.9980000  0  7 25 22 19  4 29 18 14
  24158067.961     2437060.47549   1890978.93149  24158068.8744   24158074.7714
  20818217.756    -2678555.89149  -2078959.43849  20818218.4294   20818223.7164
  23537886.582    -6187313.35349  -4132912.05749  23537888.4244   23537895.2074
  24069648.864    -3776570.43949  -2932336.71549  24069651.6364   24069655.1734
  20320401.948    -4695260.95849  -3644074.35449  20320403.3104   20320407.2844
  21892258.578    -7272715.93649  -5647822.45549  21892259.2624   21892264.4104
  20025145.815    -1498944.93749  -1163212.40449  20025146.1254   20025151.4994
 96  2  9 17 28 29.9980000  0  7 25 22 19  4 29 18 14
  24165262.117     2474869.48549   1920440.42049  24165263.9754   24165269.4904
  20811841.092    -2712066.31649  -2105071.46549  20811841.8834   20811846.5274
  23511100.499    -6328091.80849  -4242609.52649  23511099.4604   23511104.7344
  24059015.734    -3832449.71349  -2975879.00749  24059018.6514   24059023.3924
  20305016.536    -4776111.40649  -3707074.70549  20305018.0374   20305021.9184
  21867695.374    -7401794.73849  -5748403.32349  21867696.7294   21867701.9084
  20022370.865    -1513520.81449  -1174570.24949  20022372.5964   20022377.6364
 96  2  9 17 28 59.9980000  0  7 25 22 19  4 29 18 14
  24172444.846     2512626.15549   1949861.13349  24172447.6904   24172454.9214
  20805566.626    -2745042.11849  -2130766.90449  20805566.7504   20805571.9454
  23484317.809    -6468812.40849  -4352261.89149  23484320.3394   23484327.1304
  24048462.126    -3887913.42449  -3019097.51849  24048464.2194   24048469.5504
  20289660.620    -4856807.11349  -3769954.48449  20289661.7984   20289665.8764
  21843141.054    -7530838.34949  -5848956.77249  21843140.1974   21843145.8094
  20019686.142    -1527635.47649  -1185568.70849  20019686.6524   20019691.7714
 96  2  9 17 29 29.9980000  0  6 22 19  4 29 18 14
  20799375.194    -2777579.59249  -2156120.78649  20799374.9004   20799379.9644
  23457540.534    -6609541.84149  -4461921.13449  23457541.3754   23457547.2154
  24037976.131    -3943021.31049  -3062038.75149  24037977.4514   24037982.1884
  20274321.718    -4937408.99449  -3832761.14449  20274323.6514   20274328.1434
  21818575.727    -7659918.66749  -5949538.82749  21818576.6204   21818582.4294
  20017075.259    -1541351.92349  -1196256.86749  20017076.6794   20017081.7334
 96  2  9 17 29 59.9980000  0  6 22 19  4 29 18 14
  20793278.635    -2809609.46549  -2181079.13349  20793279.7744   20793284.7464
  23430776.098    -6750186.13449  -4571514.06649  23430777.4534   23430782.9304
  24027572.104    -3997689.18949  -3104637.11549  24027573.6444   24027578.7654
  20259010.895    -5017871.61149  -3895459.28549  20259012.2854   20259016.5444
  21794021.822    -7788960.04249  -6050090.52049  21794021.5804   21794026.4594
  20014553.403    -1554607.41349  -1206585.83549  20014554.2524   20014559.3494
 96  2  9 17 30 29.9980000  0  6 22 19  4 29 18 14
  20787281.471    -2841128.80949  -2205639.67149  20787281.8914   20787286.8944
  23404030.072    -6890733.97649  -4681031.81049  23404032.4694   23404038.6534
  24017253.159    -4051915.92749  -3146891.73249  24017255.9174   24017261.2384
  20243723.165    -5098210.24749  -3958060.82349  20243724.1464   20243728.7444
  21769476.770    -7917948.08449  -6150600.66749  21769475.3874   21769480.7094
  20012120.836    -1567389.98249  -1216546.29849  20012122.0834   20012127.0194
 96  2  9 17 30 59.9980000  0  6 22 19  4 29 18 14
  20781370.783    -2872189.22749  -2229842.60049  20781371.0074   20781376.0314
  23377295.316    -7031235.16149  -4790513.19249  23377296.1304   23377301.7504
  24007005.103    -4105770.79149  -3188856.60649  24007006.9064   24007012.1154
  20228449.184    -5178475.15849  -4020604.90849  20228450.2994   20228454.7604
  21744931.027    -8046936.28649  -6251110.92949  21744930.0504   21744935.0044
  20009770.756    -1579744.73549  -1226173.39149  20009770.8114   20009775.8424
 96  2  9 17 31 29.9980000  0  6 22 19  4 29 18 14
  20775537.414    -2902847.74149  -2253732.36749  20775537.1364   20775542.3084
  23350555.975    -7171745.05049  -4900001.36149  23350557.7924   23350563.4584
  23996815.639    -4159323.36049  -3230585.89649  23996816.8974   23996821.4534
  20213177.304    -5258731.80949  -4083142.56149  20213178.1194   20213182.6484
  21720373.582    -8175980.95949  -6351665.20149  21720373.5044   21720378.5514
  20007485.640    -1591743.36549  -1235522.99349  20007487.4594   20007492.7534
 96  2  9 17 31 59.9980000  0  6 22 19  4 29 18 14
  20769805.737    -2932968.44849  -2277203.05749  20769805.1094   20769810.5714
  23323839.239    -7312139.03249  -5009399.21149  23323841.1694   23323847.4224
  23986703.328    -4212453.04749  -3271985.67449  23986706.1224   23986710.3874
  20197931.338    -5338848.46049  -4145571.12349  20197932.7174   20197936.6634
  21695831.075    -8304948.34949  -6452159.25349  21695832.1184   21695837.0324
  20005290.367    -1603280.84249  -1244513.25249  20005291.8214   20005297.2914
 96  2  9 17 32 29.9980000  0  6 22 19  4 29 18 14
  20764175.378    -2962556.21849  -2300258.47549  20764174.8994   20764180.1104
  23297144.877    -7452417.77249  -5118707.27049  23297148.0054   23297154.1104
  23976674.641    -4265163.82849  -3313059.02649  23976677.7344   23976681.7674
  20182718.263    -5418794.03049  -4207866.37449  20182719.6164   20182723.7994
  21671305.233    -8433838.47149  -6552593.09649  21671304.4614   21671309.3374
  20003183.789    -1614352.73549  -1253140.71849  20003184.8604   20003190.6574
 96  2  9 17 32 59.9980000  0  6 22 19  4 29 18 14
  20758634.124    -2991673.41749  -2322947.21249  20758634.4504   20758639.2604
  23270464.339    -7592636.04149  -5227968.20449  23270465.3104   23270470.7234
  23966714.381    -4317507.90549  -3353846.62649  23966716.2914   23966720.2364
  20167530.349    -5498605.51649  -4270057.14849  20167532.0844   20167536.0554
  21646780.146    -8562717.57849  -6653018.35949  21646780.0684   21646785.1424
  20001155.194    -1625016.63749  -1261450.27349  20001155.6354   20001161.3264
 96  2  9 17 33 29.9980000  0  6 22 19  4 29 18 14
  20753182.300    -3020321.58649  -2345270.47049  20753182.4124   20753187.4234
  23243791.256    -7732802.55549  -5337188.80849  23243792.4284   23243798.2894
  23956821.934    -4369491.40449  -3394353.28049  23956824.5424   23956827.6394
  20152369.355    -5578280.55449  -4332141.59649  20152370.5254   20152374.5124
  21622252.143    -8691606.70149  -6753451.41849  21622253.2734   21622258.3744
  19999202.755    -1635275.62349  -1269444.30249  19999203.7834   19999208.7424
 96  2  9 17 33 59.9980000  0  6 22 19  4 29 18 14
  20747819.672    -3048508.78849  -2367234.53349  20747818.8004   20747823.3874
  23217124.891    -7872926.74349  -5446376.43449  23217126.2324   23217131.9944
  23946997.066    -4421124.30649  -3434586.74349  23946997.9154   23947001.1674
  20137229.136    -5657842.71249  -4394138.08049  20137230.3574   20137234.3764
  21597718.123    -8820539.43649  -6853918.47349  21597718.0514   21597723.4534
  19997327.410    -1645129.55949  -1277122.71049  19997328.9084   19997333.6824
 96  2  9 17 34 29.9980000  0  6 22 19  4 29 18 14
  20742560.699    -3076135.39149  -2388761.76949  20742561.8454   20742566.4564
  23190486.288    -8012921.53449  -5555463.22749  23190486.9654   23190493.1824
  23937256.010    -4472306.34049  -3474468.87349  23937258.7814   23937263.1274
  20122127.585    -5737202.76449  -4455977.08449  20122128.7284   20122132.6754
  21573191.836    -8949423.66949  -6954347.72949  21573191.8884   21573197.5124
  19995551.944    -1654460.95349  -1284393.94349  19995553.0874   19995557.9384
 96  2  9 17 34 59.9980000  0  6 22 19  4 29 18 14
  20737395.602    -3103282.42649  -2409915.31149  20737396.1564   20737400.8194
  23163851.907    -8152886.71949  -5664526.97049  23163851.9414   23163857.5584
  23927585.438    -4523125.95249  -3514068.60149  23927588.0454   23927592.6014
  20107044.170    -5816467.54749  -4517741.84949  20107045.1094   20107049.0894
  21548658.607    -9078350.69149  -7054810.33149  21548657.9534   21548663.2684
  19993858.923    -1663362.10949  -1291329.92149  19993859.3854   19993863.9124
 96  2  9 17 35 29.9980000  0  6 22 19  4 29 18 14
  20732312.036    -3130000.03649  -2430734.23449  20732311.6994   20732316.9694
  23137212.917    -8292870.49849  -5773605.18549  23137213.2034   23137219.6274
  23917973.260    -4573637.15849  -3553428.00749  23917974.1794   23917980.0164
  20091965.518    -5895704.99649  -4579485.31649  20091966.8344   20091970.6324
  21524104.854    -9207375.11249  -7155348.82449  21524105.6954   21524110.5414
  19992233.227    -1671901.00549  -1297983.62349  19992234.5514   19992239.3784
 96  2  9 17 35 59.9980000  0  6 22 19  4 29 18 14
  20727319.140    -3156237.33749  -2451178.89149  20727319.1374   20727324.3994
  23110584.546    -8432808.14949  -5882647.47349  23110584.9274   23110590.3544
  23908435.797    -4623764.96249  -3592488.66949  23908437.2984   23908441.5364
  20076902.949    -5974860.92049  -4641165.26249  20076903.8064   20076907.6294
  21499549.997    -9336415.47849  -7255899.75049  21499550.0994   21499554.9904
  19990688.506    -1680019.00849  -1304309.36049  19990689.6094   19990694.6244
 96  2  9 17 36 29.9980000  0  6 22 19  4 29 18 14
  20722416.725    -3181997.12449  -2471251.45749  20722417.0534   20722422.2484
  23083963.458    -8572698.29449  -5991652.75149  23083964.8664   23083970.3484
  23898971.002    -4673502.34749  -3631245.10649  23898970.9334   23898977.3804
  20061859.426    -6053915.60449  -4702766.31549  20061860.2454   20061864.1604
  21474996.262    -9465442.19849  -7356440.03249  21474996.9144   21475002.4644
  19989223.700    -1687717.01249  -1310307.82349  19989224.7924   19989229.5984
 96  2  9 17 36 59.9970000  0  6 22 19  4 29 18 14
  20717610.812    -3207250.31549  -2490929.26849  20717611.4124   20717616.5024
  23057362.414    -8712485.86449  -6100578.08349  23057364.3804   23057370.0894
  23889583.570    -4722826.88649  -3669679.83349  23889585.1264   23889590.6664
  20046841.666    -6132833.07749  -4764260.45149  20046842.9284   20046846.6344
  21450454.280    -9594415.57149  -7456938.74249  21450454.0334   21450458.8064
  19987841.512    -1694980.44949  -1315967.66349  19987842.4684   19987847.3484
 96  2  9 17 37 29.9970000  0  6 22 19  4 29 18 14
  20712905.045    -3231978.75249  -2510198.18649  20712905.6444   20712910.7734
  23030786.129    -8852153.23549  -6209409.77149  23030786.3314   23030792.1194
  23880275.733    -4771728.14449  -3707784.71149  23880279.1794   23880285.3834
  20031853.709    -6211593.62849  -4825632.31449  20031855.2024   20031858.8474
  21425924.025    -9723320.39649  -7557384.04749  21425924.7774   21425929.2624
  19986545.468    -1701791.29849  -1321274.83549  19986546.5634   19986551.1604
 96  2  9 17 37 59.9970000  0  6 22 19  4 29 18 14
  20708311.548    -3256119.48049  -2529009.15049  20708311.8044   20708316.9634
  23004240.037    -8991651.88049  -6318109.97149  23004240.8114   23004245.8434
  23871062.875    -4820151.08649  -3745516.89449  23871063.5884   23871071.2054
  20016909.189    -6290126.16449  -4886826.50149  20016910.9994   20016914.8304
  21401421.385    -9852083.17549  -7657718.67549  21401421.7304   21401426.2644
  19985348.290    -1708083.18149  -1326177.62549  19985349.2684   19985353.8134
 96  2  9 17 38 29.9970000  0  6 22 19  4 29 18 14
  20703819.680    -3279726.02249  -2547403.86149  20703819.8134   20703824.8284
  22977714.810    -9131045.61949  -6426728.43149  22977714.7324   22977720.7254
  23861925.661    -4868169.98149  -3782934.22349  23861926.8404   23861932.4204
  20002000.480    -6368477.89649  -4947879.79749  20002001.1014   20002004.7174
  21376933.823    -9980768.96449  -7757993.30549  21376934.3224   21376938.6534
  19984238.156    -1713916.87249  -1330723.37349  19984239.0974   19984244.1894
 96  2  9 17 38 59.9970000  0  6 22 19  4 29 18 14
  20699437.577    -3302758.36749  -2565351.14449  20699437.0464   20699441.8134
  22951214.387    -9270299.63149  -6535238.02649  22951215.8004   22951220.6784
  23852867.514    -4915760.31649  -3820017.63549  23852870.8624   23852875.5494
  19987129.675    -6446619.41649  -5008769.29349  19987131.2144   19987134.6144
  21352462.182   -10109363.07549  -7858196.49749  21352463.0254   21352467.9994
  19983221.211    -1719261.48649  -1334888.02249  19983222.1534   19983226.9814
 96  2  9 17 39 29.9970000  0  6 22 19  4 29 18 14
  20695161.636    -3325226.87449  -2582859.06949  20695161.4894   20695166.1114
  22924738.307    -9409429.10949  -6643650.57049  22924739.2804   22924746.5814
  23843895.723    -4962918.53849  -3856764.30049  23843896.8254   23843902.0364
  19972299.199    -6524555.57149  -5069498.76649  19972300.7004   19972304.2044
  21328007.025   -10237878.78949  -7958338.59449  21328007.5104   21328012.5044
  19982297.266    -1724107.53149  -1338664.18149  19982300.0254   19982304.8524
 96  2  9 17 39 59.9970000  0  6 22 19  4 29 18 14
  20690971.434    -3347247.35049  -2600017.87949  20690971.0394   20690975.9204
  22898265.174    -9548546.97749  -6752054.06549  22898266.0574   22898271.9874
  23834988.587    -5009734.76849  -3893244.51549  23834988.4354   23834994.0614
  19957488.474    -6602387.40549  -5130146.94849  19957489.6364   19957493.2664
  21303546.123   -10366416.55249  -8058497.87149  21303547.7234   21303552.3074
  19981453.569    -1728552.41849  -1342127.74949  19981454.0574   19981459.0694
 96  2  9 17 40 29.9970000  0  6 22 19  4 29 18 14
  20686888.940    -3368700.49749  -2616734.61549  20686888.8924   20686893.3534
  22871820.274    -9687515.62649  -6860341.28149  22871821.3694   22871827.3514
  23826168.842    -5056076.20049  -3929354.74949  23826170.5074   23826174.1064
  19942722.339    -6679983.82649  -5190611.69349  19942723.5094   19942727.1034
  21279104.511   -10494857.45449  -8158581.67949  21279106.4974   21279110.8494
  19980707.523    -1732471.58549  -1345181.66149  19980708.2054   19980713.1174
 96  2  9 17 40 59.9970000  0  6 22 19  4 29 18 14
  20682910.468    -3389610.00149  -2633027.73649  20682909.9104   20682914.4884
  22845399.587    -9826354.66349  -6968527.51549  22845401.0074   22845407.5804
  23817439.486    -5101950.42949  -3965100.91249  23817439.3974   23817445.4724
  19927995.433    -6757373.55549  -5250915.38249  19927996.8174   19928000.5944
  21254680.385   -10623218.72549  -8258603.43249  21254679.8084   21254684.5104
  19980058.986    -1735879.69749  -1347837.35349  19980059.4394   19980064.9174
 96  2  9 17 41 29.9970000  0  6 22 19  4 29 18 14
  20679028.996    -3410008.24549  -2648922.47049  20679028.2534   20679032.5714
  22818999.273    -9965086.80949  -7076630.44949  22819001.0004   22819007.7944
  23808797.155    -5147360.22549  -4000485.21149  23808799.8644   23808803.9724
  19913306.145    -6834566.34449  -5311065.60849  19913307.6114   19913311.2404
  21230267.312   -10751503.56049  -8358565.62549  21230267.8884   21230272.3174
  19979503.272    -1738796.68849  -1350110.35049  19979504.4774   19979509.4204
 96  2  9 17 41 59.9970000  0  6 22 19  4 29 18 14
  20675237.614    -3429926.06149  -2664442.85349  20675237.8934   20675242.7824
  22792616.433   -10103739.10049  -7184671.17149  22792617.4864   22792623.3694
  23800237.014    -5192351.75449  -4035543.55449  23800237.4774   23800243.4704
  19898650.511    -6911581.01349  -5371077.03849  19898651.8834   19898655.7034
  21205866.314   -10879731.52449  -8458483.50649  21205867.3874   21205871.8274
  19979032.814    -1741272.79849  -1352039.80549  19979033.6524   19979038.3174
 96  2  9 17 42 29.9970000  0  6 22 19  4 29 18 14
  20671528.217    -3449417.58649  -2679631.06749  20671528.5664   20671533.7884
  22766236.918   -10242360.04649  -7292687.47449  22766238.5704   22766244.3264
  23791738.184    -5237011.48149  -4070343.35849  23791738.6624   23791744.1874
  19884018.407    -6988474.89349  -5430994.35449  19884019.4804   19884023.3174
  21181464.572   -11007965.39449  -8558405.99549  21181465.1394   21181469.1274
  19978632.296    -1743374.55049  -1353677.55549  19978633.6034   19978638.2964
 96  2  9 17 42 59.9970000  0  6 22 19  4 29 18 14
  20667911.994    -3468424.99249  -2694442.04449  20667911.6614   20667916.6794
  22739876.345   -10380892.44449  -7400634.77549  22739876.0824   22739882.2444
  23783309.533    -5281302.44549  -4104855.83349  23783310.1894   23783314.8364
  19869417.215    -7065203.91449  -5490783.20549  19869418.3634   19869422.4434
  21157073.370   -11136142.85949  -8658284.53549  21157073.8514   21157078.3124
  19978314.130    -1745050.45449  -1354983.47349  19978314.9174   19978319.6814
 96  2  9 17 43 29.9970000  0  6 22 19  4 29 18 14
  20664390.627    -3486929.27649  -2708860.97449  20664390.7424   20664395.8514
  22713536.273   -10519300.45949  -7508485.14849  22713538.6044   22713544.6674
  23774952.711    -5325220.37349  -4139077.62149  23774955.2684   23774959.2944
  19854852.639    -7141744.00249  -5550424.83249  19854853.6804   19854857.4064
  21132696.135   -11264246.00849  -8758105.16249  21132696.6124   21132700.7184
  19978075.882    -1746298.62749  -1355956.09349  19978077.3074   19978081.8804
 96  2  9 17 43 59.9970000  0  6 22 19  4 29 18 14
  20660974.530    -3504885.91749  -2722853.17249  20660973.3424   20660978.3984
  22687230.476   -10657537.93549  -7616202.64449  22687231.9344   22687237.5854
  23766670.794    -5368745.31449  -4172993.19349  23766671.7574   23766676.1234
  19840328.191    -7218069.09549  -5609898.93449  19840329.0554   19840333.0474
  21108338.920   -11392244.88249  -8857844.53849  21108339.6904   21108343.3504
  19977928.183    -1747077.12249  -1356562.72949  19977928.9624   19977933.6614
 96  2  9 17 44 29.9970000  0  6 22 19  4 29 18 14
  20657651.556    -3522340.29049  -2736453.99349  20657651.8264   20657656.7794
  22660953.499   -10795634.92849  -7723810.67449  22660953.8344   22660959.9624
  23758457.046    -5411899.51649  -4206619.87049  23758458.7394   23758465.4274
  19825836.377    -7294224.28049  -5669240.63449  19825837.4344   19825841.3464
  21083993.822   -11520180.31149  -8957534.46249  21083993.8624   21083998.4134
  19977865.426    -1747406.91749  -1356819.72949  19977866.2994   19977871.3744
 96  2  9 17 44 59.9970000  0  6 22 19  4 29 18 14
  20654427.396    -3539283.77949  -2749656.71849  20654427.7894   20654432.5524
  22634705.123   -10933566.62949  -7831289.91149  22634705.4394   22634712.3944
  23750322.694    -5454647.32149  -4239929.88849  23750324.9134   23750330.2364
  19811378.148    -7370203.93649  -5728445.56149  19811378.9414   19811382.9864
  21059664.114   -11648035.19549  -9057161.62649  21059664.0544   21059668.4374
  19977888.956    -1747284.15649  -1356724.08849  19977889.6724   19977894.6734
 96  2  9 17 45 29.9970000  0  6 22 19  4 29 18 14
  20651290.178    -3555770.41849  -2762503.45849  20651290.5314   20651295.4974
  22608478.757   -11071387.05249  -7938682.42149  22608479.5504   22608485.3274
  23742260.350    -5497023.23249  -4272950.12449  23742261.4714   23742265.2924
  19796944.286    -7446054.53049  -5787549.91849  19796945.1574   19796948.8744
  21035339.238   -11775855.46349  -9156761.82049  21035340.2624   21035345.3304
  19977989.631    -1746755.91149  -1356312.48949  19977990.2924   19977995.3354
 96  2  9 17 45 59.9970000  0  6 22 19  4 29 18 14
  20648244.435    -3571777.00149  -2774976.13049  20648244.5574   20648249.6634
  22582274.006   -11209091.31049  -8045984.42449  22582275.8024   22582281.7144
  23734272.122    -5538992.87649  -4305653.76949  23734273.8934   23734280.4764
  19782538.716    -7521751.33049  -5846534.44049  19782540.4944   19782544.4564
  21011028.476   -11903613.13949  -9256313.25049  21011028.6534   21011033.3434
  19978173.971    -1745788.71149  -1355558.85049  19978174.2354   19978179.3694
 96  2  9 17 46 29.9970000  0  6 22 19  4 29 18 14
  20645293.093    -3587283.82349  -2787059.37149  20645293.8314   20645298.9944
  22556093.580   -11346669.84449  -8153188.46549  22556094.0304   22556100.3504
  23726368.905    -5580525.03649  -4338016.48949  23726371.5394   23726376.1164
  19768168.299    -7597273.87749  -5905383.17749  19768169.3174   19768173.0464
  20986734.610   -12031277.14949  -9355791.68649  20986735.3714   20986739.7404
  19978442.746    -1744374.77349  -1354457.09249  19978443.4494   19978448.3074
 96  2  9 17 46 59.9970000  0  6 22 19  4 29 18 14
  20642425.111    -3602356.46549  -2798804.29249  20642425.3144   20642430.3414
  22529917.472   -11484221.58449  -8260371.61249  22529918.6474   22529925.9064
  23718532.994    -5621706.41949  -4370105.92149  23718535.6234   23718540.3524
  19753814.654    -7672700.01549  -5964156.78849  19753816.0214   19753819.7844
  20962444.079   -12158927.43249  -9455259.42149  20962444.4924   20962448.7034
  19978779.387    -1742606.83649  -1353079.49049  19978779.8344   19978784.7384
 96  2  9 17 47 29.9970000  0  6 22 19  4 29 18 14
  20639652.108    -3616929.59649  -2810159.98949  20639652.0864   20639656.8664
  22503755.564   -11621702.02649  -8367499.20449  22503757.2234   22503763.7514
  23710773.300    -5662483.28649  -4401880.11849  23710775.9364   23710780.6324
  19739493.375    -7747957.26649  -6022798.80349  19739494.8984   19739498.7504
  20938168.815   -12286496.24149  -9554663.68049  20938168.6494   20938173.3124
  19979196.716    -1740408.95849  -1351366.87649  19979197.8704   19979202.9834
 96  2  9 17 47 59.9970000  0  6 22 19  4 29 18 14
  20636974.938    -3630995.78949  -2821120.66449  20636975.4304   20636980.3534
  22477610.392   -11759101.72049  -8474563.88349  22477611.2514   22477618.2304
  23703092.507    -5702853.90949  -4433337.77049  23703093.1834   23703098.4684
  19725206.657    -7823032.76449  -6081299.19649  19725208.5464   19725212.3834
  20913909.416   -12413981.08149  -9654002.50849  20913909.2904   20913913.5944
  19979697.864    -1737778.45549  -1349317.15549  19979698.9374   19979703.5274
 96  2  9 17 48 29.9970000  0  6 22 19  4 29 18 14
  20634390.713    -3644577.90149  -2831704.12749  20634391.2704   20634395.8014
  22451477.451   -11896435.38849  -8581577.10049  22451478.1994   22451484.3274
  23695480.687    -5742852.12949  -4464505.25349  23695481.8594   23695487.5944
  19710951.105    -7897949.97349  -6139676.24149  19710952.1014   19710955.9394
  20889661.955   -12541400.87549  -9753290.64649  20889661.9334   20889666.2154
  19980275.240    -1734743.66749  -1346952.40649  19980276.0354   19980280.9994
 96  2  9 17 48 59.9970000  0  6 22 19  4 29 18 14
  20631901.932    -3657656.03049  -2841894.87949  20631902.4584   20631906.9544
  22425362.988   -12033664.43549  -8688508.80349  22425363.7064   22425370.7284
  23687942.081    -5782465.90149  -4495373.15349  23687944.5814   23687948.9704
  19696733.564    -7972667.59449  -6197897.76349  19696734.2304   19696737.8924
  20865430.590   -12668732.96949  -9852510.44949  20865431.4764   20865435.5784
  19980935.184    -1731275.91649  -1344250.27649  19980935.8754   19980940.8734
 96  2  9 17 49 29.9970000  0  6 22 19  4 29 18 14
  20629521.180    -3670170.16749  -2851646.15749  20629521.1714   20629525.7654
  22399286.558   -12170698.53849  -8795288.60249  22399287.2724   22399293.1944
  23680489.840    -5821624.21949  -4525886.13149  23680492.0194   23680496.9834
  19682566.750    -8047107.95249  -6255903.23749  19682568.2304   19682572.0774
  20841232.123   -12795900.84449  -9951602.28949  20841232.3644   20841236.6324
  19981689.484    -1727311.26949  -1341160.96449  19981690.3414   19981695.3274
 96  2  9 17 49 59.9970000  0  6 22 19  4 29 18 14
  20627225.837    -3682229.56749  -2861043.09349  20627226.5144   20627230.8684
  22373229.148   -12307626.93249  -8901986.02749  22373231.1704   22373237.1124
  23673105.811    -5860426.92749  -4556122.03749  23673107.6564   23673113.2754
  19668438.223    -8121355.31849  -6313758.33049  19668439.4784   19668443.4394
  20817044.695   -12923007.00249 -10050646.03949  20817044.4954   20817048.8504
  19982516.508    -1722967.71149  -1337776.39449  19982517.0774   19982522.2954
 96  2  9 17 50 29.9970000  0  6 22 19  4 29 18 14
  20625026.662    -3693791.88349  -2870052.69249  20625026.2694   20625030.6744
  22347203.752   -12444395.21249  -9008558.67449  22347205.1464   22347210.7764
  23665796.727    -5898832.32249  -4586048.34449  23665798.4194   23665805.0974
  19654356.996    -8195352.29449  -6371418.31449  19654358.4224   19654362.2594
  20792877.950   -13050003.06249 -10149603.99449  20792878.2544   20792882.4574
  19983424.368    -1718192.47449  -1334055.44849  19983425.9604   19983431.1014
 96  2  9 17 50 59.9960000  0  6 22 19  4 29 18 14
  20622914.610    -3704886.43449  -2878697.80149  20622914.5564   20622919.7464
  22321204.377   -12581028.64549  -9115026.27049  22321203.8844   22321209.7874
  23658560.248    -5936870.85849  -4615688.77849  23658560.4634   23658566.1374
  19640320.188    -8269117.74149  -6428897.88449  19640321.4384   19640325.1934
  20768727.435   -13176915.42449 -10248496.73449  20768727.3114   20768732.0484
  19984410.428    -1713012.67649  -1330019.26649  19984411.8044   19984416.7014
 96  2  9 17 51 29.9960000  0  6 22 19  4 29 18 14
  20620902.446    -3715462.12949  -2886938.60849  20620902.8254   20620907.2004
  22295235.605   -12717483.92549  -9221355.02749  22295236.7684   22295243.6404
  23651402.529    -5974484.15549  -4644997.86949  23651403.5114   23651408.6854
  19626336.687    -8342603.39949  -6486159.43549  19626337.8324   19626341.5884
  20744601.914   -13303692.53149 -10347284.07049  20744602.5924   20744606.8334
  19985484.228    -1707366.10549  -1325619.36249  19985485.9604   19985491.3024
 96  2  9 17 51 59.9960000  0  6 22 19  4 29 18 14
  20618978.984    -3725568.87749  -2894813.99849  20618979.2784   20618984.0874
  22269292.177   -12853822.26449  -9327592.67149  22269292.4254   22269298.4014
  23644313.796    -6011732.27649  -4674022.40549  23644315.4424   23644321.1244
  19612393.832    -8415871.59749  -6543251.53449  19612394.9344   19612398.9664
  20720494.403   -13430378.39249 -10446000.32049  20720494.9194   20720499.5544
  19986640.521    -1701293.24049  -1320887.27949  19986641.5494   19986646.6384
 96  2  9 17 52 29.9960000  0  6 22 19  4 29 18 14
  20617159.020    -3735131.64349  -2902265.51349  20617159.4544   20617163.8144
  22243383.043   -12989974.46349  -9433685.26749  22243384.9214   22243390.2304
  23637307.847    -6048555.50649  -4702715.86649  23637309.0284   23637312.8074
  19598499.201    -8488884.76849  -6600144.91749  19598501.1844   19598505.0924
  20696415.916   -13556911.87249 -10544597.82949  20696416.4624   20696421.0464
  19987892.374    -1694717.20449  -1315763.12049  19987892.7754   19987897.9874
 96  2  9 17 52 59.9960000  0  6 22 19  4 29 18 14
  20615423.758    -3744254.82549  -2909374.49049  20615423.3884   20615428.0654
  22217488.661   -13126047.74549  -9539716.37549  22217490.2354   22217497.0614
  23630363.290    -6085041.99949  -4731146.92949  23630365.8304   23630369.7824
  19584634.214    -8561752.36649  -6656924.86249  19584635.0924   19584638.8024
  20672347.545   -13683394.71749 -10643155.88049  20672347.4894   20672352.3494
  19989217.442    -1687752.33949  -1310335.97249  19989218.3594   19989223.4844
 96  2  9 17 53 29.9960000  0  6 22 19  4 29 18 14
  20613770.767    -3752939.22349  -2916141.56449  20613770.4964   20613775.2104
  22191614.291   -13262023.79349  -9645671.72749  22191614.8394   22191619.9124
  23623488.696    -6121173.22049  -4759301.15049  23623490.4774   23623495.5994
  19570795.182    -8634476.22349  -6713592.81049  19570796.1114   19570799.9324
  20648289.456   -13809816.24349 -10741666.15749  20648290.5344   20648295.2234
  19990618.558    -1680394.12049  -1304602.31949  19990618.8924   19990623.8234
 96  2  9 17 53 59.9960000  0  6 22 19  4 29 18 14
  20612211.287    -3761133.76749  -2922526.93149  20612211.1044   20612215.9594
  22165763.005   -13397863.43849  -9751520.78649  22165764.7104   22165770.7014
  23616689.947    -6156899.63249  -4787139.94349  23616690.4194   23616697.4164
  19556989.853    -8707022.67149  -6770122.51249  19556990.7604   19556994.7334
  20624251.294   -13936141.46249 -10840101.38449  20624251.4394   20624256.3784
  19992100.069    -1672603.96849  -1298532.09249  19992101.0524   19992106.4054
 96  2  9 17 54 29.9960000  0  6 22 19  4 29 18 14
  20610740.871    -3768857.93049  -2928545.76749  20610741.2184   20610746.3224
  22139940.616   -13533568.13749  -9857264.68049  22139942.0684   22139948.0394
  23609967.621    -6192224.83249  -4814666.09249  23609968.8074   23609975.4884
  19543219.311    -8779384.68749  -6826508.49749  19543220.7474   19543224.6584
  20600228.637   -14062378.87049 -10938468.18649  20600229.3404   20600234.3154
  19993661.929    -1664394.72149  -1292135.29849  19993663.2694   19993668.3914
 96  2  9 17 54 59.9960000  0  6 22 19  4 29 18 14
  20609366.651    -3776085.38849  -2934177.56649  20609365.9664   20609371.2594
  22114145.548   -13669121.52749  -9962890.69749  22114145.9594   22114153.0184
  23603327.161    -6227121.03249  -4841857.97149  23603327.4924   23603335.0404
  19529493.429    -8851517.81549  -6882716.13249  19529494.5214   19529498.1854
  20576234.245   -14188473.81749 -11036723.97649  20576234.2824   20576238.7824
  19995307.255    -1655748.32549  -1285397.86749  19995308.5664   19995314.0544
 96  2  9 17 55 29.9960000  0  6 22 19  4 29 18 14
  20608081.493    -3782830.53749  -2939433.53449  20608082.4394   20608087.7894
  22088373.122   -13804554.01549 -10068422.47849  22088373.2804   22088380.2954
  23596760.538    -6261625.85949  -4868744.88549  23596761.2304   23596766.9864
  19515803.900    -8923455.94349  -6938771.81549  19515805.2034   19515808.7014
  20552263.576   -14314441.64449 -11134880.71249  20552263.3214   20552268.0674
  19997032.147    -1646680.08649  -1278331.72449  19997033.9574   19997039.2384
 96  2  9 17 55 59.9960000  0  6 22 19  4 29 18 14
  20606885.124    -3789117.80549  -2944332.71749  20606885.8294   20606891.3954
  22062616.035   -13939905.53949 -10173891.18249  22062617.4954   22062623.6814
  23590262.100    -6295783.73149  -4895361.42349  23590262.7304   23590265.8464
  19502146.965    -8995223.17749  -6994694.33649  19502148.0574   19502152.1364
  20528308.557   -14440322.58649 -11232969.74349  20528309.2494   20528313.6304
  19998833.796    -1637219.47349  -1270959.83849  19998834.5014   19998839.9384
 96  2  9 17 56 29.9960000  0  6 22 19  4 29 18 14
  20605779.737    -3794934.03549  -2948864.85849  20605779.0514   20605784.1864
  22036879.446   -14075147.64849 -10279274.62449  22036882.1774   22036887.7824
  23583828.799    -6329592.38949  -4921705.86649  23583828.7644   23583834.3104
  19488528.706    -9066786.68049  -7050458.10449  19488529.9594   19488534.0304
  20504375.433   -14566094.02349 -11330973.45349  20504376.1644   20504380.4844
  20000710.458    -1627355.06349  -1263273.30849  20000711.6744   20000717.0484
 96  2  9 17 56 59.9960000  0  6 22 19  4 29 18 14
  20604781.626    -3800175.34349  -2952949.00149  20604781.5514   20604786.8374
  22011184.093   -14210188.80949 -10384501.47549  22011184.5434   22011190.1054
  23577479.537    -6362957.17849  -4947704.42149  23577482.3984   23577485.1184
  19474966.857    -9138052.46549  -7105989.88849  19474968.9404   19474972.4074
  20480478.985   -14691671.57049 -11428826.07149  20480479.0274   20480483.6834
  20002681.655    -1616997.71549  -1255202.66749  20002682.6304   20002688.0384
 96  2  9 17 57 29.9960000  0  6 22 19  4 29 18 14
  20603862.913    -3804997.99549  -2956706.91849  20603864.4564   20603869.2544
  21985498.167   -14345165.21449 -10489677.87549  21985498.6514   21985505.8334
  23571184.312    -6396032.81649  -4973477.68649  23571185.5904   23571193.6924
  19461435.732    -9209162.99849  -7161400.69649  19461436.9304   19461440.7304
  20456587.313   -14817226.12649 -11526660.77949  20456586.7484   20456591.3104
  20004718.878    -1606294.98149  -1246862.90049  20004719.4844   20004724.8194
 96  2  9 17 57 59.9960000  0  6 22 19  4 29 18 14
  20603036.372    -3809344.58649  -2960093.89149  20603037.0174   20603041.9174
  21959842.653   -14479983.65949 -10594731.17649  21959844.5434   21959849.9304
  23564960.066    -6428742.34549  -4998965.68149  23564960.7524   23564966.7464
  19447952.242    -9280017.37449  -7216611.90649  19447953.4714   19447957.2154
  20432714.010   -14942678.70049 -11624416.02049  20432714.0814   20432718.8214
  20006831.761    -1595190.46149  -1238210.04649  20006832.8224   20006837.8624
 96  2  9 17 58 29.9960000  0  6 22 19  4 29 18 14
  20602291.881    -3813260.05549  -2963144.91549  20602292.0604   20602296.9414
  21934211.867   -14614675.77549 -10699686.04649  21934213.8404   21934219.8804
  23558795.620    -6461122.51749  -5024197.01849  23558799.4084   23558806.8324
  19434512.711    -9350642.52449  -7271644.49349  19434514.2484   19434518.0754
  20408857.507   -15068041.02249 -11722100.93349  20408857.9824   20408862.7524
  20009013.791    -1583726.71649  -1229277.27749  20009014.0764   20009019.3684
 96  2  9 17 58 59.9960000  0  6 22 19  4 29 18 14
  20601640.777    -3816687.89349  -2965815.97149  20601639.7634   20601645.0764
  21908617.747   -14749180.07649 -10804494.56949  21908618.2644   21908623.8344
  23552710.776    -6493107.93749  -5049120.75349  23552712.3164   23552718.2834
  19421127.036    -9420984.71449  -7326456.59649  19421128.5194   19421132.3364
  20385032.522   -15193245.78649 -11819663.07949  20385032.6514   20385037.2294
  20011276.045    -1571835.72049  -1220011.58649  20011276.7234   20011282.1524
 96  2  9 17 59 29.9960000  0  6 22 19  4 29 18 14
  20601061.180    -3819726.20149  -2968183.49449  20601061.4804   20601066.8174
  21883045.021   -14883566.83849 -10909211.49849  21883045.4324   21883051.0654
  23546681.914    -6524785.87749  -5073804.88349  23546685.0814   23546690.1614
  19407778.577    -9491133.05949  -7381117.64649  19407779.7484   19407783.7684
  20361224.220   -15318352.49149 -11917148.80949  20361225.7604   20361230.6344
  20013606.185    -1559588.87549  -1210468.61749  20013607.2164   20013612.5654
 96  2  9 17 59 59.9960000  0  6 22 19  4 29 18 14
  20600565.117    -3822338.34249  -2970218.93249  20600564.6474   20600569.3804
  21857498.341   -15017799.15449 -11013808.08449  21857500.1094   21857506.9674
  23540719.961    -6556115.59649  -5098217.68349  23540721.3124   23540729.8654
  19394473.399    -9561052.82749  -7435600.58549  19394474.7174   19394478.4854
  20337443.756   -15443324.13249 -12014529.30549  20337444.2014   20337449.0274
  20016015.632    -1546936.23849  -1200609.44449  20016014.8564   20016020.3914
 96  2  9 18  0 29.9960000  0  6 22 19  4 29 18 14
  20600156.088    -3824489.11149  -2971894.86949  20600155.6794   20600160.1254
  21831984.689   -15151875.44949 -11118283.09549  21831986.0664   21831994.0844
  23534828.716    -6587083.06049  -5122348.20249  23534830.3834   23534836.7084
  19381214.682    -9630731.69749  -7489895.81449  19381215.2324   19381218.9524
  20313688.966   -15568155.35549 -12111800.38249  20313689.3794   20313694.6024
  20018504.090    -1533849.69349  -1190412.16049  20018505.3204   20018510.8594
 96  2  9 18  0 59.9960000  0  6 22 19  4 29 18 14
  20599828.955    -3826209.12649  -2973235.14949  20599828.1554   20599832.9604
  21806496.223   -15285832.19849 -11222664.95549  21806496.3514   21806502.0134
  23529002.913    -6617701.02549  -5146206.38949  23529003.9334   23529007.9774
  19367994.582    -9700201.89849  -7544028.44149  19367995.6374   19367999.3534
  20289953.999   -15692884.90349 -12208992.23249  20289954.3594   20289959.1284
  20021069.388    -1520368.55349  -1179907.39849  20021070.7974   20021076.1944
 96  2  9 18  1 29.9960000  0  6 22 19  4 29 18 14
  20599588.642    -3827472.05549  -2974219.26349  20599587.7944   20599592.5114
  21781028.904   -15419656.12949 -11326943.32949  21781031.0334   21781036.8134
  23523247.597    -6647940.27549  -5169769.49749  23523249.5084   23523254.8024
  19354819.319    -9769437.39549  -7597978.18449  19354820.3864   19354824.1894
  20266242.699   -15817489.45349 -12306086.68249  20266242.8534   20266247.7894
  20023713.369    -1506483.14649  -1169087.63049  20023713.1514   20023718.5034
 96  2  9 18  1 59.9960000  0  6 22 19  4 29 18 14
  20599434.895    -3828279.97049  -2974848.80749  20599434.2674   20599438.6814
  21755584.221   -15553375.25849 -11431140.04249  21755584.9334   21755591.0284
  23517563.986    -6677811.75349  -5193046.02249  23517566.5194   23517570.2284
  19341688.452    -9838438.91949  -7651745.60649  19341689.8244   19341693.4864
  20242550.863   -15941991.80649 -12403101.49349  20242551.2074   20242555.9354
  20026424.315    -1492232.37349  -1157983.15949  20026425.3374   20026430.0354
 96  2  9 18  2 29.9960000  0  6 22 19  4 29 18 14
  20599378.076    -3828577.43449  -2975080.59849  20599378.0124   20599382.1194
  21730168.342   -15686935.27149 -11535212.76449  21730169.7054   21730174.7044
  23511961.187    -6707254.96349  -5215988.81049  23511962.9724   23511966.5614
  19328612.497    -9907157.53249  -7705292.58249  19328612.9854   19328616.7234
  20218894.351   -16066306.36549 -12499969.97649  20218894.6584   20218899.3484
  20029213.807    -1477574.84449  -1146561.73449  20029214.6784   20029219.3694
 96  2  9 18  2 59.9960000  0  6 22 19  4 29 18 14
  20599400.599    -3828455.36749  -2974985.50049  20599400.4854   20599405.3544
  21704771.491   -15820398.68649 -11639210.21349  21704772.7684   21704777.4084
  23506425.375    -6736343.06949  -5238654.89149  23506427.1254   23506432.0344
  19315570.121    -9975689.09849  -7758693.81049  19315571.9354   19315575.5874
  20195261.338   -16190498.42049 -12596743.00449  20195262.0294   20195266.2844
  20032067.109    -1462584.58149  -1134881.03649  20032067.3114   20032072.0314
 96  2  9 18  3 29.9960000  0  6 22 19  4 29 18 14
  20599506.508    -3827900.78449  -2974553.36549  20599506.3004   20599510.8594
  21679396.923   -15953741.52749 -11743113.71749  21679397.9924   21679404.0914
  23500956.194    -6765082.43449  -5261049.23249  23500959.3434   23500961.5734
  19302566.949   -10044022.52149  -7811940.63849  19302568.5654   19302572.3524
  20171654.513   -16314557.16349 -12693412.15249  20171654.2664   20171658.6844
  20034987.423    -1447232.80649  -1122918.64049  20034988.4424   20034993.3294
 96  2  9 18  3 59.9960000  0  6 22 19  4 29 18 14
  20599686.222    -3826960.24349  -2973820.48249  20599685.3614   20599689.6914
  21654036.806   -16086998.90849 -11846950.61349  21654038.7454   21654046.5074
  23495544.537    -6793525.69549  -5283212.80449  23495546.9374   23495551.6384
  19289594.710   -10112195.69649  -7865062.59949  19289595.6854   19289599.5594
  20148064.317   -16438523.72449 -12790009.47149  20148064.0984   20148068.5554
  20037971.462    -1431551.80649  -1110699.70149  20037972.2714   20037977.3914
 96  2  9 18  4 29.9950000  0  6 22 19  4 29 18 14
  20599945.606    -3825591.99849  -2972754.32549  20599945.6494   20599950.1304
  21628708.729   -16220107.97549 -11950671.94349  21628709.2004   21628716.5994
  23490198.387    -6821622.49049  -5305106.44549  23490200.4274   23490203.7234
  19276660.362   -10180164.98649  -7918025.68849  19276661.5054   19276665.2854
  20124502.463   -16562339.60149 -12886489.37149  20124502.7954   20124506.9984
  20041030.579    -1415478.99849  -1098175.45849  20041030.8034   20041035.8214
 96  2  9 18  4 59.9950000  0  6 22 19  4 29 18 14
  20600277.065    -3823848.09949  -2971395.45449  20600277.3204   20600282.0824
  21603396.677   -16353125.16449 -12054321.70949  21603397.3724   21603403.1664
  23484905.485    -6849433.95149  -5326777.72349  23484907.4154   23484913.4504
  19263758.836   -10247963.29949  -7970855.54849  19263759.8304   19263763.4984
  20100956.658   -16686076.24149 -12982907.52649  20100956.5154   20100960.8794
  20044156.830    -1399054.79049  -1085377.40149  20044156.2904   20044161.3874
 96  2  9 18  5 29.9950000  0  6 22 19  4 29 18 14
  20600693.390    -3821666.61749  -2969695.60249  20600692.4184   20600697.1654
  21578111.150   -16486003.37149 -12157863.14149  21578111.5734   21578117.8844
  23479676.773    -6876912.26849  -5348189.42749  23479678.9544   23479681.6384
  19250904.999   -10315508.53149  -8023488.20049  19250906.6944   19250910.0294
  20077437.680   -16809669.79949 -13079214.18549  20077437.5514   20077441.5954
  20047357.723    -1382223.72649  -1072262.30649  20047359.0354   20047364.2144
 96  2  9 18  5 59.9950000  0  6 22 19  4 29 18 14
  20601193.435    -3819035.52849  -2967645.41949  20601192.9234   20601197.8614
  21552851.959   -16618738.90549 -12261293.42549  21552852.8034   21552858.4514
  23474513.662    -6904048.31049  -5369334.41649  23474516.0524   23474520.7514
  19238102.422   -10382788.30049  -8075914.00249  19238103.6284   19238107.1644
  20053949.503   -16933099.75249 -13175393.36349  20053949.4284   20053953.6644
  20050638.003    -1364986.40249  -1058830.64949  20050639.4304   20050644.8804
 96  2  9 18  6 29.9950000  0  6 22 19  4 29 18 14
  20601783.436    -3815933.68349  -2965228.40849  20601783.1484   20601788.2004
  21527624.153   -16751309.41849 -12364595.10049  21527625.9784   21527631.0224
  23469417.903    -6930822.59049  -5390197.52049  23469419.0524   23469424.7094
  19225356.533   -10449769.99049  -8128107.53149  19225357.4044   19225361.0184
  20030496.562   -17056342.42449 -13271426.60049  20030496.7064   20030501.0744
  20053999.312    -1347321.01149  -1045065.44049  20054000.6714   20054006.3274
 96  2  9 18  6 59.9950000  0  6 22 19  4 29 18 14
  20602451.093    -3812415.52349  -2962487.00049  20602452.5004   20602457.9344
  21502417.621   -16883772.99849 -12467813.46549  21502418.5274   21502424.3254
  23464380.535    -6957297.68049  -5410827.51349  23464380.6714   23464387.6344
  19212657.089   -10516504.80849  -8180108.69849  19212658.2034   19212661.6674
  20007067.746   -17179462.61449 -13367364.40149  20007067.9714   20007072.4024
  20057431.085    -1329290.11449  -1031015.42149  20057431.9874   20057437.3224
 96  2  9 18  7 29.9950000  0  6 22 19  4 29 18 14
  20603204.996    -3808465.76649  -2959409.28749  20603204.3064   20603209.8534
  21477231.433   -17016119.71149 -12570940.74549  21477234.1774   21477239.2804
  23459403.441    -6983451.52449  -5431207.18349  23459405.3664   23459411.3074
  19200006.175   -10582987.35949  -8231913.29249  19200007.1604   19200010.6904
  19983665.700   -17302439.79349 -13463190.77149  19983665.9864   19983670.4424
  20060932.885    -1310894.29449  -1016681.04249  20060933.0374   20060938.1954
 96  2  9 18  7 59.9950000  0  6 22 19  4 29 18 14
  20604038.785    -3804080.30649  -2955992.05949  20604038.5884   20604043.9054
  21452078.491   -17148306.35849 -12673943.31149  21452079.2584   21452085.0724
  23454490.751    -7009257.10649  -5451315.46149  23454492.4904   23454498.0044
  19187408.310   -10649190.26949  -8283499.98149  19187409.2094   19187412.8724
  19960296.693   -17425247.42249 -13558885.01949  19960296.5664   19960300.8404
  20064505.183    -1292123.74749  -1002054.67149  20064504.9544   20064509.9044
 96  2  9 18  8 29.9950000  0  6 22 19  4 29 18 14
  20604953.865    -3799270.51649  -2952244.19349  20604954.1954   20604959.5214
  21426954.662   -17280337.12649 -12776824.40849  21426955.2024   21426960.5284
  23449647.028    -7034712.60049  -5471150.95749  23449648.8924   23449656.1524
  19174862.495   -10715119.93049  -8334873.74549  19174863.2964   19174866.9364
  19936956.893   -17547896.00349 -13654455.33449  19936957.3774   19936961.7284
  20068144.970    -1272988.81549   -987144.36049  20068146.6354   20068151.4364
 96  2  9 18  8 59.9950000  0  6 22 19  4 29 18 14
  20605952.572    -3794019.31649  -2948152.35649  20605953.9764   20605958.3664
  21401861.850   -17412197.36349 -12879572.61749  21401862.3984   21401868.3784
  23444876.485    -7059789.97349  -5490691.82149  23444876.8034   23444884.8324
  19162368.136   -10780775.88549  -8386034.23249  19162369.3794   19162372.9434
  19913653.613   -17670354.18549 -13749877.28449  19913653.9694   19913658.6224
  20071857.298    -1253485.61549   -971947.08649  20071858.0164   20071862.7214
 96  2  9 18  9 29.9950000  0  6 22 19  4 29 18 14
  20607036.607    -3788330.73949  -2943719.71049  20607035.5834   20607040.9674
  21376802.573   -17543886.97749 -12982187.87649  21376803.2244   21376808.0924
  23440174.728    -7084481.21349  -5509931.78749  23440178.2754   23440185.3874
  19149925.984   -10846160.21949  -8436983.06949  19149927.1144   19149930.4594
  19890388.870   -17792613.73349 -13845144.45549  19890388.6764   19890393.2884
  20075637.888    -1233616.50349   -956464.69049  20075638.6174   20075643.3754
 96  2  9 18  9 59.9950000  0  6 22 19  4 29 18 14
  20608205.332    -3782182.45449  -2938928.84549  20608205.7514   20608211.0334
  21351780.555   -17675377.06849 -13084647.66949  21351782.1554   21351786.9624
  23435555.413    -7108770.63249  -5528858.65249  23435554.7954   23435564.8824
  19137538.164   -10911256.45549  -8487707.41549  19137539.6374   19137543.1604
  19867163.985   -17914659.75749 -13940245.24749  19867164.3024   19867168.9584
  20079493.883    -1213356.35949   -940677.59749  20079494.2384   20079499.3324
 96  2  9 18 10 29.9950000  0  6 22 19  4 29 18 14
  20609445.039    -3775673.53549  -2933856.96749  20609444.5684   20609449.8594
  21326772.023   -17806795.69649 -13187051.76649  21326772.3024   21326779.1544
  23430984.941    -7132784.25849  -5547570.63349  23430986.5564   23430992.2364
  19125181.268   -10976196.10049  -8538309.73149  19125181.6794   19125185.5524
  19843956.893   -18036614.61349 -14035274.99249  19843957.1434   19843961.7384
  20083401.246    -1192818.71549   -924674.26549  20083402.3494   20083407.3444
 96  2  9 18 10 59.9950000  0  5 22 19 29 18 14
  20610766.380    -3768727.93549  -2928444.82349  20610766.4224   20610771.7434
  21301792.642   -17938059.61549 -13289335.32649  21301794.8344   21301799.2794
  19112869.336   -11040893.59049  -8588723.36749  19112870.3884   19112874.2004
  19820781.471   -18158403.34849 -14130175.30449  19820781.7614   19820786.2834
  20087377.112    -1171924.11649   -908392.78649  20087378.2324   20087383.5694
 96  2  9 18 11 29.9950000  0  5 22 19 29 18 14
  20612182.956    -3761293.07049  -2922651.42849  20612181.2604   20612186.3514
  21276858.562   -18069092.24649 -13391438.64649  21276859.3204   21276865.7474
  19100618.161   -11105273.69049  -8638889.68049  19100619.0294   19100623.0184
  19797644.469   -18279986.82149 -14224915.66149  19797645.1414   19797649.5704
  20091430.732    -1150622.01849   -891793.77949  20091431.9664   20091437.3414
 96  2  9 18 11 59.9950000  0  6 22 19 29 18 28 14
  20613660.434    -3753519.93049  -2916594.43949  20613660.5624   20613665.3384
  21251942.140   -18200023.48249 -13493462.96649  21251943.1944   21251949.3344
  19088402.079   -11169473.08449  -8688915.18649  19088402.3864   19088406.2474
  19774520.402   -18401503.71449 -14319604.14749  19774521.3064   19774525.7854
  23362241.372    -9360209.03619  -7272657.99919  23362241.026    23362247.424
  20095538.834    -1129041.62749   -874977.91449  20095538.6804   20095543.6294
 96  2  9 18 12 29.9950000  0  6 22 19 29 18 28 14
  20615221.636    -3745319.35149  -2910204.38249  20615221.1404   20615225.8164
  21227066.959   -18330750.70949 -13595328.32349  21227068.4424   21227073.2354
  19076240.256   -11233378.09149  -8738711.29949  19076241.7184   19076245.6684
  19751430.704   -18522847.38849 -14414157.65249  19751430.3974   19751434.6774
  23336854.947    -9493613.166 9  -7376609.319 9  23336855.387    23336861.996
  20099715.580    -1107086.91649   -857870.37849  20099716.4054   20099721.6234
 96  2  9 18 12 59.9950000  0  6 22 19 29 18 28 14
  20616861.446    -3736700.95849  -2903488.74949  20616861.0194   20616865.8994
  21202230.130   -18461270.38349 -13697031.94949  21202231.2274   21202236.0914
  19064138.287   -11296976.98349  -8788268.87949  19064139.3274   19064143.4034
  19728374.068   -18644006.98849 -14508567.72449  19728374.6744   19728378.9364
  23311484.041    -9626931.959 9  -7480494.143 9  23311485.550    23311492.098
  20103965.089    -1084753.85349   -840468.01549  20103966.0904   20103971.2764
 96  2  9 18 13 29.9950000  0  6 22 19 29 18 28 14
  20618567.263    -3727733.09149  -2896500.80149  20618567.8444   20618572.5544
  21177419.776   -18591646.29849 -13798623.55049  21177421.2024   21177426.5754
  19052081.633   -11360336.29449  -8837639.77349  19052082.4314   19052086.3524
  19705342.848   -18765036.14449 -14602876.14149  19705343.2654   19705347.6524
  23286124.445    -9760216.554 9  -7584352.338 9  23286122.717    23286129.370
  20108276.758    -1062093.86049   -822810.90949  20108278.3234   20108283.5774
 96  2  9 18 13 59.9950000  0  6 22 19 29 18 28 14
  20620354.885    -3718339.74849  -2889181.31049  20620355.1324   20620359.7344
  21152646.449   -18721822.50449 -13900059.52949  21152649.1814   21152654.4054
  19040086.341   -11423370.85449  -8886757.61449  19040087.1954   19040091.1644
  19682356.434   -18885832.17049 -14697002.90649  19682356.8284   19682361.1764
  23260783.524    -9893374.533 9  -7688111.871 9  23260783.235    23260790.065
  20112672.541    -1039000.35849   -804815.99849  20112672.8384   20112677.8924
 96  2  9 18 14 29.9950000  0  6 22 19 29 18 28 14
  20622220.047    -3708545.72749  -2881549.60749  20622219.0074   20622223.7894
  21127904.092   -18851851.75149 -14001381.00449  21127905.8204   21127911.1914
  19028145.139   -11486120.90549  -8935653.76149  19028146.4524   19028150.1714
  19659406.470   -19006435.64449 -14790979.62949  19659406.7024   19659410.8174
  23235461.411   -10026442.610 9  -7791801.362 9  23235461.224    23235467.874
  20117138.447    -1015529.80249   -786527.28649  20117139.1984   20117144.6954
 96  2  9 18 14 59.9950000  0  6 22 19 29 18 28 14
  20624151.381    -3698393.23849  -2873638.57249  20624151.1414   20624155.8784
  21103177.772   -18981793.70849 -14102634.46149  21103178.1754   21103184.1024
  19016249.129   -11548634.37849  -8984365.55749  19016250.5384   19016254.1634
  19636484.910   -19126888.43049 -14884838.93349  19636485.0734   19636489.3954
  23210148.963   -10159454.788 9  -7895447.292 9  23210150.012    23210156.655
  20121668.589     -991722.71349   -767976.33149  20121669.5294   20121674.5584
 96  2  9 18 15 29.9950000  0  6 22 19 29 18 28 14
  20626161.283    -3687828.07249  -2865405.97749  20626161.2404   20626166.4694
  21078477.361   -19111594.63549 -14203778.02449  21078479.2564   21078483.6124
  19004409.262   -11610851.94149  -9032846.77449  19004410.6964   19004414.6284
  19613604.700   -19247129.30449 -14978533.11049  19613604.2444   19613608.4844
  23184859.060   -10292352.442 9  -7999003.982 9  23184860.563    23184867.841
  20126272.496     -967529.73849   -749124.69449  20126273.0534   20126278.7524
 96  2  9 18 15 59.9950000  0  6 22 19 29 18 28 14
  20628241.849    -3676898.25749  -2856889.24249  20628241.0494   20628246.2424
  21053793.962   -19241300.91449 -14304847.83749  21053796.2934   21053801.7414
  18992615.204   -11672835.73449  -9081145.84149  18992615.4734   18992619.6484
  19590753.491   -19367208.83149 -15072101.56649  19590753.6984   19590758.0844
  23159579.019   -10425197.761 9  -8102519.878 9  23159580.789    23159587.942
  20130934.005     -943033.99049   -730037.12849  20130934.6674   20130940.1824
 96  2  9 18 16 29.9950000  0  6 22 19 29 18 28 14
  20630399.758    -3665554.08349  -2848049.63349  20630399.8074   20630404.8134
  21029140.860   -19370858.93849 -14405802.12049  21029141.6644   21029147.6554
  18980868.648   -11734553.36549  -9129237.50849  18980870.9634   18980875.2234
  19567940.225   -19487093.75249 -15165518.37749  19567940.5544   19567944.8284
  23134316.434   -10557950.482 9  -8205963.606 9  23134318.669    23134326.252
  20135655.188     -918221.58749   -710702.82049  20135656.3714   20135661.9014
 96  2  9 18 16 59.9950000  0  6 22 19 29 18 28 14
  20632628.305    -3653850.41349  -2838929.89649  20632627.3424   20632631.6304
  21004508.396   -19500300.80249 -14506665.88949  21004509.5214   21004513.8634
  18969171.069   -11796034.47249  -9177144.86549  18969171.7304   18969175.6144
  19545156.270   -19606824.53049 -15258815.07549  19545156.7054   19545160.8174
  23109067.910   -10690650.232 9  -8309366.033 9  23109066.888    23109074.228
  20140429.773     -893132.70549   -691153.06949  20140430.6024   20140436.1754
 96  2  9 18 17 29.9940000  0  6 22 19 29 18 28 14
  20634932.962    -3641725.05849  -2829481.57849  20634934.6694   20634939.5244
  20979915.440   -19629540.21649 -14607371.90949  20979916.6974   20979921.1564
  18957526.472   -11857222.54449  -9224823.88049  18957528.1694   18957531.9214
  19522414.076   -19726335.74749 -15351940.69449  19522414.0514   19522418.6804
  23083837.625   -10823233.435 9  -8412677.639 9  23083837.350    23083844.218
  20145266.012     -867715.77749   -671347.70449  20145267.3424   20145272.8924
 96  2  9 18 17 59.9940000  0  6 22 19 29 18 28 14
  20637316.481    -3629211.17549  -2819730.50549  20637315.9574   20637320.7724
  20955352.024   -19758621.20949 -14707954.49149  20955352.7184   20955359.2234
  18945932.402   -11918154.22849  -9272303.11649  18945933.1674   18945936.9454
  19499703.615   -19845680.55549 -15444936.64349  19499703.6924   19499707.9234
  23058622.976   -10955737.548 9  -8515927.589 9  23058622.531    23058629.939
  20150159.049     -842005.93449   -651314.08649  20150160.3334   20150165.1554
 96  2  9 18 18 29.9940000  0  6 22 19 29 18 28 14
  20639775.909    -3616290.40449  -2809662.38249  20639774.7214   20639779.1824
  20930822.877   -19887524.12249 -14808398.29949  20930822.9734   20930828.9014
  18934395.867   -11978779.43849  -9319543.54049  18934396.8014   18934400.4164
  19477030.611   -19964827.04949 -15537778.05849  19477030.5974   19477035.3674
  23033427.868   -11088126.615 9  -8619087.874 9  23033429.838    23033436.835
  20155115.003     -815959.66949   -631018.32649  20155116.3154   20155122.1804
 96  2  9 18 18 59.9940000  0  6 22 19 29 18 28 14
  20642305.113    -3602993.72249  -2799301.34849  20642304.7414   20642309.7904
  20906324.417   -20016257.25649 -14908709.80949  20906325.6954   20906331.7754
  18922915.088   -12039111.82049  -9366555.78549  18922916.1324   18922919.6894
  19454395.550   -20083773.69749 -15630463.75549  19454395.7994   19454400.2884
  23008255.149   -11220416.087 9  -8722170.533 9  23008256.209    23008262.853
  20160134.403     -789586.89149   -610468.13549  20160134.8294   20160140.3024
 96  2  9 18 19 29.9940000  0  6 22 19 29 18 28 14
  20644912.260    -3589286.03949  -2788620.04649  20644912.9344   20644918.4114
  20881867.455   -20144786.83649 -15008862.71849  20881867.7634   20881872.6254
  18911496.246   -12099116.94249  -9413313.02249  18911497.4284   18911500.9754
  19431808.770   -20202468.36449 -15722953.09849  19431809.1084   19431813.3094
  22983107.700   -11352561.876 9  -8825141.226 9  22983109.152    22983115.999
  20165222.280     -762848.87449   -589633.33849  20165223.1084   20165228.4264
 96  2  9 18 19 59.9940000  0  6 22 19 29 18 28 14
  20647595.915    -3575187.75449  -2777634.38049  20647595.8994   20647600.7084
  20857443.367   -20273135.46749 -15108874.61449  20857444.3514   20857449.4594
  18900140.044   -12158795.05049  -9459815.44449  18900140.8884   18900144.6144
  19409267.901   -20320918.45149 -15815251.85849  19409268.5264   19409272.9284
  22957990.097   -11484569.004 9  -8928003.856 9  22957989.069    22957996.116
  20170376.401     -735761.25849   -568526.13349  20170377.5514   20170383.1344
 96  2  9 18 20 29.9940000  0  6 22 19 29 18 28 14
  20650345.436    -3560743.12849  -2766378.84449  20650344.4814   20650349.5254
  20833045.394   -20401339.85249 -15208774.11349  20833047.3234   20833053.8384
  18888836.358   -12218195.28649  -9506101.33749  18888837.4964   18888841.1644
  19386768.838   -20439155.02749 -15907384.24649  19386769.1054   19386773.5304
  22932889.057   -11616473.228 9  -9030786.295 9  22932888.174    22932895.226
  20175590.764     -708364.52549   -547178.05749  20175590.9354   20175596.8654
 96  2  9 18 20 59.9940000  0  6 22 19 29 18 28 14
  20653164.125    -3545933.29449  -2754838.72549  20653163.5434   20653168.1074
  20808680.833   -20529381.61849 -15308546.88849  20808681.0494   20808687.6984
  18877586.541   -12277311.50549  -9552165.92449  18877587.8204   18877591.7484
  19364311.223   -20557173.77149 -15999346.89549  19364311.1614   19364315.1724
  22907810.478   -11748253.252 9  -9133471.952 9  22907811.422    22907818.173
  20180863.581     -680656.31449   -525587.26949  20180863.6154   20180869.3044
 96  2  9 18 21 29.9940000  0  6 22 19 29 18 28 14
  20656049.355    -3530763.42849  -2743018.06749  20656050.2894   20656055.0754
  20784341.661   -20657286.17249 -15408212.74649  20784342.2514   20784348.4454
  18866389.358   -12336157.43949  -9598019.90049  18866389.7434   18866393.9844
  19341887.583   -20675003.73149 -16091162.43949  19341888.2684   19341893.1754
  22882757.778   -11879914.509 9  -9236065.048 9  22882757.097    22882763.891
  20186192.530     -652649.38549   -503763.71549  20186193.4904   20186199.3154
 96  2  9 18 21 59.9940000  0  6 22 19 29 18 28 14
  20659006.695    -3515229.72249  -2730913.89649  20659005.8224   20659010.5604
  20760026.304   -20785058.51849 -15507775.59149  20760028.1604   20760033.8804
  18855239.412   -12394742.77049  -9643670.80749  18855241.1664   18855245.3984
  19319499.445   -20792655.89349 -16182839.44049  19319499.8924   19319504.4554
  22857723.704   -12011460.418 9  -9338568.282 9  22857724.469    22857731.511
  20191577.418     -624348.91049   -481711.42349  20191578.6044   20191584.4024
 96  2  9 18 22 29.9940000  0  6 22 19 29 18 28 14
  20662032.877    -3499323.88249  -2718519.74349  20662032.6454   20662037.7754
  20735738.695   -20912695.24849 -15607232.76049  20735739.9404   20735744.8014
  18844140.998   -12453072.78149  -9689122.76249  18844141.6874   18844145.4854
  19297145.652   -20910125.84549 -16274374.45549  19297145.9804   19297150.8804
  22832713.033   -12142889.121 9  -9440980.170 9  22832714.483    22832721.558
  20197019.299     -595752.34249   -459428.41049  20197020.3044   20197026.1604
 96  2  9 18 22 59.9940000  0  6 22 19 29 18 28 14
  20665134.427    -3483026.54749  -2705820.53249  20665133.7974   20665138.9054
  20711478.896   -21040180.90949 -15706572.20549  20711480.2734   20711485.2814
  18833093.995   -12511121.17249  -9734355.28049  18833095.2854   18833099.2954
  19274833.700   -21027376.19049 -16365738.35249  19274833.8894   19274838.7954
  22807730.758   -12274177.284 9  -9543282.558 9  22807731.096    22807738.215
  20202520.229     -566848.30849   -436905.82049  20202520.5054   20202526.4704
 96  2  9 18 23 29.9940000  0  6 22 19 29 18 28 14
  20668301.266    -3466383.93849  -2692852.26849  20668300.8064   20668306.0574
  20687240.107   -21167558.80349 -15805827.68049  20687240.2314   20687246.5804
  18822094.724   -12568924.20449  -9779396.59949  18822095.8114   18822099.8124
  19252558.763   -21144432.54049 -16456951.07749  19252558.7224   19252563.7644
  22782769.270   -12405360.432 9  -9645503.117 9  22782767.685    22782774.469
  20208073.693     -537664.23049   -414165.01049  20208073.9934   20208079.3754
 96  2  9 18 23 59.9940000  0  6 22 19 29 18 28 14
  20671539.886    -3449358.72749  -2679585.88649  20671540.6274   20671546.2154
  20663031.735   -21294769.34549 -15904952.73949  20663033.3994   20663038.6134
  18811152.027   -12626428.61049  -9824205.21649  18811153.0544   18811157.2124
  19230329.783   -21261244.20949 -16547973.14149  19230330.5394   19230335.2364
  22757832.623   -12536390.651 9  -9747604.513 9  22757833.064    22757840.410
  20213688.281     -508155.98949   -391171.60249  20213689.4634   20213694.9614
 96  2  9 18 24 29.9940000  0  6 22 19 29 18 28 14
  20674851.941    -3431951.50549  -2666021.83149  20674853.1404   20674858.0344
  20638861.587   -21421790.67249 -16003930.37949  20638862.4774   20638867.1244
  18800270.913   -12683609.63249  -9868761.86249  18800271.9324   18800275.7964
  19208150.964   -21377799.05549 -16638795.09349  19208150.9624   19208155.3054
  22732930.042   -12667250.137 9  -9849572.876 9  22732931.373    22732938.580
  20219366.673     -478320.08749   -367922.88549  20219367.2854   20219372.4504
 96  2  9 18 24 59.9940000  0  6 22 19 29 18 28 14
  20678231.023    -3414202.49749  -2652191.44749  20678230.7174   20678235.7624
  20614722.145   -21548642.88449 -16102776.22349  20614723.1024   20614728.1424
  18789449.788   -12740475.09149  -9913072.61349  18789450.7974   18789454.6054
  19186013.457   -21494131.48149 -16729443.73149  19186013.5784   19186018.1344
  22708056.583   -12797958.891 9  -9951423.781 9  22708058.223    22708065.943
  20225102.706     -448177.21549   -344434.96949  20225103.5524   20225108.7014
 96  2  9 18 25 29.9940000  0  6 22 19 29 18 28 14
  20681670.231    -3396127.95649  -2638107.39649  20681670.2374   20681674.8924
  20590615.279   -21675315.34549 -16201482.00749  20590617.2514   20590623.4014
  18778687.363   -12797027.71049  -9957139.59049  18778689.1084   18778693.0914
  19163912.349   -21610269.36049 -16819940.77349  19163913.1454   19163917.7644
  22683213.717   -12928520.601 9 -10053160.117 9  22683213.293    22683220.438
  20230895.603     -417725.26049   -320706.20049  20230898.1974   20230903.8674
 96  2  9 18 25 59.9940000  0  6 22 19 29 18 28 14
  20685185.121    -3377658.62749  -2623715.72649  20685184.9914   20685189.8794
  20566562.862   -21801721.23649 -16299980.08149  20566563.8524   20566568.8764
  18768000.213   -12853192.55349 -10000904.40349  18768001.2454   18768005.2614
  19141865.270   -21726134.77149 -16910225.49749  19141864.9764   19141869.4344
  22658411.551   -13058856.270 9 -10154720.333 9  22658411.201    22658418.245
  20236761.609     -386913.28349   -296696.89949  20236761.6354   20236766.8614
 96  2  9 18 26 29.9940000  0  6 22 19 29 18 28 14
  20688755.974    -3358895.40049  -2609095.04449  20688755.5334   20688760.5184
  20542536.726   -21927973.88749 -16398358.73149  20542538.5684   20542543.4924
  18757365.722   -12909075.75249 -10044449.75349  18757367.2994   18757370.9894
  19119849.242   -21841826.03249 -17000374.52549  19119849.7644   19119853.9204
  22633635.777   -13189068.722 9 -10256184.531 9  22633632.984    22633639.276
  20242671.686     -355845.73749   -272488.46049  20242673.9894   20242678.8744
 96  2  9 18 26 59.9940000  0  6 22 19 29 18 28 14
  20692392.626    -3339782.87549  -2594202.16949  20692392.4914   20692397.7184
  20518549.329   -22054033.28849 -16496586.81549  20518550.5504   20518555.2154
  18746794.508   -12964633.22249 -10087741.29649  18746795.1794   18746798.4474
  19097878.112   -21957286.78849 -17090343.93649  19097878.0494   19097882.3894
  22608888.749   -13319107.004 9 -10357513.015 9  22608887.209    22608894.011
  20248644.268     -324467.52049   -248037.93049  20248644.7004   20248649.8344
 96  2  9 18 27 29.9940000  0  6 22 19 29 18 28 14
  20696099.931    -3320303.73149  -2579023.63749  20696099.4974   20696104.3204
  20494598.448   -22179893.20449 -16594659.44949  20494600.7024   20494605.0104
  18736282.945   -13019873.70449 -10130785.83249  18736283.0024   18736286.7184
  19075954.405   -22072491.29949 -17180113.67849  19075955.3974   19075959.5344
  22584177.645   -13448959.239 9 -10458696.545 9  22584177.674    22584184.038
  20254672.746     -292783.75549   -223349.32449  20254674.1824   20254679.5544
 96  2  9 18 27 59.9940000  0  6 22 19 29 18 28 14
  20699876.048    -3300460.18649  -2563561.14849  20699875.1824   20699880.6074
  20470681.319   -22305581.85649 -16692598.63049  20470682.0584   20470687.4114
  18725828.443   -13074802.40849 -10173587.42049  18725830.3874   18725833.9564
  19054082.658   -22187430.93849 -17269677.02349  19054083.0294   19054087.3704
  22559501.377   -13578633.882 9 -10559741.687 9  22559501.156    22559507.366
  20260756.545     -260818.97349   -198441.73749  20260756.6084   20260761.9264
 96  2  9 18 28 29.9940000  0  6 22 19 29 18 28 14
  20703725.454    -3280228.16649  -2547795.95849  20703725.5974   20703730.7284
  20446798.358   -22431087.12249 -16790394.91349  20446799.5384   20446804.4444
  18715440.572   -13129397.65549 -10216129.18049  18715441.5194   18715444.8474
  19032265.983   -22302077.33949 -17359011.87349  19032266.2934   19032270.8094
  22534863.502   -13708108.695 9 -10660631.125 9  22534862.697    22534869.362
  20266898.664     -228538.99749   -173288.55749  20266899.1714   20266904.7864
 96  2  9 18 28 59.9940000  0  6 22 19 29 18 28 14
  20707638.486    -3259660.19049  -2531768.98449  20707639.2574   20707644.2244
  20422942.296   -22556451.12249 -16888081.11149  20422943.1674   20422949.0774
  18705105.818   -13183707.38349 -10258448.45549  18705106.4174   18705110.2874
  19010497.914   -22416467.82049 -17448147.29649  19010498.2654   19010502.9844
  22510252.186   -13837424.980 9 -10761397.027 9  22510254.415    22510261.452
  20273088.218     -196007.43949   -147939.31849  20273089.9984   20273095.4704
 96  2  9 18 29 29.9940000  0  6 22 19 29 18 28 14
  20711611.652    -3238778.13149  -2515497.26249  20711612.8474   20711617.8994
  20399112.420   -22681675.52749 -16985658.54349  20399113.8704   20399118.9864
  18694824.931   -13237729.74149 -10300543.80049  18694826.2574   18694830.4314
  18988778.716   -22530607.67449 -17537087.43349  18988778.4364   18988782.9134
  22485674.814   -13966585.114 9 -10862041.252 9  22485676.357    22485683.188
  20279323.793     -163240.14949   -122406.40449  20279325.3214   20279330.8344
 96  2  9 18 29 59.9930000  0  6 22 19 29 18 28 14
  20715653.165    -3217552.08549  -2498957.50349  20715651.8834   20715656.5244
  20375319.366   -22806712.55449 -17083089.97249  20375320.1184   20375325.4674
  18684612.469   -13291401.28649 -10342365.78549  18684613.1204   18684617.0674
  18967113.180   -22644459.51049 -17625803.14249  18967113.3784   18967117.6244
  22461136.057   -14095537.807 9 -10962523.836 9  22461136.972    22461143.992
  20285612.961     -130193.49549    -96655.79949  20285614.1444   20285619.3584
 96  2  9 18 30 29.9930000  0  6 22 19 29 18 28 14
  20719758.567    -3195972.20349  -2482142.03549  20719758.7014   20719763.6324
  20351564.150   -22931543.28449 -17180360.65249  20351565.6924   20351570.4744
  18674467.894   -13344706.48549 -10383902.30649  18674469.2664   18674473.3844
  18945501.542   -22758026.52349 -17714296.90949  18945502.2584   18945506.4504
  22436640.151   -14224267.724 9 -11062832.814 9  22436640.781    22436647.302
  20291961.917      -96845.03549    -70670.02149  20291960.2554   20291965.4734
 96  2  9 18 30 59.9930000  0  6 22 19 29 18 28 14
  20723909.726    -3174157.96449  -2465143.93749  20723910.4274   20723914.8814
  20327828.610   -23056279.58349 -17277557.74949  20327829.4344   20327833.8684
  18664374.446   -13397750.26949 -10425235.13049  18664375.1544   18664379.5294
  18923920.677   -22871438.17949 -17802669.62249  18923920.7274   18923925.2434
  22412166.329   -14352881.456 9 -11163051.246 9  22412166.484    22412172.966
  20298339.532      -63314.37749    -44542.27949  20298341.0534   20298346.2464
 96  2  9 18 31 29.9930000  0  6 22 19 29 18 28 14
  20728123.279    -3152019.48449  -2447893.19249  20728123.2414   20728127.9424
  20304126.488   -23180831.34249 -17374611.04149  20304127.5464   20304132.8094
  18654347.849   -13450440.34449 -10466292.33549  18654348.2914   18654352.9234
  18902382.241   -22984617.17949 -17890861.04149  18902383.2804   18902387.7034
  22387733.749   -14481285.542 9 -11263106.308 9  22387731.747    22387738.040
  20304775.212      -29495.13449    -18189.65649  20304776.3314   20304781.6024
 96  2  9 18 31 59.9930000  0  6 22 19 29 18 28 14
  20732395.716    -3129569.80549  -2430399.95249  20732395.1344   20732399.5884
  20280456.750   -23305222.16249 -17471538.93349  20280456.9334   20280461.4934
  18644380.463   -13502815.92049 -10507104.47849  18644381.9154   18644386.1984
  18880884.872   -23097591.31749 -17978892.83249  18880885.2974   18880889.6924
  22363333.629   -14609505.199 9 -11363017.664 9  22363332.587    22363338.981
  20311260.185        4587.87549      8368.49449  20311262.1884   20311267.0754
 96  2  9 18 32 29.9930000  0  6 22 19 29 18 28 14
  20736726.672    -3106807.35649  -2412662.99949  20736726.3314   20736731.3804
  20256813.918   -23429459.60549 -17568347.30249  20256815.2324   20256820.1164
  18634469.664   -13554904.93849 -10547693.32849  18634469.7954   18634473.8184
  18859427.100   -23210354.11049 -18066759.93749  18859427.4674   18859431.7074
  22338965.337   -14737546.298 9 -11462789.855 9  22338967.076    22338973.248
  20317797.452       38934.23149     35131.84749  20317798.1994   20317803.5594
 96  2  9 18 32 59.9930000  0  6 22 19 29 18 28 14
  20741122.585    -3083710.66849  -2394665.59749  20741121.4144   20741126.1974
  20233205.468   -23553518.83649 -17665016.81149  20233207.2164   20233212.2444
  18624612.737   -13606694.13449 -10588048.55149  18624614.7204   18624618.6974
  18838016.968   -23322865.14049 -18154430.86749  18838017.1834   18838021.6844
  22314640.968   -14865382.268 9 -11562402.207 9  22314640.148    22314647.225
  20324388.381       73573.03549     62123.08749  20324390.2684   20324394.8524
 96  2  9 18 33 29.9930000  0  6 22 19 29 18 28 14
  20745580.767    -3060276.74149  -2376405.40049  20745581.0584   20745585.7504
  20209638.468   -23677372.61949 -17761526.23249  20209638.1884   20209643.9914
  18614818.072   -13658169.38849 -10628159.14249  18614819.5594   18614823.1614
  18816661.235   -23435091.06749 -18241879.63349  18816661.2814   18816665.8004
  22290357.278   -14992995.240 9 -11661840.785 9  22290356.705    22290363.073
  20331036.795      108509.32649     89346.13549  20331037.5374   20331042.7434
 96  2  9 18 33 59.9930000  0  6 22 19 29 18 28 14
  20750111.535    -3036466.59549  -2357852.05849  20750111.9694   20750116.7174
  20186115.864   -23800977.03849 -17857841.33449  20186117.1324   20186122.7744
  18605093.500   -13709272.20849 -10667979.52549  18605095.0614   18605098.6894
  18795371.677   -23546969.39449 -18329057.54449  18795371.5874   18795375.9914
  22266123.244   -15120329.915 9 -11761062.499 9  22266125.233    22266131.646
  20337750.569      143782.25549    116831.50349  20337749.5654   20337755.3354
 96  2  9 18 34 29.9930000  0  6 22 19 29 18 28 14
  20754686.921    -3012419.56449  -2339114.13049  20754687.9474   20754692.5134
  20162616.737   -23924468.32149 -17954068.29549  20162617.4054   20162623.3704
  18595417.755   -13760118.24949 -10707599.82649  18595419.1434   18595422.9074
  18774124.089   -23658625.90149 -18416062.60949  18774124.0874   18774128.4544
  22241923.721   -15247507.666 9 -11860161.948 9  22241924.343    22241930.523
  20344498.714      179259.95549    144476.43149  20344500.7194   20344506.5614
 96  2  9 18 34 59.9930000  0  6 22 19 29 18 28 14
  20759314.914    -2988100.72749  -2320164.39949  20759315.9214   20759320.1404
  20139146.570   -24047806.22149 -18050175.72749  20139147.5804   20139152.3624
  18585804.379   -13810641.23149 -10746968.38649  18585805.0574   18585808.8524
  18752924.972   -23770026.00149 -18502867.87349  18752925.2374   18752929.4924
  22217758.548   -15374481.404 9 -11959102.422 9  22217761.789    22217768.355
  20351297.405      214973.39249    172305.05349  20351297.1344   20351302.7374
 96  2  9 18 35 29.9930000  0  7 22 19 29 18 28 14 27
  20763999.207    -2963492.35849  -2300989.05949  20763999.1254   20764002.8094
  20115703.529   -24170993.81049 -18146166.03949  20115705.5104   20115710.4614
  18576254.359   -13860824.61749 -10786072.32449  18576255.4334   18576259.0114
  18731774.555   -23881171.63549 -18589474.85649  18731775.0024   18731779.1374
  22193639.989   -15501241.478 9 -12057876.405 9  22193639.906    22193646.600
  20358135.843      250909.82549    200307.43549  20358136.0714   20358141.4834
  23016765.830    -3829656.15859  -2956304.28359  23016765.3524   23016772.5424
 96  2  9 18 35 59.9930000  0  7 22 19 29 18 28 14 27
  20768744.403    -2938563.26149  -2281563.80149  20768742.3854   20768746.6524
  20092291.607   -24294030.20649 -18242038.54949  20092291.8884   20092297.9814
  18566769.619   -13910664.13849 -10824908.31849  18566770.9394   18566774.9474
  18710674.089   -23992055.63549 -18675877.96249  18710674.5734   18710678.6174
  22169560.619   -15627768.853 9 -12156469.073 9  22169562.745    22169569.199
  20365020.024      287089.06249    228499.00649  20365020.7034   20365026.2424
  22989174.734    -3974644.30749  -3069282.03049  22989175.8434   22989181.6304
 96  2  9 18 36 29.9930000  0  7 22 19 29 18 28 14 27
  20773545.548    -2913320.25849  -2261893.95249  20773545.6114   20773550.5814
  20068904.946   -24416924.86849 -18337800.60649  20068906.5144   20068912.0014
  18557345.391   -13960189.90249 -10863499.82649  18557346.5904   18557350.5944
  18689621.480   -24102689.76949 -18762086.37449  18689621.6644   18689625.8304
  22145526.821   -15754081.261 9 -12254894.238 9  22145526.062    22145532.341
  20371947.107      323491.14049    256864.21549  20371948.2334   20371953.5474
  22961587.742    -4119609.73649  -3182242.09049  22961589.9504   22961595.5154
 96  2  9 18 36 59.9930000  0  8 22 19 29 18 28 14 31 27
  20778405.931    -2887783.49149  -2241995.20449  20778405.1824   20778410.1264
  20045544.701   -24539684.72249 -18433457.63049  20045545.7304   20045551.4444
  18547976.481   -14009423.35549 -10901863.55649  18547977.9054   18547982.0044
  18668613.575   -24213086.70549 -18848109.95649  18668613.7034   18668617.8174
  22121522.987   -15880200.284 9 -12353168.725 9  22121526.591    22121532.984
  20378910.958      360091.00249    285383.55849  20378912.5644   20378918.3724
  22540548.411   -10479526.38759  -7802700.03759  22540545.6874   22540552.2674
  22934001.325    -4264582.39949  -3295207.75349  22934002.2014   22934008.9964
 96  2  9 18 37 29.9930000  0  8 22 19 29 18 28 14 31 27
  20783327.117    -2861910.41249  -2221834.38349  20783328.9474   20783333.2844
  20022221.749   -24662246.29549 -18528960.12649  20022222.7194   20022228.9264
  18538670.803   -14058320.50249 -10939965.22249  18538672.9024   18538677.3234
  18647662.530   -24323183.52549 -18933899.67449  18647662.8174   18647667.1824
  22097574.391   -16006070.682 9 -12451249.467 9  22097574.120    22097580.514
  20385925.495      396946.65049    314102.20949  20385926.1744   20385931.5244
  22511640.654   -10631420.68049  -7921059.23949  22511642.2344   22511648.6034
  22906421.966    -4409512.72149  -3408140.44449  22906422.5154   22906427.6164
 96  2  9 18 37 59.9930000  0  8 22 19 29 18 28 14 31 27
  20788308.360    -2835737.23949  -2201439.73149  20788309.1684   20788314.5344
  19998937.268   -24784605.83049 -18624305.22349  19998938.1384   19998943.8314
  18529429.480   -14106891.16649 -10977812.50449  18529430.2064   18529434.4584
  18626768.578   -24432981.04149 -19019456.18149  18626768.8224   18626773.2694
  22073664.600   -16131703.416 9 -12549145.040 9  22073667.242    22073673.225
  20392987.260      434058.43249    343020.43849  20392987.7154   20392993.6274
  22482725.421   -10783376.23549  -8039466.18049  22482726.7124   22482733.4664
  22878849.102    -4554404.15349  -3521042.88049  22878851.7724   22878856.9464
 96  2  9 18 38 29.9930000  0  8 22 19 29 18 28 14 31 27
  20793339.555    -2809300.36849  -2180839.58749  20793339.8494   20793345.3044
  19975688.283   -24906782.87049 -18719508.08449  19975688.9524   19975695.1384
  18520246.513   -14155148.05549 -11015415.27149  18520247.3604   18520251.3444
  18605927.437   -24542500.90249 -19104796.32149  18605927.9094   18605932.6894
  22049802.821   -16257123.880 9 -12646875.198 9  22049800.646    22049806.776
  20400092.332      471391.73749    372111.28349  20400092.2794   20400098.5014
  22453794.765   -10935403.08649  -8157928.66149  22453797.6234   22453802.7554
  22851280.690    -4699283.59249  -3633935.91049  22851281.2984   22851286.6614
 96  2  9 18 38 59.9930000  0  8 22 19 29 18 28 14 31 27
  20798431.085    -2782544.38249  -2159990.80049  20798431.3004   20798436.8744
  19952484.494   -25028717.70749 -18814522.23349  19952485.4504   19952491.5144
  18511138.630   -14203009.93049 -11052710.24549  18511139.7464   18511143.5134
  18585149.058   -24651692.45249 -19189880.64449  18585149.4034   18585153.9114
  22025987.758   -16382259.405 9 -12744383.333 9  22025988.399    22025994.147
  20407249.220      509008.92949    401423.33549  20407250.7374   20407256.7364
  22424861.375   -11087435.68349  -8276395.63149  22424866.0454   22424871.8274
  22823727.663    -4844072.69649  -3746758.57149  22823729.5754   22823735.2804
 96  2  9 18 39 29.9930000  0  8 22 19 29 18 28 14 31 27
  20803569.620    -2755538.17149  -2138947.03249  20803570.3694   20803575.9094
  19929311.582   -25150495.76049 -18909414.22349  19929312.1314   19929317.8114
  18502091.745   -14250553.35849 -11089757.08049  18502092.1834   18502096.2914
  18564419.594   -24760629.22349 -19274766.44149  18564419.5284   18564423.9814
  22002219.117   -16507171.384 9 -12841717.268 9  22002218.337    22002223.701
  20414449.146      546831.80149    430895.66549  20414448.1224   20414453.7324
  22395920.793   -11239533.20349  -8394913.15949  22395922.1914   22395928.9304
  22796179.733    -4988830.83749  -3859557.10949  22796181.5404   22796188.4794
 96  2  9 18 39 59.9930000  0  8 22 19 29 18 28 14 31 27
  20808765.928    -2728238.43949  -2117674.54449  20808765.5264   20808770.3824
  19906169.877   -25272101.37349 -19004171.82549  19906171.6524   19906176.8404
  18493109.896   -14297751.22149 -11126534.64349  18493110.9334   18493115.0754
  18543742.609   -24869287.47749 -19359435.21149  18543742.5414   18543747.2844
  21978497.257   -16631827.060 9 -12938851.502 9  21978497.260    21978502.647
  20421685.119      584869.17049    460535.13449  20421686.1794   20421691.9994
  22366973.430   -11391651.57849  -8513446.96249  22366975.2134   22366981.6444
  22768649.029    -5133518.48249  -3972300.70849  22768648.7724   22768656.0794
 96  2  9 18 40 29.9930000  0  8 22 19 29 18 28 14 31 27
  20814014.044    -2700657.17349  -2096182.67349  20814014.4424   20814018.8544
  19883057.141   -25393568.63549 -19098821.62849  19883057.3714   19883062.7594
  18484188.338   -14344636.57949 -11163068.70249  18484189.2144   18484192.8014
  18523114.278   -24977689.74349 -19443904.51049  18523114.3044   18523118.8854
  21954820.902   -16756245.850 9 -13035801.135 9  21954820.750    21954826.375
  20428958.763      623095.18249    490321.60049  20428960.6444   20428966.6464
  22338020.645   -11543815.16649  -8632016.01049  22338019.5784   22338025.8364
  22741120.673    -5278164.33249  -4085011.74349  22741122.8234   22741131.8034
 96  2  9 18 40 59.9930000  0  8 22 19 29 18 28 14 31 27
  20819339.004    -2672678.51849  -2074381.15749  20819338.5204   20819343.7754
  19859993.135   -25514767.61749 -19193262.38849  19859993.7944   19859999.3294
  18475347.656   -14391090.76949 -11199266.78049  18475349.3104   18475353.0444
  18502559.729   -25085700.37349 -19528068.64149  18502560.8094   18502565.1734
  21931214.527   -16880296.543 9 -13132463.946 9  21931214.929    21931220.705
  20436294.497      661643.49849    520359.20749  20436295.7474   20436301.7194
  22309078.020   -11695902.20749  -8750525.41249  22309078.5924   22309084.8004
  22713627.562    -5422645.44049  -4197594.37249  22713629.6634   22713636.1064
 96  2  9 18 41 29.9930000  0  8 22 19 29 18 28 14 31 27
  20824705.678    -2644471.07849  -2052401.36949  20824706.8744   20824711.4964
  19836948.488   -25635862.82449 -19287622.27149  19836950.1844   19836955.5994
  18466556.503   -14437288.29549 -11235264.86249  18466558.0434   18466561.9984
  18482053.924   -25193465.96449 -19612041.83049  18482053.8164   18482057.9614
  21907649.579   -17004147.740 9 -13228971.302 9  21907646.978    21907652.275
  20443658.028      700344.15949    550515.51449  20443660.7214   20443666.5374
  22280120.847   -11848067.29849  -8869095.65349  22280121.2684   22280128.8324
  22686134.982    -5567141.14549  -4310188.42949  22686134.6084   22686139.6524
 96  2  9 18 41 59.9930000  0  8 22 19 29 18 28 14 31 27
  20830125.324    -2615996.24849  -2030213.22149  20830124.9504   20830130.0004
  19813937.659   -25756792.51849 -19381853.18749  19813938.5724   19813943.1584
  18457827.242   -14483165.90449 -11271013.65849  18457828.0804   18457831.4714
  18461602.298   -25300938.44649 -19695786.62249  18461602.5544   18461606.6494
  21884125.619   -17127748.767 9 -13325283.732 9  21884125.976    21884131.821
  20451065.190      739264.55749    580843.05549  20451067.1434   20451073.2484
  22251160.256   -12000248.72649  -8987678.62549  22251163.0344   22251170.2564
  22658640.481    -5711613.80849  -4422764.47949  22658641.1254   22658649.2604
 96  2  9 18 42 29.9930000  0  8 22 19 29 18 28 14 31 27
  20835607.378    -2587193.11149  -2007769.24449  20835606.5994   20835611.2714
  19790971.017   -25877478.04949 -19475893.84849  19790972.6084   19790977.7304
  18449173.741   -14528639.79349 -11306447.87149  18449174.8194   18449178.1784
  18441219.580   -25408049.02349 -19779249.41149  18441220.0244   18441224.3384
  21860665.857   -17251023.791 9 -13421342.130 9  21860667.591    21860673.166
  20458530.993      778489.12749    611407.60849  20458531.3954   20458536.6384
  22222210.920   -12152377.69849  -9106220.70549  22222213.5934   22222221.4464
  22631163.625    -5856006.06349  -4535277.87349  22631164.5374   22631171.0414
 96  2  9 18 42 59.9920000  0  8 22 19 29 18 28 14 31 27
  20841131.392    -2558164.58949  -1985149.65449  20841130.2004   20841135.3644
  19768034.636   -25998009.85349 -19569814.72049  19768035.6644   19768040.9774
  18440582.809   -14573781.72549 -11341623.41749  18440584.1364   18440588.2284
  18420886.995   -25514897.78549 -19862508.19049  18420887.2654   18420891.6764
  21837252.617   -17374056.793 9 -13517211.944 9  21837254.707    21837261.327
  20466032.150      817906.07549    642122.07449  20466032.6244   20466037.8324
  22193258.662   -12304534.51849  -9224784.49149  22193259.2364   22193267.3044
  22603685.067    -6000399.50349  -4647792.26449  22603686.8324   22603693.4624
 96  2  9 18 43 29.9920000  0  8 22 19 29 18 28 14 31 27
  20846711.758    -2528826.87749  -1962289.14349  20846713.1234   20846717.5334
  19745140.767   -26118317.13849 -19663560.63649  19745141.4824   19745148.2284
  18432070.643   -14618514.22049 -11376479.92049  18432071.7734   18432075.7964
  18400616.175   -25621424.84549 -19945516.29349  18400615.8844   18400620.3574
  21813904.571   -17496775.845 9 -13612837.129 9  21813902.108    21813908.136
  20473579.351      857580.96449    673037.51749  20473581.3534   20473587.5604
  22164314.886   -12456646.65849  -9343313.47049  22164313.7474   22164321.3284
  22576223.378    -6144716.49049  -4760247.01549  22576224.3424   22576231.6424
 96  2  9 18 43 59.9920000  0  8 22 19 29 18 28 14 31 27
  20852341.246    -2499250.46649  -1939242.61449  20852341.4834   20852346.2724
  19722279.544   -26238454.85149 -19757174.42049  19722280.2634   19722286.1184
  18423623.439   -14662903.20649 -11411068.74749  18423625.0364   18423628.7174
  18380392.779   -25727694.14449 -20028323.53549  18380393.4944   18380397.9234
  21790598.578   -17619235.687 9 -13708260.327 9  21790598.871    21790604.829
  20481167.945      897452.94449    704106.55149  20481168.7634   20481174.8074
  22135359.543   -12608782.60149  -9461860.98949  22135363.2814   22135371.0184
  22548767.070    -6289009.10049  -4872682.78949  22548767.3644   22548774.4694
 96  2  9 18 44 29.9920000  0  8 22 19 29 18 28 14 31 27
  20858024.808    -2469386.29249  -1915971.86649  20858024.2004   20858029.2114
  19699458.607   -26358377.00549 -19850620.23849  19699459.6674   19699466.0994
  18415250.886   -14706906.41049 -11445356.97549  18415251.7124   18415255.6424
  18360233.604   -25833638.21049 -20110877.35849  18360233.1884   18360237.5354
  21767353.761   -17741386.083 9 -13803442.403 9  21767354.461    21767360.545
  20488800.011      937552.79949    735353.14549  20488799.8554   20488806.0734
  22106414.046   -12760903.12349  -9580396.48849  22106416.0364   22106423.2974
  22521323.906    -6433216.14949  -4985051.86649  22521324.0404   22521331.8874
 96  2  9 18 44 59.9920000  0  8 22 19 29 18 28 14 31 27
  20863748.082    -2439312.49449  -1892537.77549  20863746.6644   20863751.9974
  19676667.429   -26478145.85249 -19943946.59849  19676668.6014   19676674.2354
  18406934.577   -14750606.15149 -11479408.73149  18406935.8644   18406939.7714
  18340124.034   -25939307.58349 -20193217.12649  18340124.8834   18340128.9764
  21744154.453   -17863294.553 9 -13898435.949 9  21744156.019    21744161.869
  20496459.122      977808.69949    766721.32149  20496460.6024   20496466.6434
  22077459.264   -12913073.28149  -9698970.65149  22077458.4264   22077466.7814
  22493887.714    -6577396.74449  -5097400.31949  22493888.2584   22493895.5074
 96  2  9 18 45 29.9920000  0  8 22 19 29 18 28 14 31 27
  20869528.407    -2408942.31549  -1868872.73149  20869526.6104   20869531.8254
  19653923.395   -26597669.68249 -20037082.03449  19653924.0914   19653930.1634
  18398690.875   -14793928.21949 -11513166.20249  18398692.1864   18398695.8464
  18320089.044   -26044593.88949 -20275258.40549  18320089.5404   18320093.9084
  21721020.955   -17984872.816 9 -13993172.180 9  21721020.676    21721026.209
  20504168.888     1018314.96649    798284.58349  20504168.5884   20504174.8624
  22048508.247   -13065205.46849  -9817515.23149  22048509.3294   22048516.6184
  22466470.314    -6721468.89449  -5209664.29049  22466471.7414   22466478.0154
 96  2  9 18 45 59.9920000  0  8 22 19 29 18 28 14 31 27
  20875349.056    -2378350.42049  -1845034.93049  20875348.1484   20875353.0134
  19631209.260   -26717025.95249 -20130086.90349  19631211.2704   19631216.6274
  18390508.241   -14836934.17849 -11546677.35149  18390508.5124   18390512.1524
  18300115.602   -26149553.11049 -20357044.81549  18300116.4454   18300120.6984
  21697934.256   -18106182.707 9 -14087699.296 9  21697935.630    21697941.237
  20511910.271     1059005.70549    829991.60549  20511911.4274   20511917.7104
  22019551.116   -13217365.95049  -9936081.84149  22019553.8114   22019561.3314
  22439061.564    -6865505.14349  -5321900.29649  22439062.3224   22439069.8854
 96  2  9 18 46 29.9920000  0  8 22 19 29 18 28 14 31 27
  20881217.395    -2347508.06749  -1821001.96549  20881216.5844   20881221.4364
  19608533.992   -26836188.15849 -20222940.55449  19608535.5234   19608540.9084
  18382390.692   -14879584.35249 -11579911.26649  18382392.4094   18382396.1834
  18280210.731   -26254157.48849 -20438554.72549  18280210.9274   18280215.0324
  21674907.396   -18227187.196 9 -14181988.431 9  21674909.109    21674914.735
  20519691.328     1099901.81149    861858.65449  20519693.9324   20519699.6564
  21990600.391   -13369513.13349 -10054638.08149  21990601.9394   21990608.7794
  22411666.502    -7009474.16149  -5434083.88349  22411666.2714   22411672.5664
 96  2  9 18 46 59.9920000  0  8 22 19 29 18 28 14 31 27
  20887135.099    -2316414.07249  -1796772.91349  20887133.5264   20887139.1184
  19585895.022   -26955163.41549 -20315648.53149  19585895.2514   19585900.9254
  18374343.145   -14921876.92449 -11612866.53149  18374344.1794   18374348.0584
  18260371.932   -26358411.07649 -20519791.28449  18260371.9764   18260376.3924
  21651942.255   -18347880.753 9 -14276035.275 9  21651941.989    21651947.892
  20527512.149     1140999.13149    893882.49049  20527514.3064   20527520.6374
  21961651.980   -13521638.39149 -10173177.23449  21961654.2074   21961660.7454
  22384281.876    -7153381.01449  -5546219.03749  22384282.7974   22384287.2124
 96  2  9 18 47 29.9920000  0  8 22 19 29 18 28 14 31 27
  20893088.292    -2285134.65349  -1772399.37749  20893086.0624   20893091.3584
  19563274.229   -27074030.86149 -20408272.49349  19563275.4084   19563280.5964
  18366352.158   -14963870.34449 -11645588.69149  18366353.3074   18366357.1494
  18240585.770   -26462388.18549 -20600812.41149  18240585.8474   18240590.1564
  21629022.165   -18468327.766 9 -14369890.011 9  21629021.731    21629027.597
  20535356.952     1182216.93149    926000.21249  20535357.9444   20535363.9484
  21932695.613   -13673802.23249 -10291746.45749  21932697.3974   21932704.6044
  22356897.063    -7297292.09849  -5658357.52049  22356897.6264   22356902.1074
 96  2  9 18 47 59.9920000  0  8 22 19 29 18 28 14 31 27
  20899092.960    -2253581.62749  -1747812.64449  20899089.9504   20899095.8584
  19540691.753   -27192701.05549 -20500742.75649  19540693.4734   19540698.7594
  18358436.164   -15005466.11549 -11678000.99449  18358437.5074   18358441.6644
  18220865.509   -26566017.00449 -20681562.14649  18220865.8564   18220870.1794
  21606165.738   -18588441.109 9 -14463484.750 9  21606164.577    21606171.066
  20543238.285     1223637.14249    958275.64049  20543240.4524   20543246.5094
  21903750.410   -13825908.62649 -10410270.91549  21903751.9764   21903759.5844
  22329527.449    -7441121.40449  -5770432.22949  22329527.4894   22329533.7474
 96  2  9 18 48 29.9920000  0  8 22 19 29 18 28 14 31 27
  20905134.791    -2221807.49049  -1723053.61949  20905137.2664   20905142.8454
  19518138.530   -27311222.07349 -20593096.78049  19518139.4834   19518144.6434
  18350586.448   -15046721.32849 -11710147.92349  18350587.0394   18350591.1834
  18201201.265   -26669354.46249 -20762084.84349  18201201.2914   18201205.8944
  21583358.861   -18708281.317 9 -14556866.649 9  21583359.963    21583366.248
  20551148.747     1265201.61849    990663.48549  20551149.9694   20551155.5954
  21874807.275   -13978005.83849 -10528788.20549  21874808.8654   21874816.5834
  22302161.261    -7584927.74649  -5882489.06549  22302161.3214   22302167.9834
 96  2  9 18 48 59.9920000  0  8 22 19 29 18 28 14 31 27
  20911232.718    -2189768.20649  -1698087.98449  20911233.9854   20911239.1524
  19495622.480   -27429548.32149 -20685299.03149  19495623.3684   19495627.9904
  18342808.414   -15087593.49349 -11741996.37649  18342809.4454   18342813.2764
  18181600.095   -26772356.70749 -20842346.33249  18181600.7874   18181605.1844
  21560613.561   -18827807.467 9 -14650003.833 9  21560615.017    21560621.338
  20559094.299     1306950.35649   1023194.92449  20559094.4624   20559100.4774
  21845876.069   -14130048.23649 -10647262.78649  21845876.5124   21845883.2344
  22274805.995    -7728669.42949  -5994495.52449  22274808.5224   22274813.7374
 96  2  9 18 49 29.9920000  0  8 22 19 29 18 28 14 31 27
  20917373.704    -2157496.88249  -1672941.55349  20917374.8864   20917380.2434
  19473139.568   -27547695.42749 -20777361.69049  19473140.3654   19473145.7224
  18335096.689   -15128119.02449 -11773574.72149  18335097.7624   18335101.4834
  18162056.387   -26875064.24049 -20922378.17449  18162056.4224   18162060.6464
  21537925.915   -18947044.758 9 -14742915.948 9  21537924.408    21537930.690
  20567070.770     1348874.82149   1055863.27949  20567072.4124   20567077.7944
  21816950.381   -14282058.21249 -10765712.11449  21816949.6794   21816957.1164
  22247460.767    -7872369.12949  -6106469.27149  22247461.8244   22247469.1094
 96  2  9 18 49 59.9920000  0  8 22 19 29 18 28 14 31 27
  20923569.374    -2124940.46249  -1647572.94049  20923570.5614   20923575.1494
  19450703.927   -27665594.76549 -20869231.29149  19450705.0854   19450710.2104
  18327460.489   -15168248.95549 -11804844.80949  18327461.3374   18327465.0354
  18142578.757   -26977420.29649 -21002136.13949  18142578.6114   18142583.0904
  21515300.664   -19065935.532 9 -14835558.049 9  21515300.519    21515306.563
  20575097.102     1391046.43749   1088724.23549  20575097.5644   20575103.4954
  21788038.432   -14433982.13049 -10884094.37449  21788039.4074   21788046.6654
  22220134.308    -8015976.58549  -6218371.09249  22220133.4644   22220142.0594
 96  2  9 18 50 29.9920000  0  8 22 19 29 18 28 14 31 27
  20929804.455    -2092186.85649  -1622050.68249  20929803.2884   20929808.3714
  19428299.491   -27783331.11349 -20960973.87849  19428300.1514   19428306.0484
  18319881.505   -15208074.77649 -11835877.92749  18319882.7364   18319886.2604
  18123154.284   -27079494.77849 -21081674.69349  18123154.4554   18123158.6594
  21492727.931   -19184552.758 9 -14927987.000 9  21492728.298    21492734.207
  20583154.559     1433386.00349   1121716.03349  20583153.8704   20583159.8574
  21759127.451   -14585907.58149 -11002477.81349  21759128.8794   21759135.4434
  22192811.296    -8159568.62149  -6330260.97749  22192809.8214   22192815.1904
 96  2  9 18 50 59.9920000  0  8 22 19 29 18 28 14 31 27
  20936081.156    -2059199.49349  -1596346.28849  20936080.3534   20936085.4524
  19405932.079   -27900869.31049 -21052562.07449  19405933.5494   19405938.5594
  18312366.823   -15247563.82449 -11866648.62149  18312368.2204   18312371.6914
  18103789.499   -27181256.77149 -21160969.75149  18103789.6324   18103794.0274
  21470216.120   -19302847.120 9 -15020164.375 9  21470217.709    21470223.252
  20591247.578     1475924.80349   1154863.08649  20591249.0754   20591254.9684
  21730227.251   -14737791.75549 -11120829.09049  21730226.3964   21730233.3594
  22165492.293    -8303109.15449  -6442110.67949  22165493.2214   22165501.3164
 96  2  9 18 51 29.9920000  0  8 22 19 29 18 28 14 31 27
  20942394.775    -2026020.22549  -1570492.35849  20942394.4774   20942398.9704
  19383596.144   -28018251.11349 -21144028.39649  19383596.6464   19383601.8584
  18304909.216   -15286755.05049 -11897187.25049  18304910.1374   18304914.1454
  18084477.318   -27282740.32149 -21240047.83949  18084477.8224   18084482.4614
  21447762.218   -19420855.076 9 -15112118.578 9  21447761.840    21447767.466
  20599369.504     1518610.74449   1188124.80249  20599372.1404   20599378.0374
  21701322.618   -14889674.88349 -11239179.54049  21701324.0104   21701329.9484
  22138183.320    -8446640.95649  -6553953.57749  22138182.1084   22138189.5054
 96  2  9 18 51 59.9920000  0  8 22 19 29 18 28 14 31 27
  20948765.063    -1992540.41349  -1544404.22849  20948765.8294   20948770.2354
  19361305.805   -28135383.19749 -21235300.14149  19361307.2844   19361312.4834
  18297531.280   -15325524.49549 -11927397.21949  18297532.5444   18297536.4704
  18065241.601   -27383828.54349 -21318817.88549  18065241.6184   18065245.9754
  21425380.296   -19538472.549 9 -15203768.520 9  21425379.339    21425385.566
  20607533.457     1561508.45249   1221551.51549  20607535.4194   20607541.9754
  21672441.318   -15041457.24149 -11357451.48749  21672441.4794   21672447.4914
  22110886.746    -8590062.37249  -6665710.45949  22110888.2604   22110896.6864
 96  2  9 18 52 29.9920000  0  8 22 19 29 18 28 14 31 27
  20955165.339    -1958897.64649  -1518189.12749  20955166.9994   20955172.4574
  19339035.611   -28252415.30049 -21326493.97049  19339036.8274   19339041.3634
  18290209.707   -15364002.19049 -11957379.84649  18290210.6814   18290214.5104
  18046053.006   -27484662.42049 -21397389.73449  18046053.7144   18046057.9094
  21403043.909   -19655836.584 9 -15295220.970 9  21403045.811    21403051.626
  20615707.420     1604463.39849   1255022.84349  20615709.0164   20615715.9574
  21643552.566   -15193269.86849 -11475746.97149  21643551.5674   21643558.3214
  22083593.136    -8733505.38249  -6777484.19349  22083594.1054   22083599.6234
 96  2  9 18 52 59.9920000  0  8 22 19 29 18 28 14 31 27
  20961623.279    -1924980.42449  -1491760.14749  20961621.6814   20961626.0454
  19316805.973   -28369235.54249 -21417522.72349  19316806.5724   19316811.5774
  18282966.432   -15402066.76349 -11987040.56049  18282966.9584   18282970.9104
  18026936.353   -27585124.07649 -21475671.54049  18026936.4614   18026940.8864
  21380782.082   -19772833.610 9 -15386387.447 9  21380781.860    21380787.819
  20623915.888     1647586.24549   1288624.99549  20623915.6574   20623922.0124
  21614680.164   -15344993.18149 -11593972.87049  21614678.9914   21614686.9834
  22056314.786    -8876850.71949  -6889181.83849  22056315.9864   22056322.8104
 96  2  9 18 53 29.9920000  0  8 22 19 29 18 28 14 31 27
  20968120.460    -1890831.16949  -1465150.38749  20968119.4884   20968125.0684
  19294608.961   -28485883.11049 -21508416.93049  19294609.1714   19294613.8844
  18275796.212   -15439744.10849 -12016399.54449  18275797.5124   18275801.2344
  18007889.542   -27685217.21749 -21553666.20149  18007889.4644   18007893.8574
  21358583.538   -19889498.054 9 -15477294.780 9  21358580.970    21358587.509
  20632147.836     1690851.45349   1322338.05949  20632148.2734   20632155.0894
  21585816.946   -15496674.13449 -11712165.74949  21585815.7534   21585821.9034
  22029051.839    -9020117.70249  -7000818.37849  22029052.7054   22029060.6064
 96  2  9 18 53 59.9920000  0  8 22 19 29 18 28 14 31 27
  20974659.754    -1856461.54349  -1438368.90349  20974659.9914   20974665.8044
  19272441.776   -28602370.41649 -21599186.24549  19272442.4724   19272447.3064
  18268699.781   -15477036.97049 -12045458.92049  18268700.8874   18268704.8624
  17988911.443   -27784944.94249 -21631376.11849  17988912.0274   17988916.1454
  21336444.508   -20005831.750 9 -15567944.394 9  21336444.030    21336449.377
  20640408.362     1734263.67449   1356165.70549  20640409.8044   20640414.5054
  21556961.365   -15648308.33149 -11830322.19249  21556961.4224   21556967.5204
  22001803.143    -9163315.35649  -7112400.91849  22001803.6164   22001810.7814
 96  2  9 18 54 29.9920000  0  8 22 19 29 18 28 14 31 27
  20981240.393    -1821872.59649  -1411416.53049  20981242.3094   20981247.4994
  19250304.735   -28718698.66149 -21689831.62249  19250305.8874   19250310.3174
  18261674.728   -15513952.38349 -12074224.18549  18261675.8014   18261680.0654
  17970005.688   -27884297.04949 -21708793.34549  17970005.9164   17970009.9734
  21314369.857   -20121823.759 9 -15658327.758 9  21314371.443    21314376.854
  20648701.003     1777842.15049   1390122.88049  20648702.2544   20648707.9324
  21528113.623   -15799886.78549 -11948435.18849  21528117.2264   21528122.4394
  21974565.105    -9306446.56549  -7223931.70649  21974565.8464   21974572.7134
 96  2  9 18 54 59.9910000  0  8 22 19 29 18 28 14 31 27
  20987864.052    -1787075.21549  -1384301.71849  20987864.8504   20987868.8214
  19228197.262   -28834872.91749 -21780357.00149  19228198.4594   19228203.0964
  18254720.695   -15550497.48249 -12102700.89749  18254721.5444   18254725.9094
  17951171.195   -27983272.57649 -21785917.13149  17951171.4394   17951175.3674
  21292365.874   -20237469.131 9 -15748441.020 9  21292364.680    21292370.368
  20657022.767     1821574.74849   1424200.16149  20657024.1394   20657029.2574
  21499284.947   -15951411.95449 -12066506.66349  21499281.8784   21499289.0704
  21947339.675    -9449522.50049  -7335419.38549  21947340.2144   21947347.4444
 96  2  9 18 55 29.9910000  0  8 22 19 29 18 28 14 31 27
  20994529.538    -1752054.81749  -1357013.13349  20994528.9224   20994533.2454
  19206122.995   -28950875.56249 -21870748.66849  19206123.7994   19206128.9574
  18247837.710   -15586666.41049 -12130884.48549  18247838.6864   18247843.0234
  17932408.111   -28081874.55449 -21862749.84049  17932408.3004   17932412.3254
  21270425.431   -20352758.975 9 -15838277.250 9  21270425.697    21270431.264
  20665377.956     1865471.18449   1458405.11149  20665378.4584   20665384.1944
  21470462.963   -16102864.83449 -12184521.80449  21470460.3644   21470468.2964
  21920122.761    -9592554.24949  -7446872.63349  21920121.6734   21920127.2374
 96  2  9 18 55 59.9910000  0  8 22 19 29 18 28 14 31 27
  21001232.639    -1716814.96849  -1329553.55949  21001235.1514   21001239.0014
  19184085.181   -29066680.67249 -21960986.40949  19184086.3834   19184091.6674
  18241026.762   -15622457.21549 -12158773.44149  18241028.0274   18241032.4644
  17913711.330   -28180124.17849 -21939307.99249  17913711.5174   17913716.0544
  21248557.593   -20467679.497 9 -15927825.705 9  21248556.848    21248562.336
  20673762.144     1909524.67149   1492732.42849  20673761.1464   20673767.1224
  21441659.248   -16254208.70849 -12302452.00049  21441661.9234   21441668.1874
  21892913.914    -9735536.76349  -7558287.58249  21892914.1934   21892918.7024
 96  2  9 18 56 29.9910000  0  8 22 19 29 18 28 14 31 27
  21007978.369    -1681382.74449  -1301944.05949  21007976.9614   21007981.6004
  19162085.490   -29182296.87149 -22051076.94149  19162085.6694   19162090.7574
  18234282.315   -15657902.20849 -12186392.93149  18234283.1134   18234287.3854
  17895075.996   -28278052.15049 -22015615.49949  17895076.3504   17895080.9404
  21226754.538   -20582248.754 9 -16017100.439 9  21226755.312    21226760.649
  20682170.071     1953709.15549   1527161.83649  20682169.5974   20682174.8534
  21412877.182   -16405473.28349 -12420320.41949  21412876.3284   21412883.4514
  21865711.468    -9878480.20549  -7669672.01949  21865711.9984   21865719.3854
 96  2  9 18 56 59.9910000  0  8 22 19 29 18 28 14 31 27
  21014755.323    -1645765.51149  -1274190.41349  21014755.1484   21014759.8504
  19140125.860   -29297691.56749 -22140994.87449  19140126.6734   19140131.8564
  18227605.633   -15692987.05649 -12213731.78149  18227606.5374   18227610.8334
  17876504.647   -28375647.10949 -22091663.52149  17876504.7354   17876509.4044
  21205020.584   -20696453.419 9 -16106091.077 9  21205022.778    21205028.136
  20690604.644     1998040.06449   1561705.34349  20690605.5854   20690611.0554
  21384110.707   -16556633.58049 -12538107.57949  21384111.9064   21384117.9294
  21838520.449   -10021358.16649  -7781005.40549  21838521.2574   21838529.5864
 96  2  9 18 57 29.9910000  0  8 22 19 29 18 28 14 31 27
  21021574.829    -1609930.55049  -1246267.09449  21021574.5194   21021578.7544
  19118218.710   -29412810.63449 -22230698.02849  19118220.2894   19118225.0424
  18221004.513   -15727677.99249 -12240763.69649  18221005.2514   18221009.3834
  17858003.106   -28472872.89849 -22167423.87649  17858003.2354   17858007.9184
  21183365.683   -20810258.070 9 -16194770.011 9  21183366.435    21183371.729
  20699075.087     2042545.59749   1596384.90749  20699074.8804   20699079.8494
  21355375.609   -16707643.31249 -12655777.43849  21355375.7684   21355382.6374
  21811354.239   -10164125.54049  -7892252.68349  21811354.4444   21811359.4244
 96  2  9 18 57 59.9910000  0  8 22 19 29 18 28 14 31 27
  21028421.584    -1573925.39049  -1218211.19149  21028425.5454   21028430.0134
  19096354.323   -29527711.83249 -22320231.41949  19096355.7024   19096360.8114
  18214468.916   -15762016.83049 -12267521.24449  18214470.7964   18214475.0344
  17839564.421   -28569768.77849 -22242927.15549  17839564.7514   17839569.4894
  21161775.583   -20923708.401 9 -16283172.845 9  21161777.476    21161782.913
  20707565.531     2087169.16449   1631156.43449  20707567.0934   20707571.9714
  21326657.396   -16858553.03149 -12773369.35249  21326658.2264   21326665.6104
  21784200.723   -10306818.17149  -8003441.67349  21784201.4084   21784208.6634
 96  2  9 18 58 29.9910000  0  8 22 19 29 18 28 14 31 27
  21035316.369    -1537721.58549  -1190000.43649  21035314.8364   21035319.8594
  19074531.484   -29642386.48049 -22409588.27549  19074533.7544   19074538.6064
  18208005.802   -15795978.46449 -12293984.86749  18208008.4594   18208012.3764
  17821196.658   -28666292.44349 -22318140.40449  17821196.8734   17821201.6124
  21140258.156   -21036786.544 9 -16371285.649 9  21140259.341    21140264.783
  20716084.002     2131928.76949   1666033.99349  20716084.1424   20716089.3664
  21297963.677   -17009344.02349 -12890868.76649  21297964.0824   21297970.2834
  21757061.810   -10449431.92149  -8114569.19249  21757063.9664   21757070.0164
 96  2  9 18 58 59.9910000  0  8 22 19 29 18 28 14 31 27
  21042245.930    -1501294.58049  -1161615.82649  21042247.2614   21042252.2524
  19052757.245   -29756816.96649 -22498754.87749  19052758.6774   19052763.3674
  18201622.037   -15829533.00149 -12320131.27349  18201623.0274   18201627.2924
  17802905.396   -28762414.16549 -22393040.45149  17802905.7724   17802910.0954
  21118813.475   -21149475.099 9 -16459094.875 9  21118815.183    21118821.040
  20724629.954     2176841.14149   1701030.56149  20724631.4954   20724637.6074
  21269300.172   -17159973.47449 -13008242.28749  21269300.7784   21269307.7884
  21729940.472   -10591961.50749  -8225631.16949  21729941.3554   21729946.6364
 96  2  9 18 59 29.9910000  0  8 22 19 29 18 28 14 31 27
  21049215.625    -1464677.65049  -1133083.16749  21049214.7254   21049220.0904
  19031015.206   -29871075.55849 -22587787.53449  19031015.7674   19031020.7734
  18195305.800   -15862725.51349 -12345995.57649  18195306.7234   18195310.9264
  17784680.499   -28858188.64949 -22467669.92549  17784680.3544   17784684.8194
  21097435.962   -21261821.438 9 -16546637.424 9  21097436.460    21097442.569
  20733196.831     2221854.84149   1736106.09349  20733196.5044   20733201.8964
  21240655.358   -17310502.28949 -13125537.38949  21240654.8014   21240662.1404
  21702821.914   -10734466.84449  -8336674.23649  21702822.9944   21702828.4044
 96  2  9 18 59 59.9910000  0  8 22 19 29 18 28 14 31 27
  21056227.493    -1427825.67749  -1104367.38849  21056227.9684   21056232.5884
  19009310.154   -29985132.57449 -22676663.12249  19009311.2624   19009316.5584
  18189069.797   -15895496.67749 -12371531.55649  18189070.6244   18189074.7704
  17766530.425   -28953562.51049 -22541987.21849  17766531.1714   17766535.7464
  21076134.966   -21373769.560 9 -16633869.679 9  21076133.901    21076139.166
  20741793.115     2267040.70149   1771315.77649  20741795.3384   20741800.6074
  21212036.148   -17460887.65549 -13242720.71949  21212037.5784   21212044.7914
  21675719.940   -10876896.36649  -8447658.20049  21675720.2214   21675725.9634
 96  2  9 19  0 29.9910000  0  8 22 19 29 18 28 14 31 27
  21063283.655    -1390739.30849  -1075468.95849  21063285.6554   21063289.5864
  18987647.028   -30098971.39149 -22765368.68849  18987648.5974   18987653.7244
  18182914.681   -15927841.12949 -12396735.04549  18182915.7944   18182919.8304
  17748460.963   -29048522.19749 -22615981.78649  17748461.0944   17748465.3924
  21054908.376   -21485301.680 9 -16720777.770 9  21054909.989    21054915.534
  20750429.000     2312427.41349   1806681.96849  20750431.9984   20750438.3224
  21183448.502   -17611123.83049 -13359787.78649  21183449.0924   21183455.9044
  21648632.446   -11019232.82849  -8558569.69449  21648633.4224   21648638.7264
 96  2  9 19  0 59.9910000  0  8 22 19 29 18 28 14 31 27
  21070369.237    -1353511.45749  -1046460.29449  21070370.1384   21070375.3264
  18966008.435   -30212680.74449 -22853973.36949  18966010.3644   18966015.7104
  18176823.997   -15959840.82349 -12421669.88549  18176826.3324   18176830.3754
  17730451.473   -29143164.66849 -22689729.16949  17730451.0764   17730455.4004
  21033748.538   -21596496.397 9 -16807422.943 9  21033750.516    21033755.713
  20759088.054     2357922.67449   1842132.74849  20759089.2884   20759094.9914
  21154867.905   -17761312.61849 -13476817.89449  21154869.6694   21154875.3664
  21621551.996   -11161542.71349  -8669460.43449  21621553.5344   21621559.2484
 96  2  9 19  1 29.9910000  0  8 22 19 29 18 28 14 31 27
  21077486.572    -1316125.67449  -1017328.54449  21077483.4714   21077489.1314
  18944399.197   -30326245.15749 -22942465.11549  18944400.1024   18944404.9334
  18170805.413   -15991476.79649 -12446321.30549  18170806.3134   18170810.4754
  17712506.246   -29237462.99549 -22763208.39249  17712506.5004   17712511.0854
  21012659.490   -21707327.473 9 -16893784.755 9  21012659.988    21012665.333
  20767768.893     2403546.16749   1877683.44049  20767770.7644   20767777.5534
  21126296.169   -17911452.62549 -13593810.00549  21126298.6144   21126305.1444
  21594482.767   -11303788.97149  -8780301.62549  21594484.0254   21594490.8714
 96  2  9 19  1 59.9910000  0  8 22 19 29 18 28 14 31 27
  21084633.854    -1278547.64649   -988047.01949  21084633.7304   21084640.8544
  18922827.100   -30439604.18249 -23030796.81449  18922828.5824   18922833.4974
  18164860.150   -16022718.89349 -12470665.80749  18164861.2474   18164865.1314
  17694636.922   -29331365.64649 -22836379.29549  17694637.5614   17694642.1424
  20991648.269   -21817752.292 9 -16979830.005 9  20991646.608    20991652.240
  20776480.198     2449324.40149   1913354.70649  20776482.3604   20776488.9414
  21097746.068   -18061485.43949 -13710718.57849  21097747.8894   21097754.0234
  21567436.253   -11445921.94749  -8891054.52349  21567438.0224   21567442.9084
 96  2  9 19  2 29.9910000  0  8 22 19 29 18 28 14 31 27
  21091817.005    -1240801.57749   -958634.54749  21091817.3244   21091822.8664
  18901290.336   -30552778.92249 -23118984.91049  18901291.4184   18901297.2194
  18158982.418   -16053603.93849 -12494732.08749  18158983.6714   18158987.9834
  17676841.334   -29424884.70749 -22909251.29449  17676841.5834   17676845.9544
  20970706.821   -21927795.127 9 -17065577.613 9  20970706.266    20970711.663
  20785212.247     2495207.03749   1949107.34949  20785213.5884   20785220.2844
  21069212.312   -18211424.84449 -13827554.35749  21069215.2224   21069222.1504
  21540405.263   -11587976.34249  -9001746.22849  21540405.0764   21540411.2544
 96  2  9 19  2 59.9910000  0  8 22 19 29 18 28 14 31 27
  21099035.363    -1202860.29249   -929069.96649  21099036.5734   21099042.8704
  18879790.102   -30665759.87449 -23207022.00149  18879791.9784   18879797.4114
  18153177.846   -16084108.26149 -12518501.70249  18153179.1534   18153183.2414
  17659121.666   -29518001.29249 -22981809.67249  17659121.5274   17659126.2714
  20949842.468   -22037439.845 9 -17151014.981 9  20949841.504    20949846.839
  20793962.179     2541190.02249   1984938.16349  20793963.8924   20793969.9694
  21040707.551   -18361233.55249 -13944288.27749  21040706.3944   21040714.8604
  21513386.292   -11729948.83849  -9112374.08449  21513388.0514   21513396.0254
 96  2  9 19  3 29.9910000  0  8 22 19 29 18 28 14 31 27
  21106291.155    -1164737.17449   -899363.68249  21106291.9044   21106297.3394
  18858328.834   -30778540.21949 -23294902.78049  18858330.5364   18858336.1824
  18147444.050   -16114238.73049 -12541980.00149  18147445.2194   18147449.6874
  17641478.445   -29610713.07549 -23054052.62249  17641479.2604   17641483.8484
  20929052.763   -22146682.679 9 -17236139.207 9  20929053.107    20929058.412
  20802735.646     2587274.56949   2020848.11749  20802733.7694   20802739.6444
  21012228.932   -18510878.10649 -14060894.29149  21012231.1054   21012236.9464
  21486385.102   -11871853.47049  -9222949.07649  21486385.9024   21486390.5754
 96  2  9 19  3 59.9910000  0  8 22 19 29 18 28 14 31 27
  21113583.910    -1126424.35449   -869509.59349  21113581.9284   21113588.6054
  18836910.961   -30891096.26749 -23382608.78449  18836911.6794   18836917.4364
  18141783.901   -16143981.90949 -12565156.51649  18141785.3514   18141789.3844
  17623916.489   -29703002.00449 -23125966.07849  17623917.2124   17623922.1844
  20908343.712   -22255502.728 9 -17320933.997 9  20908345.249    20908350.586
  20811523.784     2633470.92649   2056845.19549  20811524.7184   20811530.4364
  20983795.667   -18660314.04749 -14177337.74749  20983795.0214   20983800.8134
  21459393.473   -12013686.64449  -9333468.38449  21459394.5894   21459400.7114
 96  2  9 19  4 29.9910000  0  8 22 19 29 18 28 14 31 27
  21120905.278    -1087953.89149   -839532.65249  21120902.9074   21120908.1314
  18815527.766   -31003467.06149 -23470170.42949  18815528.1784   18815533.4834
  18136197.001   -16173344.50049 -12588036.46949  18136198.1524   18136202.1434
  17606430.971   -29794895.60949 -23197571.48649  17606430.3634   17606435.3224
  20887713.535   -22363923.185 9 -17405417.416 9  20887713.466    20887718.613
  20820332.300     2679760.75349   2092915.11449  20820334.4374   20820339.0194
  20955390.471   -18809574.65249 -14293644.55949  20955391.6174   20955397.8464
  21432409.851   -12155483.91749  -9443959.72149  21432412.0444   21432417.1924
 96  2  9 19  4 59.9910000  0  8 22 19 29 18 28 14 31 27
  21128260.229    -1049303.80949   -809415.74549  21128258.8794   21128263.4274
  18794186.681   -31115611.64449 -23557555.80349  18794187.8524   18794193.0784
  18130689.754   -16202287.99649 -12610589.86149  18130690.4044   18130694.4074
  17589023.398   -29886370.96849 -23268850.98849  17589023.4764   17589028.1034
  20867164.887   -22471911.018 9 -17489563.738 9  20867164.114    20867169.553
  20829165.517     2726180.94649   2129086.62349  20829167.5964   20829172.8194
  20927027.214   -18958626.23249 -14409788.50149  20927027.3524   20927032.6884
  21405442.252   -12297206.62449  -9554392.95449  21405443.3214   21405448.9084
 96  2  9 19  5 29.9910000  0  8 22 19 29 18 28 14 31 27
  21135635.902    -1010537.75649   -779208.47349  21135635.1964   21135640.6454
  18772880.459   -31227575.42949 -23644800.29949  18772882.1974   18772887.0254
  18125247.458   -16230879.05549 -12632868.62649  18125249.8774   18125253.4064
  17571687.438   -29977470.56649 -23339837.69449  17571687.5964   17571692.0594
  20846687.283   -22579522.051 9 -17573416.452 9  20846686.312    20846691.347
  20838016.397     2772677.83849   2165317.90749  20838015.9024   20838020.9374
  20898689.623   -19107543.29449 -14525827.64049  20898688.7854   20898694.1084
  21378479.783   -12438906.63249  -9664808.52149  21378479.4614   21378481.9604
 96  2  9 19  5 59.9910000  0  8 22 19 29 18 28 14 31 27
  21143047.961     -971584.06249   -748854.98449  21143048.1634   21143052.8704
  18751618.165   -31339312.64249 -23731868.23249  18751619.3564   18751624.4084
  18119885.829   -16259063.01949 -12654830.16949  18119886.7264   18119890.4174
  17554436.383   -30068128.12949 -23410479.95049  17554436.4584   17554440.7444
  20826289.944   -22686700.089 9 -17656931.760 9  20826291.046    20826296.147
  20846885.703     2819293.85049   2201641.96249  20846886.1504   20846892.3244
  20870379.745   -19256301.23649 -14641742.77449  20870380.7894   20870386.3084
  21351531.094   -12580512.69149  -9775150.87849  21351531.6014   21351538.5844
 96  2  9 19  6 29.9910000  0  8 22 19 29 18 28 14 31 27
  21150490.472     -932479.53949   -718383.97349  21150489.1904   21150494.2314
  18730390.678   -31450864.94849 -23818792.09049  18730391.6654   18730396.4734
  18114595.254   -16286863.72349 -12676493.07149  18114596.3654   18114600.4114
  17537261.742   -30158381.06849 -23480806.92049  17537261.7304   17537266.1464
  20805972.949   -22793478.935 9 -17740136.015 9  20805971.647    20805976.414
  20855770.495     2865988.53349   2238027.36349  20855771.5144   20855777.8694
  20842094.757   -19404948.91949 -14757572.00549  20842094.7844   20842100.6294
  21324596.393   -12722053.17249  -9885442.11949  21324596.9044   21324602.6144
 96  2  9 19  6 59.9910000  0  8 22 19 29 18 28 14 31 27
  21157959.969     -893212.99149   -687786.69449  21157961.5934   21157967.2594
  18709201.515   -31562216.19349 -23905559.27549  18709202.4824   18709207.2004
  18109378.194   -16314281.13749 -12697857.30849  18109379.1254   18109382.8244
  17520165.406   -30248221.32549 -23550812.31749  17520165.7204   17520170.3634
  20785731.460   -22899844.203 9 -17823018.006 9  20785730.733    20785736.107
  20864670.409     2912761.92549   2274474.07149  20864672.8294   20864678.4884
  20813831.288   -19553468.95649 -14873301.77349  20813831.5704   20813836.8314
  21297680.285   -12863501.93549  -9995661.91949  21297680.9494   21297686.6334
 96  2  9 19  7 29.9900000  0  8 22 19 29 18 28 14 31 27
  21165454.462     -853835.48549   -657102.97049  21165454.1804   21165460.4204
  18688038.202   -31673428.77449 -23992218.41149  18688039.2294   18688043.8634
  18104224.308   -16341364.78349 -12718961.46549  18104225.1324   18104229.0504
  17503136.100   -30337711.83149 -23620545.18449  17503136.2424   17503140.7424
  20765557.666   -23005844.939 9 -17905615.951 9  20765559.500    20765564.918
  20873574.584     2959550.09949   2310932.29449  20873575.9904   20873582.6174
  20785583.192   -19701915.63649 -14988974.38249  20785582.7184   20785589.4074
  21270773.327   -13004902.33349 -10105844.03449  21270773.2964   21270778.1654
 96  2  9 19  7 59.9900000  0  8 22 19 29 18 28 14 31 27
  21172983.505     -814281.07049   -626281.38249  21172981.4074   21172987.1224
  18666911.911   -31784447.92349 -24078726.82349  18666913.2314   18666917.8184
  18099150.025   -16368027.07049 -12739737.29049  18099151.5954   18099155.3464
  17486181.001   -30426809.55249 -23689971.98649  17486181.3504   17486185.8724
  20745470.974   -23111415.352 9 -17987878.572 9  20745470.097    20745475.690
  20882495.641     3006425.19449   2347458.24349  20882495.4034   20882502.6024
  20757363.550   -19850207.48449 -15104526.35749  20757364.3094   20757369.9664
  21243885.596   -13146189.69549 -10215938.03849  21243887.3544   21243891.4874
 96  2  9 19  8 29.9900000  0  8 22 19 29 18 28 14 31 27
  21180539.882     -774558.68449   -595328.92249  21180540.0384   21180546.1804
  18645825.515   -31895258.60949 -24165072.79949  18645826.7534   18645831.3054
  18094157.906   -16394261.71949 -12760179.89049  18094159.4044   18094163.0174
  17469300.550   -30515517.06949 -23759094.73049  17469301.0624   17469305.3314
  20725462.992   -23216547.514 9 -18069799.698 9  20725464.252    20725469.538
  20891434.824     3053408.29949   2384068.37249  20891436.4664   20891443.0524
  20729181.295   -19998306.87549 -15219928.37549  20729181.6904   20729186.9384
  21217020.291   -13287366.84049 -10325946.19649  21217022.3854   21217027.8864
 96  2  9 19  8 59.9900000  0  8 22 19 29 18 28 14 31 27
  21188116.962     -734735.04849   -564297.55749  21188118.5334   21188124.7614
  18624765.427   -32005926.91149 -24251307.82249  18624767.0234   18624771.5064
  18089231.011   -16420153.15049 -12780355.04149  18089232.0844   18089236.0894
  17452481.161   -30603908.03949 -23827970.81949  17452480.9154   17452485.1254
  20705526.968   -23321309.103 9 -18151432.063 9  20705528.552    20705534.034
  20900386.120     3100436.24649   2420713.41849  20900386.2384   20900392.0934
  20701023.706   -20146274.95349 -15335228.08049  20701024.4634   20701029.6844
  21190163.493   -13428507.66749 -10435926.03949  21190163.9634   21190169.4064
 96  2  9 19  9 29.9900000  0  8 22 19 29 18 28 14 31 27
  21195723.921     -694769.84449   -533155.87449  21195724.1774   21195729.4884
  18603741.077   -32116412.23449 -24337400.26449  18603742.1434   18603746.7874
  18084376.280   -16445666.34249 -12800235.46149  18084377.0114   18084381.0394
  17435730.693   -30691930.63649 -23896559.85649  17435730.8214   17435735.1194
  20685672.037   -23425656.603 9 -18232741.747 9  20685671.739    20685677.360
  20909353.208     3147547.77249   2457423.63749  20909351.6204   20909357.6694
  20672901.078   -20294053.99049 -15450380.48449  20672902.5394   20672908.8974
  21163314.440   -13569591.95149 -10545861.81249  21163315.6944   21163321.3534
 96  2  9 19  9 59.9900000  0  8 22 19 29 18 28 14 31 27
  21203351.330     -654689.14349   -501924.20749  21203350.4954   21203356.5454
  18582746.397   -32226740.25149 -24423370.13649  18582747.0704   18582752.5094
  18079587.789   -16470831.13749 -12819844.41049  18079588.3954   18079592.1344
  17419050.360   -30779586.90749 -23964863.45349  17419050.4104   17419054.6154
  20665891.676   -23529605.735 9 -18313741.030 9  20665891.124    20665895.888
  20918327.832     3194721.26249   2494182.08549  20918327.4614   20918334.1414
  20644814.917   -20441645.47949 -15565386.73949  20644817.6144   20644822.3054
  21136474.373   -13710647.56549 -10655775.24449  21136474.3734   21136479.6774
 96  2  9 19 10 29.9900000  0  8 22 19 29 18 28 14 31 27
  21211011.214     -614436.78149   -470558.76949  21211010.5424   21211016.1814
  18561792.013   -32336857.90649 -24509176.08349  18561792.1674   18561797.6784
  18074873.875   -16495600.75449 -12839145.42249  18074875.2094   18074878.7164
  17402453.442   -30866801.83049 -24032823.13449  17402454.0154   17402458.3494
  20646198.877   -23633090.805 9 -18394378.707 9  20646198.484    20646203.390
  20927329.351     3242015.57849   2531034.70349  20927328.0804   20927334.4384
  20616778.486   -20588994.42549 -15680204.00249  20616776.5004   20616781.7554
  21109646.062   -13851618.86149 -10765622.97549  21109648.1924   21109652.6754
 96  2  9 19 10 59.9900000  0  8 22 19 29 18 28 14 31 27
  21218697.395     -574046.95449   -439086.23149  21218696.5294   21218701.9414
  18540868.385   -32446805.98349 -24594849.89549  18540869.9414   18540874.7624
  18070231.390   -16520000.27149 -12858158.05249  18070231.8174   18070235.8644
  17385936.360   -30953600.89849 -24100458.78049  17385936.5944   17385940.9774
  20626587.908   -23736144.126 9 -18474679.949 9  20626588.172    20626593.427
  20936335.721     3289363.26249   2567928.90149  20936337.3554   20936344.4684
  20588775.517   -20736139.28249 -15794862.24349  20588777.1174   20588782.3244
  21082831.930   -13992535.36749 -10875428.02049  21082832.4344   21082838.3644
 96  2  9 19 11 29.9900000  0  8 22 19 29 18 28 14 31 27
  21226395.584     -533591.82449   -407562.78249  21226394.6294   21226400.3784
  18519964.345   -32556656.53949 -24680447.72049  18519966.0904   18519971.6254
  18065647.398   -16544085.84549 -12876926.04649  18065648.5984   18065652.4614
  17369487.805   -31040038.72749 -24167812.93849  17369487.9994   17369492.4234
  20607047.434   -23838834.867 9 -18554698.672 9  20607046.453    20607052.128
  20945341.305     3336678.12349   2604797.53649  20945342.0624   20945348.2814
  20560800.234   -20883154.22549 -15909419.25849  20560800.4544   20560806.5024
  21056013.867   -14133464.80749 -10985243.11749  21056014.0804   21056020.7514
 96  2  9 19 11 59.9900000  0  8 22 19 29 18 28 14 31 27
  21234122.327     -492993.05749   -375927.42549  21234121.2644   21234125.8514
  18499098.280   -32666312.42549 -24765893.85249  18499099.6474   18499104.4954
  18061142.419   -16567759.16449 -12895372.80249  18061143.5024   18061147.5904
  17353122.660   -31126036.31049 -24234824.04749  17353123.1494   17353127.4494
  20587589.175   -23941078.870 9 -18634369.288 9  20587590.417    20587595.465
  20954357.235     3384054.04849   2641713.75049  20954357.1804   20954363.2874
  20532859.418   -21029980.96049 -16023829.62749  20532860.4334   20532864.3764
  21029210.518   -14274315.06249 -11094996.52349  21029212.1454   21029217.7494
 96  2  9 19 12 29.9900000  0  8 22 19 29 18 28 14 31 27
  21241867.343     -452282.83749   -344205.22949  21241868.2424   21241873.8704
  18478267.450   -32775782.18849 -24851194.95849  18478267.9664   18478273.2604
  18056711.678   -16591042.66049 -12913515.80049  18056712.6844   18056717.0274
  17336835.486   -31211626.92249 -24301518.03049  17336835.7464   17336840.2664
  20568212.042   -24042907.823 9 -18713716.500 9  20568212.680    20568218.118
  20963375.481     3431448.55249   2678644.42749  20963376.4474   20963382.4134
  20504948.372   -21176658.07249 -16138123.39849  20504948.9954   20504954.6924
  21002416.276   -14415120.51949 -11204715.01749  21002416.4194   21002423.6224
 96  2  9 19 12 59.9900000  0  8 22 19 29 18 28 14 31 27
  21249645.708     -411417.62549   -312362.24949  21249644.2514   21249650.9654
  18457482.810   -32885004.46849 -24936303.21349  18457483.6424   18457489.1584
  18052362.528   -16613899.25749 -12931326.15249  18052363.1754   18052367.7414
  17320634.734   -31296763.77849 -24367858.44249  17320634.7754   17320639.3184
  20548923.134   -24144278.850 9 -18792706.889 9  20548922.427    20548927.901
  20972406.325     3478895.71249   2715616.14149  20972404.1994   20972411.6024
  20477072.328   -21323141.98249 -16252266.64149  20477073.6904   20477079.9324
  20975640.150   -14555834.33349 -11314362.11049  20975640.4514   20975646.2644
 96  2  9 19 13 29.9900000  0  8 22 19 29 18 28 14 31 27
  21257443.070     -370444.57549   -280435.23949  21257441.6924   21257447.5954
  18436739.016   -32994012.02649 -25021244.16249  18436740.3704   18436745.4264
  18048083.972   -16636378.57449 -12948842.52349  18048085.3764   18048089.7624
  17304512.109   -31381487.21549 -24433876.71249  17304512.3804   17304517.0604
  20529715.020   -24245225.789 9 -18871366.821 9  20529713.050    20529718.267
  20981439.073     3526378.18649   2752615.36849  20981440.8014   20981446.5564
  20449227.061   -21469468.25549 -16366287.05349  20449228.2444   20449234.7054
  20948871.604   -14696493.34849 -11423966.50049  20948873.3694   20948880.6634
 96  2  9 19 13 59.9900000  0  8 22 19 29 18 28 14 31 27
  21265264.929     -329336.53349   -248403.05449  21265264.8364   21265269.8414
  18416042.633   -33102773.81049 -25105993.59649  18416044.0234   18416048.8094
  18043883.027   -16658456.22749 -12966045.90049  18043884.1314   18043888.5274
  17288472.190   -31465775.21449 -24499555.66849  17288472.8014   17288477.3984
  20510593.003   -24345707.878 9 -18949664.527 9  20510591.975    20510597.168
  20990490.568     3573942.89149   2789678.64649  20990491.0794   20990498.3924
  20421421.478   -21615587.05649 -16480145.78949  20421423.1654   20421428.1904
  20922125.725   -14837056.03349 -11533495.81149  20922126.0364   20922130.9394
 96  2  9 19 14 29.9900000  0  8 22 19 29 18 28 14 31 27
  21273108.794     -288119.79049   -216286.16549  21273107.3864   21273112.9954
  18395384.536   -33211333.37049 -25190585.45349  18395385.5864   18395390.6224
  18039751.432   -16680166.96249 -12982963.37549  18039752.6534   18039757.0034
  17272512.337   -31549648.24849 -24564911.28449  17272512.4954   17272516.8744
  20491555.632   -24445742.118 9 -19027613.271 9  20491555.482    20491561.061
  20999550.271     3621559.74449   2826782.58349  20999553.6404   20999559.8364
  20393655.148   -21761495.22949 -16593840.41649  20393657.0074   20393662.7524
  20895394.798   -14977530.91949 -11642956.75249  20895394.3984   20895400.1244
 96  2  9 19 14 59.9900000  0  8 22 19 29 18 28 14 31 27
  21280973.637     -246776.92349   -184070.97849  21280974.5044   21280980.6104
  18374766.557   -33319686.06849 -25275016.12249  18374766.8694   18374771.5774
  18035694.292   -16701490.27549 -12999578.96249  18035695.3974   18035699.4204
  17256633.622   -31633088.28249 -24629929.49549  17256634.4224   17256638.9684
  20472609.202   -24545304.656 9 -19105194.454 9  20472609.160    20472615.113
  21008630.181     3669264.51549   2863955.00449  21008630.8864   21008638.3554
  20365933.559   -21907174.22249 -16707356.46249  20365935.4114   20365941.5454
  20868682.620   -15117895.72949 -11752331.89549  20868683.1364   20868689.5694
 96  2  9 19 15 29.9900000  0  8 22 19 29 18 28 14 31 27
  21288857.811     -205348.52949   -151789.16749  21288857.9744   21288864.3764
  18354176.008   -33427886.66149 -25359328.26949  18354177.1134   18354182.0414
  18031702.641   -16722465.07149 -13015922.97849  18031703.9564   18031708.1774
  17240828.548   -31716148.44149 -24694651.70749  17240828.6344   17240833.2144
  20453746.542   -24644437.331 9 -19182440.684 9  20453745.460    20453750.752
  21017721.611     3717017.23749   2901164.83149  21017718.3674   21017724.9644
  20338248.354   -22052658.85549 -16820721.05249  20338250.3244   20338256.9794
  20841983.881   -15258200.52449 -11861660.27249  20841984.2744   20841989.7404
 96  2  9 19 15 59.9900000  0  8 22 19 29 18 28 14 31 27
  21296767.773     -163781.25449   -119399.13149  21296767.5214   21296774.4374
  18333626.865   -33535875.48849 -25443475.40349  18333627.3694   18333632.3504
  18027788.033   -16743038.94649 -13031954.59049  18027788.6874   18027793.2154
  17225105.242   -31798770.92049 -24759032.86549  17225106.0244   17225110.7144
  20434973.006   -24743086.214 9 -19259309.933 9  20434973.018    20434978.460
  21026818.679     3764860.35649   2938445.06449  21026822.2224   21026829.8704
  20310612.548   -22197891.37149 -16933889.19049  20310614.3534   20310619.5674
  20815306.691   -15398395.27749 -11970902.91649  20815305.9484   20815310.6444
 96  2  9 19 16 29.9900000  0  8 22 19 29 18 28 14 31 27
  21304698.622     -122093.79849    -86915.44749  21304700.3574   21304706.7874
  18313115.933   -33643659.00449 -25527462.55449  18313116.7324   18313121.9734
  18023947.079   -16763221.75249 -13047681.46849  18023947.9824   18023952.3944
  17209465.538   -31880959.66849 -24823076.05249  17209466.1054   17209470.5314
  20416289.322   -24841270.405 9 -19335817.089 9  20416289.217    20416294.180
  21035937.590     3812765.58049   2975773.69849  21035938.5384   21035945.7394
  20283020.208   -22342890.06149 -17046875.14149  20283022.0544   20283025.1974
  20788643.367   -15538505.05849 -12080079.35049  20788644.4984   20788649.4774
 96  2  9 19 16 59.9900000  0  8 22 19 29 18 28 14 31 27
  21312658.381      -80282.71749    -54335.42749  21312656.9774   21312663.3304
  18292646.104   -33751226.32149 -25611281.24249  18292647.4064   18292652.1734
  18020179.968   -16783017.23349 -13063106.53749  18020181.2184   18020185.5844
  17193908.618   -31962714.77549 -24886781.34049  17193908.6724   17193912.9714
  20397693.487   -24938991.736 9 -19411963.584 9  20397693.323    20397698.827
  21045064.095     3860725.05649   3013144.59649  21045065.6554   21045072.5104
  20255472.512   -22487663.17749 -17159685.34049  20255471.9044   20255477.7104
  20761993.718   -15678547.35449 -12189203.20049  20761994.8914   20761999.4104
 96  2  9 19 17 29.9900000  0  8 22 19 29 18 28 14 31 27
  21320636.386      -38354.62949    -21664.23349  21320636.0234   21320642.2624
  18272219.258   -33858572.95449 -25694927.96249  18272220.1574   18272225.1244
  18016484.781   -16802437.60049 -13078239.30549  18016485.9044   18016489.6344
  17178434.273   -32044033.38049 -24950146.49449  17178434.2584   17178438.7344
  20379187.429   -25036247.337 9 -19487747.167 9  20379186.548    20379192.209
  21054195.694     3908723.26949   3050545.67149  21054199.2414   21054206.6244
  20227966.995   -22632193.19949 -17272306.09849  20227968.7284   20227974.9174
  20735359.212   -15818520.85549 -12298273.41849  20735358.7974   20735364.6674
 96  2  9 19 17 59.9900000  0  8 22 19 29 18 28 14 31 27
  21328639.926        3703.09749     11107.97549  21328639.2724   21328645.3414
  18251836.419   -33965686.65949 -25778393.18149  18251837.4814   18251842.2114
  18012865.925   -16821464.12749 -13093065.19149  18012865.3804   18012869.1204
  17163047.477   -32124891.01849 -25013152.45549  17163047.6884   17163052.1624
  20360771.486   -25133020.680 9 -19563154.974 9  20360771.567    20360776.547
  21063341.276     3956772.45149   3087986.46549  21063343.4634   21063349.5274
  20200513.719   -22776466.55949 -17384726.87049  20200515.1314   20200519.5224
  20708736.663   -15958403.13549 -12407272.58349  20708739.7434   20708745.7554
 96  2  9 19 18 29.9900000  0  8 22 19 29 18 28 14 31 27
  21336654.662       45819.66549     43926.02749  21336654.0524   21336660.5134
  18231479.560   -34072663.25449 -25861751.56249  18231480.3224   18231485.2504
  18009303.880   -16840168.18849 -13107639.80049  18009306.1294   18009309.7684
  17147733.100   -32205370.77649 -25075863.96449  17147732.9904   17147737.4034
  20342434.081   -25229388.475 9 -19638246.760 9  20342433.453    20342438.378
  21072481.693     4004795.86249   3125407.17849  21072481.5684   21072489.1864
  20173092.487   -22920562.71349 -17497009.56349  20173094.5284   20173098.6324
  20682124.616   -16098271.56249 -12516260.94349  20682123.6534   20682129.0024
 96  2  9 19 18 59.9900000  0  8 22 19 29 18 28 14 31 27
  21344704.710       88126.15349     76892.06749  21344704.4754   21344711.0644
  18211171.703   -34179380.96449 -25944908.21849  18211172.6154   18211177.2674
  18005831.688   -16858426.01249 -13121866.69449  18005831.7414   18005835.9394
  17132513.506   -32285346.43149 -25138182.66849  17132514.0064   17132518.3494
  20324195.873   -25325216.416 9 -19712917.887 9  20324197.501    20324202.671
  21081633.799     4052909.94949   3162898.53849  21081637.3934   21081644.4204
  20145732.580   -23064344.78349 -17609047.51349  20145734.8624   20145739.0314
  20655532.148   -16238008.32349 -12625146.71549  20655532.5734   20655538.1584
 96  2  9 19 19 29.9900000  0  8 22 19 29 18 28 14 31 27
  21352767.689      130498.96349    109909.79949  21352768.4414   21352774.2384
  18190889.658   -34285964.07249 -26027959.98349  18190890.5174   18190895.1044
  18002422.100   -16876337.13849 -13135823.43449  18002423.3574   18002427.5124
  17117367.893   -32364935.98049 -25200200.50349  17117368.5074   17117373.0464
  20306040.828   -25420621.583 9 -19787259.582 9  20306042.297    20306047.291
  21090785.718     4100993.79149   3200366.34849  21090787.5664   21090794.6124
  20118411.727   -23207918.53749 -17720923.13349  20118411.3044   20118417.3754
  20628945.408   -16377721.38249 -12734014.01149  20628945.7744   20628950.2074
 96  2  9 19 19 59.9890000  0  8 22 19 29 18 28 14 31 27
  21360853.575      172985.19149    143015.89449  21360853.1714   21360858.7204
  18170641.899   -34392365.50149 -26110870.17649  18170642.7994   18170647.6184
  17999093.295   -16893835.74849 -13149458.73449  17999093.7514   17999097.6274
  17102307.469   -32444082.02749 -25261872.75549  17102307.6824   17102312.1064
  20287978.393   -25515550.687 9 -19861230.315 9  20287978.083    20287983.262
  21099940.577     4149099.22949   3237850.97349  21099941.7894   21099948.7264
  20091139.694   -23351238.70349 -17832601.15249  20091139.4424   20091143.4694
  20602373.604   -16517358.28049 -12842821.97449  20602374.2194   20602380.5564
 96  2  9 19 20 29.9890000  0  8 22 19 29 18 28 14 31 27
  21368960.213      215581.86249    176208.05949  21368959.2014   21368965.2324
  18150432.186   -34498567.88749 -26193625.27549  18150433.1284   18150437.5054
  17995845.700   -16910898.61849 -13162754.50249  17995846.8874   17995850.8894
  17087333.709   -32522770.79049 -25323188.68749  17087333.7534   17087337.9624
  20270006.743   -25609985.192 9 -19934815.644 9  20270007.738    20270013.287
  21109101.838     4197246.54349   3275368.25449  21109103.8204   21109110.9194
  20063919.012   -23494284.34449 -17944065.26449  20063917.8634   20063924.3004
  20575816.879   -16656918.15549 -12951569.90249  20575816.9904   20575822.7124
 96  2  9 19 20 59.9890000  0  8 22 19 29 18 28 14 31 27
  21377069.437      258194.90249    209412.97049  21377068.5394   21377073.6384
  18130248.189   -34604635.45549 -26276275.31649  18130249.0884   18130253.7164
  17992666.438   -16927602.32249 -13175770.39049  17992668.1504   17992672.4354
  17072433.640   -32601068.42849 -25384199.84149  17072434.2104   17072438.3334
  20252115.295   -25703993.863 9 -20008069.151 9  20252118.348    20252124.243
  21118258.458     4245364.63349   3312862.74249  21118260.2714   21118267.8174
  20036737.454   -23637114.87049 -18055361.74949  20036738.7204   20036743.9074
  20549262.223   -16796464.16449 -13060307.04049  20549261.8844   20549267.5564
 96  2  9 19 21 29.9890000  0  8 22 19 29 18 28 14 31 27
  21385192.541      300881.86549    242675.47549  21385191.2784   21385196.1574
  18110101.910   -34710502.41349 -26358769.04349  18110103.1334   18110107.7304
  17989570.425   -16943875.06349 -13188450.46749  17989571.7004   17989575.5394
  17057620.654   -32678911.03349 -25444856.42249  17057621.2084   17057625.3134
  20234322.657   -25797511.599 9 -20080940.115 9  20234322.557    20234327.792
  21127427.003     4293532.56049   3350396.06049  21127427.0034   21127433.0404
  20009608.657   -23779669.32949 -18166443.11349  20009610.4834   20009616.0974
  20522724.053   -16935909.16149 -13168965.45349  20522726.1284   20522732.8644
 96  2  9 19 21 59.9890000  0  8 22 19 29 18 28 14 31 27
  21393324.841      343613.64449    275972.90949  21393323.3754   21393328.9144
  18089992.734   -34816177.42749 -26441113.19849  18089993.6224   18089998.7074
  17986550.516   -16959745.49749 -13200817.05749  17986551.3424   17986555.6184
  17042892.166   -32756314.11149 -25505170.51049  17042891.8034   17042896.1944
  20216616.588   -25890549.514 9 -20153437.197 9  20216617.855    20216623.424
  21136598.843     4341723.93449   3387947.63849  21136596.7774   21136605.1724
  19982532.918   -23921967.46649 -18277324.75049  19982532.6904   19982537.8214
  20496204.599   -17075276.62949 -13277563.44649  20496205.5714   20496212.0244
 96  2  9 19 22 29.9890000  0  8 22 19 29 18 28 14 31 27
  21401457.564      386359.61649    309281.39349  21401457.4444   21401463.0684
  18069914.111   -34921690.33049 -26523331.03249  18069915.3524   18069920.5954
  17983597.769   -16975261.40749 -13212907.39449  17983599.1004   17983603.0744
  17028239.004   -32833314.40949 -25565170.75149  17028239.1244   17028243.4264
  20198996.093   -25983143.976 9 -20225588.718 9  20198997.877    20199003.014
  21145760.659     4389889.00549   3425478.72349  21145762.6524   21145769.7834
  19955496.208   -24064041.47749 -18388031.72549  19955496.2884   19955502.5434
  20469694.665   -17214594.79949 -13386123.04549  20469694.1394   20469699.6024
 96  2  9 19 22 59.9890000  0  8 22 19 29 18 28 14 31 27
  21409620.856      429260.27249    342710.42449  21409620.6104   21409626.1834
  18049887.875   -35026928.85749 -26605335.06449  18049889.0714   18049894.0024
  17980733.058   -16990323.55249 -13224644.15249  17980732.5554   17980736.8894
  17013684.476   -32909798.82849 -25624769.00349  17013684.4404   17013688.9714
  20181482.045   -26075186.519 9 -20297310.170 9  20181482.779    20181487.753
  21154941.136     4438122.81749   3463063.36849  21154940.6894   21154949.6154
  19928520.576   -24205795.22449 -18498489.16149  19928521.6534   19928527.3704
  20443212.041   -17353748.31749 -13494554.33649  20443214.1024   20443220.0344
 96  2  9 19 23 29.9890000  0  8 22 19 29 18 28 14 31 27
  21417794.889      472219.31549    376184.94249  21417795.5454   21417801.4014
  18029894.365   -35131995.33449 -26687205.03649  18029895.8344   18029900.6844
  17977930.867   -17005039.67249 -13236111.28349  17977932.2694   17977936.2534
  16999207.001   -32985879.12649 -25684052.35949  16999206.9254   16999211.5054
  20164051.659   -26166783.429 9 -20368684.372 9  20164052.121    20164057.717
  21164110.142     4486293.71449   3500598.98649  21164108.4544   21164115.8494
  19901585.033   -24347343.95049 -18608786.83449  19901586.0704   19901592.1334
  20416742.328   -17492863.06049 -13602955.38949  20416742.1074   20416746.9654
 96  2  9 19 23 59.9890000  0  8 22 19 29 18 28 14 31 27
  21425994.021      515294.81049    409750.20449  21425993.0334   21425998.1264
  18009942.879   -35236843.58249 -26768904.95949  18009943.7494   18009948.6544
  17975204.588   -17019367.61149 -13247275.93649  17975205.6214   17975210.0274
  16984816.352   -33061501.45849 -25742978.86149  16984816.7724   16984821.2194
  20146716.306   -26257881.508 9 -20439669.873 9  20146716.527    20146722.415
  21173271.364     4534444.58949   3538119.01349  21173270.4304   21173278.1074
  19874698.531   -24488631.06949 -18718880.65949  19874699.8294   19874704.6624
  20390283.464   -17631899.71749 -13711295.63649  20390283.6444   20390289.6674
 96  2  9 19 24 29.9890000  0  8 22 19 29 18 28 14 31 27
  21434212.035      558488.84649    443407.83349  21434211.9224   21434217.8384
  17990030.109   -35341489.71849 -26850447.38949  17990030.5584   17990035.0774
  17972550.505   -17033309.19549 -13258139.52949  17972552.6194   17972557.1374
  16970514.609   -33136660.32849 -25801544.21549  16970514.4334   16970518.7824
  20129474.534   -26348483.424 9 -20510268.753 9  20129476.195    20129481.421
  21182431.498     4582588.88949   3575633.93149  21182432.0494   21182440.1454
  19847862.119   -24629651.98049 -18828767.02649  19847864.7644   19847870.9774
  20363840.975   -17770857.89849 -13819574.71149  20363841.7184   20363846.6114
 96  2  9 19 24 59.9890000  0  8 22 19 29 18 28 14 31 27
  21442452.297      601786.56549    477146.25849  21442451.6404   21442458.8394
  17970153.141   -35445941.47549 -26931838.36349  17970154.1464   17970158.8364
  17969971.317   -17046870.66349 -13268706.93149  17969972.3614   17969976.4564
  16956298.528   -33211365.12549 -25859755.75349  16956298.5284   16956302.9024
  20112329.727   -26438592.695 9 -20580483.755 9  20112329.212    20112333.956
  21191594.338     4630724.02749   3613141.69549  21191591.9104   21191599.2864
  19821079.346   -24770395.51849 -18938437.28449  19821081.8464   19821087.5834
  20337406.451   -17909758.99249 -13927809.29849  20337408.3854   20337414.4834
 96  2  9 19 25 29.9890000  0  8 22 19 29 18 28 14 31 27
  21450701.537      645152.30849    510937.67949  21450703.5534   21450710.1074
  17950311.027   -35550213.34849 -27013089.16849  17950312.0124   17950316.0344
  17967462.836   -17060053.54349 -13278979.32249  17967463.5244   17967467.7844
  16942166.236   -33285629.15949 -25917623.83549  16942166.5804   16942170.8634
  20095273.545   -26528215.416 9 -20650319.618 9  20095274.343    20095279.596
  21200752.560     4678846.20249   3650639.37349  21200751.2184   21200757.6344
  19794354.463   -24910846.45849 -19047879.51449  19794354.4794   19794360.0594
  20310986.057   -18048610.80049 -14036005.50049  20310987.5564   20310990.6664
 96  2  9 19 25 59.9890000  0  8 22 19 29 18 28 14 31 27
  21458973.243      688611.22649    544801.71449  21458974.0724   21458979.8704
  17930511.285   -35654260.85249 -27094165.14149  17930512.5464   17930516.6104
  17965034.508   -17072814.76049 -13288923.15749  17965035.0804   17965039.5604
  16928129.590   -33359396.89449 -25975105.19249  16928128.7894   16928133.2844
  20078320.454   -26617310.362 9 -20719744.233 9  20078320.072    20078325.324
  21209916.020     4727007.59049   3688167.59249  21209914.9684   21209922.1524
  19767693.067   -25050947.07549 -19157048.77749  19767694.2804   19767700.6454
  20284584.562   -18187347.51049 -14144112.00849  20284584.5854   20284591.2254
 96  2  9 19 26 29.9890000  0  8 22 19 29 18 28 14 31 27
  21467247.513      732090.78949    578681.83549  21467247.2644   21467253.6754
  17910743.414   -35758143.35149 -27175112.53649  17910744.0684   17910748.4134
  17962675.204   -17085210.01749 -13298581.82049  17962676.4714   17962680.5124
  16914173.449   -33432728.56449 -26032246.75349  16914174.2684   16914178.8354
  20061452.688   -26705945.478 9 -20788810.539 9  20061453.319    20061458.822
  21219071.157     4775131.32449   3725666.47649  21219073.3254   21219079.9034
  19741089.390   -25190754.88449 -19265989.88749  19741090.2694   19741095.9724
  20258194.151   -18326031.88949 -14252177.72649  20258195.2264   20258199.8914
 96  2  9 19 26 59.9890000  0  8 22 19 29 18 28 14 31 27
  21475537.248      775656.39949    612628.99549  21475538.0754   21475543.7514
  17891019.699   -35861791.49049 -27255877.31749  17891020.2734   17891024.9264
  17960397.350   -17097186.89949 -13307914.48149  17960397.4264   17960401.4914
  16900311.093   -33505575.23649 -26089010.39849  16900311.9944   16900316.5664
  20044685.770   -26794063.425 9 -20857473.859 9  20044684.965    20044690.535
  21228228.789     4823255.66549   3763165.81149  21228231.0184   21228237.9864
  19714548.515   -25330219.19249 -19374663.32749  19714550.7374   19714555.2844
  20231823.629   -18464604.43749 -14360156.33749  20231824.5524   20231828.6784
 96  2  9 19 27 29.9890000  0  7 19 29 18 28 14 31 27
  17871332.522   -35965247.49749 -27336492.38949  17871333.1184   17871337.8154
  17958189.245   -17108786.81249 -13316953.40149  17958189.8144   17958193.9224
  16886535.052   -33577971.64449 -26145423.19349  16886535.3684   16886539.9224
  20028007.390   -26881704.131 9 -20925765.310 9  20028007.954    20028012.923
  21237379.128     4871339.20349   3800633.35249  21237382.0294   21237388.1394
  19688065.263   -25469401.38949 -19483116.95249  19688065.7344   19688071.5884
  20205470.675   -18603093.57749 -14468069.93949  20205472.3664   20205477.4704
 96  2  9 19 27 59.9890000  0  7 19 29 18 28 14 31 27
  17851687.975   -36068477.65749 -27416931.46649  17851688.9364   17851693.7444
  17956060.165   -17119973.17849 -13325670.06749  17956061.0144   17956065.6784
  16872852.887   -33649875.48849 -26201452.16349  16872852.9244   16872857.1734
  20011428.298   -26968827.144 9 -20993653.350 9  20011428.792    20011434.019
  21246528.515     4919420.52949   3838099.21049  21246531.6594   21246538.3024
  19661638.478   -25608272.28249 -19591327.98849  19661638.4234   19661644.4254
  20179140.753   -18741461.78149 -14575889.30749  20179141.0154   20179145.5934
 96  2  9 19 28 29.9890000  0  7 19 29 18 28 14 31 27
  17832080.223   -36171514.55049 -27497219.95749  17832081.4594   17832086.8364
  17954003.657   -17130782.20849 -13334092.70649  17954004.2514   17954008.6874
  16859256.292   -33721324.94049 -26257127.06549  16859256.5214   16859260.8604
  19994946.090   -27055448.339 9 -21061150.378 9  19994945.213    19994950.461
  21255675.161     4967478.54349   3875546.87549  21255676.2614   21255683.3464
  19635266.425   -25746862.73349 -19699320.49549  19635266.7084   19635272.8124
  20152826.340   -18879745.30249 -14683642.68949  20152827.3204   20152831.1994
 96  2  9 19 28 59.9890000  0  7 19 29 18 28 14 31 27
  17812511.053   -36274351.01949 -27577352.26749  17812512.3014   17812517.5594
  17952015.967   -17141219.93649 -13342226.02349  17952017.7584   17952022.5244
  16845746.140   -33792320.10549 -26312447.97749  16845746.3874   16845750.7704
  19978559.578   -27141555.373 9 -21128246.762 9  19978559.772    19978564.594
  21264817.791     5015520.93649   3912982.39749  21264818.6764   21264825.4384
  19608946.978   -25885169.03749 -19807091.59149  19608947.4264   19608953.0524
  20126529.416   -19017936.46949 -14791324.12049  20126528.8804   20126535.0624
 96  2  9 19 29 29.9890000  0  7 19 29 18 28 14 31 27
  17792968.526   -36377052.24149 -27657379.19449  17792968.8414   17792973.9344
  17950093.876   -17151327.29049 -13350101.90149  17950094.6044   17950099.0944
  16832312.436   -33862914.73649 -26367456.79049  16832312.7744   16832317.2394
  19962262.042   -27227200.943 9 -21194983.567 9  19962261.954    19962267.357
  21273948.610     5063497.67049   3950366.73249  21273948.2164   21273955.6954
  19582674.507   -26023231.58549 -19914672.75949  19582674.1694   19582681.0824
  20100237.915   -19156091.57549 -14898977.43549  20100239.4504   20100244.2544
 96  2  9 19 29 59.9890000  0  7 19 29 18 28 14 31 27
  17773457.963   -36479576.48249 -27737268.21649  17773459.4564   17773464.5124
  17948243.243   -17161056.88349 -13357683.42049  17948243.0424   17948247.5424
  16818962.977   -33933064.58149 -26422119.01049  16818963.6634   16818968.3044
  19946060.179   -27312337.268 9 -21261323.562 9  19946060.767    19946065.901
  21283068.898     5111444.36649   3987727.66949  21283071.8704   21283080.0034
  19556459.537   -26160980.64849 -20022009.64449  19556461.8694   19556467.5784
  20073963.091   -19294168.92949 -15006570.18449  20073963.4664   20073970.8794
 96  2  9 19 30 29.9890000  0  7 19 29 18 28 14 31 27
  17753981.833   -36581926.28449 -27817021.29949  17753982.5924   17753987.9674
  17946457.902   -17170426.72349 -13364984.61049  17946459.4024   17946464.5104
  16805696.722   -34002779.66649 -26476442.45549  16805697.0744   16805701.8574
  19929954.021   -27396982.341 9 -21327280.760 9  19929953.074    19929958.719
  21292182.538     5159326.45949   4025038.26949  21292183.2574   21292191.9594
  19530307.646   -26298419.46649 -20129104.77549  19530307.6014   19530313.8414
  20047698.259   -19432186.72149 -15114116.47749  20047700.0494   20047705.6064
 96  2  9 19 30 59.9890000  0  7 19 29 18 28 14 31 27
  17734552.601   -36684026.50749 -27896579.91149  17734553.8274   17734559.0784
  17944760.365   -17179349.13649 -13371937.16249  17944761.9874   17944766.7214
  16792528.081   -34071982.44349 -26530366.70549  16792528.3254   16792532.8364
  19913954.150   -27481071.644 9 -21392804.887 9  19913951.582    19913957.014
  21301297.451     5207205.91949   4062346.80249  21301294.8514   21301302.6244
  19504225.230   -26435482.93049 -20235907.42449  19504226.0064   19504231.8724
  20021459.197   -19570083.84349 -15221568.77849  20021459.3184   20021465.6804
 96  2  9 19 31 29.9890000  0  7 19 29 18 28 14 31 27
  17715148.408   -36785997.12749 -27976037.52849  17715149.4704   17715154.5884
  17943124.496   -17187940.64449 -13378631.86249  17943127.1114   17943131.5814
  16779435.127   -34140784.60449 -26583978.78649  16779435.7724   16779440.2774
  19898034.996   -27564721.284 9 -21457986.426 9  19898033.897    19898038.652
  21310384.643     5254969.57149   4099565.09549  21310385.0824   21310392.2564
  19478195.632   -26572275.96049 -20342499.35949  19478194.4694   19478200.2984
  19995215.789   -19707985.45149 -15329024.53549  19995217.2204   19995223.8584
 96  2  9 19 31 59.9880000  0  7 19 29 18 28 14 31 27
  17695784.925   -36887751.41149 -28055326.58249  17695786.1264   17695790.9954
  17941564.924   -17196151.14349 -13385029.67049  17941564.9954   17941569.5904
  16766436.366   -34209097.58749 -26637209.69249  16766436.4874   16766440.8764
  19882214.448   -27647858.527 9 -21522768.697 9  19882213.311    19882218.605
  21319460.174     5302674.13449   4136737.34349  21319463.0014   21319470.4334
  19452229.199   -26708722.55249 -20448821.33049  19452230.1244   19452235.9404
  19968988.027   -19845820.58449 -15436428.53649  19968987.5894   19968993.7254
 96  2  9 19 32 29.9880000  0  6 19 29 18 28 31 27
  17676468.036   -36989261.12349 -28134425.05649  17676469.4464   17676474.3294
  17940079.099   -17203958.52849 -13391113.36749  17940079.3394   17940083.8524
  16753535.125   -34276898.48649 -26690041.56549  16753534.4114   16753538.6954
  19866492.632   -27730461.366 9 -21587134.551 9  19866494.289    19866499.846
  19426329.283   -26844818.61749 -20554870.16549  19426331.7724   19426338.2344
  19942776.221   -19983566.66349 -15543763.12949  19942775.7924   19942783.0104
 96  2  9 19 32 59.9880000  0  6 19 29 18 28 31 27
  17657183.919   -37090597.88349 -28213388.75349  17657185.5254   17657190.5864
  17938656.064   -17211431.84849 -13396936.74849  17938657.4094   17938661.7854
  16740717.807   -34344248.23549 -26742521.89349  16740717.8864   16740722.4584
  19850866.088   -27812587.847 9 -21651129.211 9  19850866.527    19850871.516
  19400487.187   -26980622.23049 -20660691.10649  19400489.2014   19400494.3094
  19916569.256   -20121279.78149 -15651072.01749  19916570.3164   19916575.8694
 96  2  9 19 33 29.9880000  0  6 19 29 18 28 31 27
  17637939.441   -37191732.94449 -28292195.29049  17637940.3034   17637945.0874
  17937300.933   -17218553.61449 -13402486.19849  17937301.8654   17937306.5974
  16727994.797   -34411107.39449 -26794619.94849  16727995.0904   16727999.5234
  19835334.480   -27894205.108 9 -21714727.076 9  19835335.381    19835339.883
  19374711.379   -27116084.02749 -20766245.69949  19374712.1204   19374717.3504
  19890377.490   -20258913.77749 -15758319.26049  19890379.9484   19890383.6244
 96  2  9 19 33 59.9880000  0  6 19 29 18 28 31 27
  17618729.483   -37292679.89449 -28370855.24249  17618731.0664   17618735.4804
  17936008.806   -17225341.40249 -13407775.40249  17936010.3354   17936014.9654
  16715359.836   -34477505.42249 -26846358.67949  16715359.9914   16715364.5944
  19819896.364   -27975339.233 9 -21777948.468 9  19819895.914    19819900.231
  19348991.521   -27251236.75349 -20871559.46249  19348992.7654   19348997.3524
  19864200.767   -20396481.44749 -15865514.80849  19864201.4964   19864207.9084
 96  2  9 19 34 29.9880000  0  6 19 29 18 28 31 27
  17599566.781   -37393382.62549 -28449324.90249  17599567.9364   17599572.4904
  17934797.048   -17231707.98649 -13412736.39849  17934798.6664   17934803.2634
  16702821.316   -34543394.85449 -26897701.10549  16702821.6454   16702826.1784
  19804562.399   -28055916.656 9 -21840736.071 9  19804562.312    19804566.987
  19323345.971   -27386006.46349 -20976574.77349  19323346.5924   19323351.6724
  19838047.051   -20533915.65049 -15972606.36649  19838048.4844   19838052.8914
 96  2  9 19 34 59.9880000  0  6 19 29 18 28 31 27
  17580426.166   -37493966.00049 -28527701.54849  17580427.4474   17580432.0944
  17933644.018   -17237762.22049 -13417454.01149  17933646.3714   17933651.4884
  16690356.999   -34608897.35849 -26948742.02149  16690357.2324   16690361.4174
  19789314.427   -28136049.915 9 -21903177.564 9  19789313.683    19789318.757
  19297753.370   -27520495.00349 -21081370.99549  19297754.9294   19297760.1774
  19811897.106   -20671336.29549 -16079687.36649  19811897.6384   19811903.2574
 96  2  9 19 35 29.9880000  0  6 19 29 18 28 31 27
  17561317.126   -37594384.32549 -28605949.58749  17561318.5044   17561323.0374
  17932561.800   -17243453.42149 -13421888.73449  17932563.7914   17932568.4444
  16677971.063   -34673985.53949 -26999460.08949  16677971.1904   16677975.6424
  19774157.861   -28215695.511 9 -21965239.060 9  19774157.865    19774162.394
  19272220.537   -27654670.59549 -21185923.34849  19272221.3654   19272226.7274
  19785755.822   -20808707.61349 -16186729.91649  19785757.9544   19785762.0734
 96  2  9 19 35 59.9880000  0  6 19 29 18 28 31 27
  17542252.757   -37694569.95649 -28684016.31149  17542253.6574   17542258.3744
  17931566.212   -17248689.49749 -13425968.82549  17931567.2594   17931571.7174
  16665677.268   -34738591.57149 -27049802.45949  16665676.9914   16665681.3644
  19759110.698   -28294767.184 9 -22026853.340 9  19759111.259    19759115.656
  19246762.621   -27788456.46649 -21290172.03849  19246763.0274   19246767.7414
  19759638.360   -20945960.26449 -16293679.99649  19759639.1724   19759644.5764
 96  2  9 19 36 29.9880000  0  6 19 29 18 28 31 27
  17523203.906   -37794669.69049 -28762016.09849  17523205.3644   17523210.2864
  17930631.011   -17253608.42749 -13429801.78249  17930631.2244   17930635.7834
  16653450.691   -34802838.67849 -27099865.14449  16653451.2254   16653455.7904
  19744149.573   -28373391.530 9 -22088119.049 9  19744149.675    19744153.739
  19221353.397   -27921982.75349 -21394218.47349  19221353.6664   19221359.4674
  19733515.669   -21083232.57849 -16400645.41749  19733516.7274   19733521.3324
 96  2  9 19 36 59.9880000  0  6 19 29 18 28 31 27
  17504185.583   -37894613.61449 -28839894.47949  17504186.5014   17504191.4674
  17929763.101   -17258160.93049 -13433349.20749  17929765.2314   17929769.5744
  16641307.772   -34866650.74049 -27149588.83749  16641308.1444   16641312.7144
  19729282.544   -28451510.507 9 -22148990.974 9  19729283.654    19729287.940
  19196002.509   -28055195.88549 -21498020.87749  19196004.6204   19196010.0514
  19707402.823   -21220461.17549 -16507576.77849  19707403.1634   19707408.4204
 96  2  9 19 37 29.9880000  0  6 19 29 18 28 31 27
  17485199.013   -37994387.82449 -28917640.61149  17485199.9114   17485205.0354
  17928968.477   -17262344.81949 -13436609.40549  17928969.3064   17928973.6044
  16629253.177   -34930000.31649 -27198952.15249  16629253.3624   16629257.8044
  19714517.219   -28529112.411 9 -22209459.981 9  19714516.416    19714520.881
  19170714.806   -28188079.05449 -21601566.17049  19170717.2734   19170721.7064
  19681298.485   -21357637.20249 -16614467.17149  19681299.9554   19681304.3174
 96  2  9 19 37 59.9880000  0  7 19  2 29 18 28 31 27
  17466240.627   -38094014.85249 -28995272.05149  17466241.7894   17466246.6064
  21496283.940    -7140024.14059  -5542769.03359  21496285.5544   21496295.0514
  17928236.046   -17266195.70949 -13439610.11449  17928236.5444   17928240.6854
  16617284.776   -34992892.03649 -27247958.69249  16617285.3124   16617289.8394
  19699843.589   -28606219.490 9 -22269543.402 9  19699843.406    19699847.950
  19145490.178   -28320643.40449 -21704863.01449  19145490.8884   19145496.1544
  19655201.534   -21494777.07349 -16721329.39049  19655202.2774   19655207.4054
 96  2  9 19 38 29.9880000  0  7 19  2 29 18 28 31 27
  17447321.003   -38193437.06749 -29072743.91149  17447322.1944   17447327.1844
  21465595.279    -7301293.46549  -5668433.34549  21465596.3614   21465605.7474
  17927573.081   -17269675.76049 -13442321.86749  17927574.3364   17927578.6834
  16605414.724   -35055270.29549 -27296565.13949  16605415.0044   16605419.4944
  19685269.617   -28682791.293 9 -22329209.732 9  19685272.124    19685277.231
  19120335.066   -28452833.29849 -21807868.09349  19120336.1334   19120341.9154
  19629121.491   -21631825.90749 -16828120.67949  19629123.0844   19629127.0364
 96  2  9 19 38 59.9880000  0  7 19  2 29 18 28 31 27
  17428446.515   -38292626.84049 -29150034.63249  17428447.0814   17428452.3904
  21434932.046    -7462435.61049  -5793998.56049  21434933.4004   21434940.1694
  17926986.918   -17272753.95749 -13444720.48449  17926988.4264   17926992.8544
  16593647.708   -35117106.05849 -27344748.85749  16593648.2584   16593652.6474
  19670806.708   -28758804.464 9 -22388440.772 9  19670807.228    19670812.285
  19095258.900   -28584611.52049 -21910552.38649  19095259.9654   19095265.3664
  19603065.628   -21768751.57149 -16934815.98149  19603066.3844   19603072.7194
 96  2  9 19 39 29.9880000  0  7 19  2 29 18 28 31 27
  17409609.745   -38391611.37349 -29227165.43049  17409611.0614   17409616.0494
  21404292.248    -7623465.51949  -5919476.32949  21404291.1024   21404299.0114
  17926474.436   -17275453.60149 -13446824.12249  17926474.5634   17926479.0434
  16581979.742   -35178422.96549 -27392528.27049  16581979.7214   16581984.4294
  19656443.561   -28834282.942 9 -22447255.172 9  19656444.142    19656448.879
  19070255.526   -28716005.60049 -22012937.36249  19070255.4584   19070261.3184
  19577029.331   -21905574.54849 -17041431.26649  19577030.0504   19577036.2054
 96  2  9 19 39 59.9880000  0  7 19  2 29 18 28 31 27
  17390808.551   -38490413.64549 -29304154.20849  17390809.3294   17390814.4734
  21373666.340    -7784401.56949  -6044880.95649  21373666.4874   21373672.5324
  17926029.260   -17277791.59349 -13448645.95749  17926029.5884   17926034.1434
  16570403.629   -35239255.82849 -27439930.50849  16570403.9484   16570408.6724
  19642179.654   -28909248.553 9 -22505669.938 9  19642178.686    19642184.013
  19045321.154   -28847039.49949 -22115041.67649  19045320.1374   19045326.5764
  19551008.580   -22042316.16949 -17147983.16849  19551009.2424   19551013.9644
 96  2  9 19 40 29.9880000  0  7 19  2 29 18 28 31 27
  17372043.673   -38589024.92249 -29380994.16149  17372044.5804   17372049.7264
  21343057.992    -7945234.83349  -6170205.47549  21343059.6664   21343067.2884
  17925654.985   -17279752.03749 -13450173.60149  17925656.6344   17925661.3614
  16558919.730   -35299602.51949 -27486953.91349  16558920.2784   16558924.6014
  19628015.007   -28983691.562 9 -22563677.486 9  19628012.704    19628017.695
  19020456.897   -28977698.61749 -22216853.97049  19020458.1524   19020463.4334
  19525002.937   -22178972.29649 -17254468.45749  19525004.1704   19525009.3864
 96  2  9 19 40 59.9880000  0  7 19  2 29 18 28 31 27
  17353319.779   -38687419.37349 -29457665.15349  17353320.7694   17353325.6634
  21312474.475    -8105953.14649  -6295440.41249  21312476.2974   21312484.3704
  17925354.866   -17281324.54349 -13451398.95549  17925357.1354   17925362.0404
  16547533.322   -35359439.62249 -27533580.23149  16547533.6664   16547538.0244
  19613950.067   -29057586.713 9 -22621258.130 9  19613951.183    19613955.979
  18995666.997   -29107969.20949 -22318363.50649  18995668.5734   18995673.7774
  19499016.685   -22315530.49349 -17360877.43549  19499018.0134   19499022.6564
 96  2  9 19 41 29.9880000  0  7 19  2 29 18 28 31 27
  17334638.533   -38785589.67249 -29534161.48849  17334639.3264   17334644.2154
  21281914.549    -8266548.35749  -6420579.41049  21281916.0714   21281923.5324
  17925133.509   -17282500.27349 -13452315.14749  17925133.8124   17925138.3984
  16536244.549   -35418763.25549 -27579806.45149  16536244.9674   16536249.2304
  19599996.553   -29130919.216 9 -22678400.359 9  19599996.344    19600001.456
  18970953.927   -29237842.05249 -22419563.12349  18970954.4674   18970959.8334
  19473052.441   -22451980.46449 -17467202.06649  19473052.1704   19473058.6764
 96  2  9 19 41 59.9880000  0  7 19  2 29 18 28 31 27
  17315993.670   -38883568.13449 -29610508.33249  17315994.5964   17315999.4974
  21251373.927    -8427054.40149  -6545648.93849  21251372.6544   21251379.6254
  17924975.566   -17283322.11349 -13452955.56949  17924977.6084   17924981.6934
  16525046.668   -35477610.37049 -27625661.34849  16525046.6394   16525050.8814
  19586143.234   -29203723.023 9 -22735130.604 9  19586142.243    19586147.279
  18946313.137   -29367331.72649 -22520464.15549  18946312.6864   18946317.9274
  19447099.968   -22588361.48549 -17573472.97249  19447101.0134   19447104.7494
 96  2  9 19 42 29.9880000  0  7 19  2 29 18 28 31 27
  17297391.336   -38981324.60249 -29686682.20349  17297392.4324   17297397.1474
  21220850.891    -8587447.94649  -6670630.81549  21220851.2824   21220857.6764
  17924892.804   -17283768.79649 -13453303.66049  17924893.1574   17924896.9664
  16513943.201   -35535956.34049 -27671125.74949  16513943.8374   16513948.0084
  19572394.870   -29275972.282 9 -22791428.740 9  19572393.854    19572398.525
  18921747.901   -29496417.58249 -22621050.52749  18921749.6004   18921754.1064
  19421165.639   -22724641.89449 -17679665.48749  19421167.3924   19421171.0274
 96  2  9 19 42 59.9880000  0  7 19  2 29 18 28 31 27
  17278824.097   -39078897.34949 -29762712.91249  17278824.8594   17278829.7794
  21190345.862    -8747760.56949  -6795549.62349  21190344.0794   21190352.0264
  17924870.788   -17283874.06649 -13453385.72749  17924872.4154   17924876.9414
  16502928.583   -35593840.37749 -27716230.20349  16502928.8344   16502933.3374
  19558744.706   -29347702.725 9 -22847322.598 9  19558744.071    19558748.568
  18897250.512   -29625146.71449 -22721358.94149  18897252.0704   18897258.5914
  19395245.603   -22860856.46649 -17785806.69949  19395246.0294   19395251.0464
 96  2  9 19 43 29.9880000  0  7 19  2 29 18 28 31 27
  17260294.077   -39176274.01249 -29838590.82349  17260294.9274   17260299.6324
  21159862.425    -8907946.56949  -6920369.75549  21159862.4194   21159868.8204
  17924922.486   -17283607.99049 -13453178.42449  17924923.0084   17924927.6874
  16492000.978   -35651264.82149 -27760976.53249  16492001.2334   16492005.8614
  19545195.772   -29418896.590 9 -22902798.341 9  19545196.347    19545201.111
  18872829.196   -29753489.19449 -22821366.06949  18872829.9284   18872834.8614
  19369340.855   -22996982.99849 -17891879.31249  19369341.8994   19369346.7524
 96  2  9 19 43 59.9880000  0  7 19  2 29 18 28 31 27
  17241810.623   -39273404.71049 -29914277.07449  17241811.6524   17241816.3054
  21129413.423    -9067956.15749  -7045052.43549  21129412.5814   21129420.5864
  17925049.724   -17282931.95349 -13452651.66749  17925051.8874   17925056.2674
  16481169.118   -35708188.41649 -27805332.59149  16481169.2354   16481173.4384
  19531759.604   -29489509.896 9 -22957821.696 9  19531758.720    19531763.943
  18848490.353   -29881384.76049 -22921024.93749  18848491.9984   18848497.1244
  19343461.032   -23132981.53649 -17997852.17649  19343462.4534   19343467.4764
 96  2  9 19 44 29.9870000  0  7 19  2 29 18 28 31 27
  17223356.451   -39370383.16049 -29989844.69349  17223357.1284   17223361.6494
  21098981.819    -9227879.60549  -7169668.00949  21098980.7334   21098987.9494
  17925243.103   -17281921.72649 -13451864.50949  17925243.8124   17925248.4104
  16470414.059   -35764706.93249 -27849373.00249  16470414.3194   16470418.3604
  19518413.714   -29559633.091 9 -23012463.141 9  19518414.695    19518419.892
  18824221.299   -30008927.88449 -23020409.18049  18824221.9994   18824226.0934
  19317589.296   -23268938.33349 -18103792.51149  19317591.1944   19317595.2754
 96  2  9 19 44 59.9870000  0  7 19  2 29 18 28 31 27
  17204948.555   -39467116.77549 -30065221.53349  17204949.4224   17204954.1344
  21068581.264    -9387606.70349  -7294130.59249  21068584.9554   21068591.8064
  17925519.182   -17280469.26549 -13450732.74749  17925520.2284   17925524.8194
  16459756.945   -35820708.23649 -27893010.39149  16459757.6344   16459761.7474
  19505182.925   -29629162.459 9 -23066641.865 9  19505183.754    19505188.955
  18800040.304   -30135998.27049 -23119425.05349  18800040.9364   18800045.7774
  19291743.031   -23404761.22649 -18209628.50049  19291744.6154   19291749.9464
 96  2  9 19 45 29.9870000  0  7 19  2 29 18 28 31 27
  17186564.279   -39563723.59649 -30140499.57149  17186565.6104   17186570.4224
  21038202.419    -9547257.70949  -7418533.86349  21038204.7724   21038211.4814
  17925853.717   -17278711.53849 -13449363.11449  17925855.1524   17925859.7064
  16449176.502   -35876309.42549 -27936336.00349  16449177.0684   16449181.1024
  19492041.457   -29698219.795 9 -23120452.771 9  19492042.428    19492048.331
  18775932.467   -30262690.02449 -23218145.88349  18775931.5784   18775937.5884
  19265900.149   -23540568.31649 -18315452.16849  19265901.3574   19265906.4654
 96  2  9 19 45 59.9870000  0  7 19  2 29 18 28 31 27
  17168219.285   -39660131.06749 -30215622.26449  17168220.2204   17168224.9334
  21007846.285    -9706776.58249  -7542834.18049  21007849.1074   21007855.5424
  17926260.591   -17276575.82949 -13447698.95549  17926261.3984   17926265.7394
  16438690.987   -35931412.46349 -27979273.44049  16438690.9644   16438695.3924
  19479005.502   -29766726.980 9 -23173834.975 9  19479006.038    19479011.506
  18751907.675   -30388939.82049 -23316522.32449  18751907.5474   18751912.6604
  19240073.910   -23676288.60149 -18421208.19849  19240074.4244   19240079.1764
 96  2  9 19 46 29.9870000  0  7 19  2 29 18 28 31 27
  17149916.091   -39756315.97949 -30290571.53849  17149916.8084   17149921.2784
  20977519.579    -9866153.42049  -7667023.80549  20977520.5584   20977527.3504
  17926742.227   -17274043.56049 -13445725.78449  17926742.9684   17926747.5764
  16428304.518   -35985990.58349 -28021801.85249  16428305.2194   16428309.3904
  19466076.534   -29834667.182 9 -23226775.383 9  19466077.511    19466082.441
  18727965.508   -30514750.59649 -23414556.68749  18727966.6884   18727971.7924
  19214264.751   -23811911.36749 -18526888.26449  19214265.0184   19214271.0854
 96  2  9 19 46 59.9870000  0  7 19  2 29 18 28 31 27
  17131636.884   -39852368.90249 -30365417.96549  17131638.4024   17131643.1004
  20947202.664   -10025488.82149  -7791181.15149  20947200.9854   20947206.0394
  17927278.821   -17271226.51149 -13443530.71249  17927279.2214   17927283.9594
  16418001.318   -36040136.60849 -28063993.56449  16418001.4844   16418006.0274
  19453238.507   -29902135.867 9 -23279348.376 9  19453238.642    19453243.217
  18704091.326   -30640216.94049 -23512322.64949  18704090.4814   18704095.7634
  19188457.048   -23947532.30449 -18632566.88549  19188458.2204   19188463.6434
 96  2  9 19 47 29.9870000  0  7 19  2 29 18 28 31 27
  17113400.213   -39948206.19549 -30440096.36649  17113401.1414   17113405.9844
  20916897.781   -10184710.62649  -7915249.97049  20916900.1644   20916907.0954
  17927883.573   -17268045.16149 -13441051.76649  17927884.8724   17927889.2004
  16407794.302   -36093771.47349 -28105786.97349  16407795.0974   16407799.4984
  19440505.376   -29969050.306 9 -23331489.484 9  19440505.247    19440510.099
  18680293.088   -30765271.82449 -23609767.98449  18680294.1214   18680299.3174
  19162666.636   -24083066.89349 -18738178.22049  19162666.6964   19162671.6344
 96  2  9 19 47 59.9870000  0  7 19  2 29 18 28 31 27
  17095190.565   -40043896.56649 -30514660.27949  17095191.7734   17095197.0364
  20886612.108   -10343864.98849  -8039266.22349  20886614.6374   20886620.3804
  17928548.820   -17264552.68549 -13438330.38749  17928549.7214   17928553.6734
  16397675.098   -36146951.40249 -28147225.88949  16397675.3604   16397679.8174
  19427866.142   -30035467.682 9 -23383243.273 9  19427866.233    19427871.459
  18656560.569   -30889992.19849 -23706952.66349  18656560.4194   18656566.3564
  19136880.500   -24218572.55349 -18843767.01449  19136880.6054   19136886.2794
 96  2  9 19 48 29.9870000  0  8 16 19  2 29 18 28 31 27
  21069556.738    -8180847.52659  -6355523.99659  21069558.4044   21069563.3864
  17077021.232   -40139380.08749 -30589063.01649  17077021.6034   17077027.1064
  20856355.123   -10502873.92549  -8163169.17249  20856356.6804   20856363.7274
  17929284.699   -17260686.96249 -13435318.16949  17929285.4924   17929289.5104
  16387654.420   -36199611.98549 -28188260.11849  16387654.4064   16387659.0264
  19415335.888   -30101326.845 9 -23434562.093 9  19415333.529    19415339.089
  18632905.359   -31014295.24049 -23803812.14449  18632906.4474   18632911.5224
  19111113.728   -24353976.47049 -18949276.54749  19111114.4604   19111120.3134
 96  2  9 19 48 59.9870000  0  8 16 19  2 29 18 28 31 27
  21043252.948    -8319076.13249  -6463234.58349  21043252.4924   21043259.5084
  17058876.394   -40234727.74849 -30663359.88549  17058877.7004   17058882.8094
  20826115.644   -10661781.69449  -8286993.28349  20826117.4754   20826123.4854
  17930080.629   -17256505.99949 -13432060.30749  17930080.7624   17930084.8964
  16377721.216   -36251807.85749 -28228932.23149  16377721.8024   16377726.2894
  19402895.077   -30166686.413 9 -23485491.620 9  19402896.344    19402901.297
  18609324.139   -31138223.64049 -23900379.68549  18609323.1344   18609328.9344
  19085355.882   -24489331.55549 -19054748.01849  19085356.4774   19085363.1014
 96  2  9 19 49 29.9870000  0  8 16 19  2 29 18 28 31 27
  21017024.500    -8456909.15449  -6570636.92349  21017025.1874   21017032.2834
  17040763.917   -40329911.21049 -30737528.79949  17040764.7234   17040769.9304
  20795909.336   -10820533.89449  -8410696.17749  20795907.3604   20795915.0764
  17930942.615   -17251972.14349 -13428527.46549  17930943.9494   17930947.6954
  16367885.272   -36303498.55449 -28269210.70149  16367885.5024   16367889.9734
  19390561.279   -30231505.622 9 -23536000.085 9  19390561.920    19390566.625
  18585818.738   -31261731.33849 -23996619.41649  18585820.4424   18585825.7834
  19059613.231   -24624610.01349 -19160159.78449  19059614.0894   19059619.2174
 96  2  9 19 49 59.9870000  0  8 16 19  2 29 18 28 31 27
  20990873.773    -8594326.28649  -6677715.19249  20990874.6854   20990881.2884
  17022688.155   -40424897.41349 -30811544.01649  17022689.4894   17022694.7904
  20765727.441   -10979114.20749  -8534265.13249  20765730.3374   20765737.6574
  17931876.652   -17247062.82149 -13424702.05649  17931877.8604   17931881.9414
  16358148.058   -36354666.83649 -28309082.09949  16358148.6234   16358152.9164
  19378331.980   -30295769.830 9 -23586076.097 9  19378332.639    19378337.590
  18562400.919   -31384794.68849 -24092512.91349  18562402.4704   18562408.0304
  19033887.960   -24759801.19949 -19265503.54749  19033888.6904   19033894.8254
 96  2  9 19 50 29.9870000  0  8 16 19  2 29 18 28 31 27
  20964798.348    -8731358.41749  -6784493.47549  20964799.2164   20964806.3154
  17004651.656   -40519683.18649 -30885403.05149  17004652.6424   17004657.3484
  20735578.831   -11137561.20749  -8657730.23249  20735577.9474   20735585.9024
  17932878.765   -17241797.31449 -13420599.09849  17932879.8014   17932884.2224
  16348506.713   -36405334.15949 -28348563.13749  16348506.8454   16348511.2044
  19366204.133   -30359496.187 9 -23635733.001 9  19366205.573    19366210.781
  18539067.381   -31507417.85749 -24188063.40749  18539067.8284   18539073.6384
  19008174.840   -24894926.87749 -19370796.27949  19008175.0254   19008180.7534
 96  2  9 19 50 59.9870000  0  8 16 19  2 29 18 28 31 27
  20938788.726    -8868037.95049  -6890996.99449  20938788.6044   20938796.2144
  16986652.062   -40614271.30749 -30959108.07249  16986653.2344   16986657.9844
  20705449.191   -11295895.38249  -8781107.40549  20705448.6414   20705455.1804
  17933944.081   -17236194.64249 -13416233.41849  17933945.6214   17933950.3204
  16338954.235   -36455533.97749 -28387679.88549  16338954.1024   16338958.4294
  19354178.672   -30422692.742 9 -23684977.071 9  19354179.588    19354185.079
  18515814.530   -31629616.02949 -24283282.73549  18515814.8544   18515820.3244
  18982471.138   -25030000.95349 -19476048.78449  18982471.8074   18982476.1824
 96  2  9 19 51 29.9870000  0  8 16 19  2 29 18 28 31 27
  20912848.903    -9004356.80749  -6997219.47549  20912849.4224   20912856.5184
  16968694.647   -40708638.16549 -31032640.68349  16968695.5944   16968700.5584
  20675342.403   -11454109.33949  -8904390.91049  20675341.4704   20675348.5914
  17935077.971   -17230242.87049 -13411595.71349  17935078.3354   17935083.2894
  16329490.769   -36505262.30549 -28426429.24249  16329491.0624   16329495.3894
  19342257.474   -30485338.647 9 -23733792.052 9  19342258.833    19342263.812
  18492646.107   -31751369.79649 -24378155.78649  18492645.7324   18492650.3414
  18956782.646   -25164994.15449 -19581238.26949  18956782.5624   18956788.2124
 96  2  9 19 51 59.9870000  0  8 16 19  2 29 18 28 31 27
  20886973.962    -9140329.19449  -7103171.95049  20886975.2504   20886982.0704
  16950780.460   -40802776.89249 -31105995.52749  16950781.5804   16950786.6414
  20645254.829   -11612213.21449  -9027588.62849  20645255.4584   20645262.5564
  17936276.651   -17223943.10549 -13406686.84349  17936277.3424   17936282.3254
  16320116.992   -36554521.18549 -28464812.79149  16320117.3414   16320121.8214
  19330440.924   -30547435.739 9 -23782179.389 9  19330442.214    19330447.428
  18469559.474   -31872682.87649 -24472685.44449  18469560.4534   18469564.8794
  18931112.773   -25299887.40949 -19686349.88049  18931112.8374   18931118.9234
 96  2  9 19 52 29.9870000  0  8 16 19  2 29 18 28 31 27
  20861162.933    -9275963.36549  -7208860.88149  20861164.5034   20861171.0274
  16932902.046   -40896727.74849 -31179203.97749  16932903.5904   16932908.5364
  20615184.751   -11770221.02349  -9150711.51649  20615187.2714   20615193.1314
  17937536.739   -17217327.97549 -13401532.23549  17937536.3364   17937540.5984
  16310829.039   -36603331.52949 -28502846.83149  16310829.0594   16310833.6464
  19318726.928   -30609002.039 9 -23830153.119 9  19318726.498    19318731.788
  18446555.556   -31993566.23649 -24566880.25449  18446557.6184   18446561.7244
  18905459.380   -25434698.97549 -19791397.83549  18905459.1514   18905465.2174
 96  2  9 19 52 59.9870000  0  8 16 19  2 29 18 28 31 27
  20835423.997    -9411231.73049  -7314264.77449  20835423.4564   20835430.4504
  16915059.388   -40990492.85449 -31252267.69049  16915060.4184   16915065.1804
  20585142.422   -11928101.38349  -9273735.07749  20585143.6754   20585149.4344
  17938855.975   -17210384.31149 -13396121.62549  17938857.4104   17938862.2164
  16301629.350   -36651672.32849 -28540514.99449  16301630.0814   16301634.6534
  19307112.838   -30670026.034 9 -23877704.277 9  19307113.402    19307118.994
  18423637.180   -32114010.71449 -24660733.08249  18423637.4644   18423641.9444
  18879823.566   -25569417.98949 -19896373.67549  18879822.7504   18879827.9724
 96  2  9 19 53 29.9870000  0  8 16 19  2 29 18 28 31 27
  20809755.963    -9546113.19049  -7419367.19049  20809756.1514   20809762.7884
  16897251.250   -41084073.23549 -31325187.46649  16897252.5994   16897257.5174
  20555123.199   -12085855.25349  -9396660.08949  20555123.7684   20555130.3624
  17940241.825   -17203105.25349 -13390449.67349  17940242.5744   17940247.2624
  16292525.500   -36699512.79849 -28577793.29149  16292526.2234   16292531.0254
  19295605.348   -30730512.326 9 -23924836.442 9  19295603.487    19295608.634
  18400800.650   -32234015.08949 -24754242.96649  18400800.9424   18400805.8934
  18854202.797   -25704055.55249 -20001286.04749  18854203.4594   18854207.1604
 96  2  9 19 53 59.9870000  0  8 16 19  2 29 18 28 31 27
  20784162.567    -9680608.98849  -7524169.10149  20784162.5224   20784168.6274
  16879475.607   -41177487.66249 -31397977.92449  16879476.4224   16879481.1204
  20525126.101   -12243498.53249  -9519498.93449  20525125.4524   20525132.8044
  17941687.045   -17195504.19249 -13384526.81649  17941689.2724   17941692.9824
  16283515.871   -36746860.31249 -28614687.46249  16283516.5294   16283521.1184
  19284190.957   -30790481.056 9 -23971565.309 9  19284192.043    19284197.045
  18378042.899   -32353600.56249 -24847426.44649  18378044.4024   18378049.9154
  18828591.010   -25838645.98449 -20106161.68349  18828591.0864   18828595.9704
 96  2  9 19 54 29.9870000  0  8 16 19  2 29 18 28 31 27
  20758650.386    -9814673.08049  -7628634.60749  20758650.4774   20758657.8294
  16861734.155   -41270717.21049 -31470624.32149  16861735.2744   16861740.0284
  20495152.418   -12401005.69449  -9642231.72249  20495153.4854   20495159.0414
  17943201.103   -17187556.82649 -13378334.09949  17943201.8654   17943206.1214
  16274605.277   -36793687.62049 -28651176.28249  16274605.1834   16274610.0184
  19272883.476   -30849908.261 9 -24017872.207 9  19272883.589    19272888.188
  18355374.074   -32472736.80849 -24940259.88849  18355373.6414   18355379.1274
  18802990.936   -25973173.00749 -20210987.91349  18802991.5554   18802995.1744
 96  2  9 19 54 59.9870000  0  8 16 19  2 29 18 28 31 27
  20733226.785    -9948274.15149  -7732739.32149  20733226.6614   20733232.8914
  16844036.426   -41363719.84849 -31543093.89849  16844037.4574   16844042.4974
  20465210.662   -12558342.49749  -9764831.76149  20465213.2194   20465219.0854
  17944785.386   -17179222.90349 -13371840.17749  17944787.6854   17944791.9724
  16265798.121   -36839966.81949 -28687238.00149  16265798.7264   16265803.3684
  19261684.751   -30908759.859 9 -24063730.574 9  19261684.522    19261689.197
  18332797.638   -32591388.22249 -25032715.52049  18332795.3974   18332800.5354
  18777412.101   -26107595.13349 -20315732.39749  18777412.4584   18777416.1524
 96  2  9 19 55 29.9870000  0  8 16 19  2 29 18 28 31 27
  20707876.890   -10081489.23849  -7836543.26949  20707878.3264   20707883.5094
  16826368.107   -41456567.69049 -31615442.86249  16826369.0434   16826374.1324
  20435291.958   -12715582.64049  -9887356.49049  20435291.4004   20435296.9884
  17946431.725   -17170574.74149 -13365101.39449  17946433.8234   17946437.9774
  16257078.412   -36885791.52649 -28722945.57549  16257078.7144   16257083.4874
  19250581.332   -30967111.003 9 -24109198.977 9  19250580.992    19250585.178
  18310297.650   -32709615.47049 -25124840.64249  18310297.8404   18310302.9444
  18751837.150   -26241983.56049 -20420450.63549  18751838.2574   18751843.7614
 96  2  9 19 55 59.9870000  0  8 16 19  2 29 18 28 31 27
  20682604.576   -10214295.11049  -7940028.34549  20682604.6914   20682613.6774
  16808730.286   -41549254.50049 -31687666.34249  16808731.6524   16808736.5344
  20405396.182   -12872684.73849 -10009773.65349  20405395.6934   20405401.3794
  17948139.597   -17161594.71749 -13358104.01549  17948141.7094   17948146.7994
  16248442.976   -36931170.54949 -28758305.85249  16248443.2824   16248447.9384
  19239577.652   -31024936.720 9 -24154257.940 9  19239576.820    19239581.593
  18287887.086   -32827381.49649 -25216606.37449  18287887.2744   18287892.6054
  18726278.003   -26376301.17749 -20525113.67449  18726278.4684   18726283.5284
 96  2  9 19 56 29.9860000  0  8 16 19  2 29 18 28 31 27
  20657414.134   -10346673.85049  -8043180.60349  20657413.9084   20657421.0854
  16791128.781   -41641753.22949 -31759743.27149  16791129.5174   16791134.5644
  20375532.966   -13029605.87649 -10132049.81749  20375533.9894   20375541.2414
  17949917.455   -17152259.53249 -13350829.89949  17949918.0334   17949923.5834
  16239896.187   -36976085.91649 -28793304.84149  16239896.3734   16239900.7384
  19228678.228   -31082209.198 9 -24198885.821 9  19228678.077    19228683.073
  18265572.214   -32944646.76949 -25307981.90249  18265572.7654   18265577.4174
  18700737.786   -26510514.78849 -20629695.67749  18700738.5394   18700743.5654
 96  2  9 19 56 59.9860000  0  8 16 19  2 29 18 28 31 27
  20632303.274   -10478632.11149  -8146005.20849  20632304.5074   20632309.6104
  16773564.396   -41734053.69449 -31831665.70949  16773565.4384   16773570.2784
  20345709.121   -13186334.30249 -10254175.81449  20345709.2894   20345716.4024
  17951765.351   -17142551.49249 -13343265.24649  17951765.3194   17951771.1874
  16231439.414   -37020523.11849 -28827931.23849  16231440.2054   16231444.8614
  19217886.477   -31138915.171 9 -24243072.275 9  19217886.698    19217892.279
  18243353.706   -33061406.21249 -25398963.28249  18243353.9624   18243358.4994
  18675217.151   -26644624.09449 -20734196.41549  18675218.1804   18675223.2644
 96  2  9 19 57 29.9860000  0  8 16 19  2 29 18 28 31 27
  20607266.421   -10610204.40749  -8248529.06349  20607266.2434   20607273.4924
  16756029.582   -41826202.47849 -31903469.95349  16756030.3434   16756034.7644
  20315915.099   -13342904.33849 -10376178.37749  20315914.9634   20315922.2484
  17953674.510   -17132514.95449 -13335444.61749  17953675.6234   17953681.2894
  16223069.763   -37064507.28949 -28862204.62249  16223070.6114   16223074.9614
  19207196.904   -31195093.060 9 -24286847.231 9  19207196.751    19207201.745
  18221222.620   -33177706.53549 -25489586.90049  18221222.6374   18221227.3644
  18649709.911   -26778667.60849 -20838645.87249  18649711.2644   18649715.9304
 96  2  9 19 57 59.9860000  0  8 16 19  2 29 18 28 31 27
  20582304.652   -10741381.70449  -8350745.13049  20582304.8534   20582311.9754
  16738526.583   -41918178.75949 -31975139.77749  16738527.8334   16738532.3754
  20286150.995   -13499311.22449 -10498053.80749  20286151.2574   20286158.7114
  17955646.059   -17122143.62149 -13327363.09849  17955649.3294   17955654.6634
  16214793.882   -37107999.94849 -28896095.00649  16214793.9614   16214798.4194
  19196610.801   -31250721.902 9 -24330194.346 9  19196610.921    19196615.752
  18199179.643   -33293545.66649 -25579851.15349  18199179.4754   18199184.8524
  18624218.757   -26912627.28249 -20943030.00949  18624219.1144   18624224.4664
 96  2  9 19 58 29.9860000  0  8 16 19  2 29 18 28 31 27
  20557416.626   -10872167.14849  -8452655.86749  20557417.1514   20557424.0104
  16721062.272   -42009955.39049 -32046654.03649  16721063.4384   16721067.8834
  20256412.696   -13655577.89549 -10619820.00149  20256415.2804   20256421.7754
  17957687.319   -17111434.23249 -13319018.15949  17957687.2124   17957692.4164
  16206614.407   -37150978.22149 -28929584.57849  16206615.4704   16206619.8834
  19186130.701   -31305798.574 9 -24373111.209 9  19186130.138    19186135.403
  18177219.034   -33408934.19049 -25669764.26949  18177221.9804   18177226.8494
  18598742.151   -27046506.98649 -21047351.83449  18598743.1424   18598747.1754
 96  2  9 19 58 59.9860000  0  8 16 19  2 29 18 28 31 27
  20532601.125   -11002566.44349  -8554265.70849  20532602.0244   20532608.0924
  16703633.143   -42101546.47249 -32118023.70549  16703634.0574   16703638.4984
  20226700.496   -13811727.50949 -10741494.97049  20226700.3934   20226707.0724
  17959786.336   -17100404.44249 -13310423.56249  17959786.2584   17959791.3364
  16198533.396   -37193446.50049 -28962676.75149  16198534.1124   16198538.2974
  19175750.990   -31360341.911 9 -24415612.488 9  19175750.534    19175755.726
  18155346.178   -33523890.15549 -25759340.32849  18155345.9414   18155350.9854
  18573277.988   -27180322.77749 -21151623.85749  18573278.6734   18573283.4024
 96  2  9 19 59 29.9860000  0  8 16 19  2 29 18 28 31 27
  20507867.363   -11132550.17749  -8655551.73249  20507867.4924   20507873.2374
  16686245.494   -42192914.76949 -32189219.77849  16686247.0584   16686251.8014
  20197013.480   -13967739.19049 -10863062.44049  20197012.9754   20197019.3084
  17961949.546   -17089030.94449 -13301561.13749  17961950.4214   17961956.1764
  16190552.507   -37235389.62049 -28995359.70749  16190552.5254   16190556.8254
  19165477.551   -31414324.751 9 -24457677.023 9  19165478.358    19165483.067
  18133561.710   -33638372.66749 -25848547.45649  18133560.8164   18133565.1454
  18547831.566   -27314044.38449 -21255822.49349  18547832.4474   18547837.2914
 96  2  9 19 59 59.9860000  0  8 16 19  2 29 18 28 31 27
  20483210.086   -11262124.39049  -8756518.63649  20483210.3284   20483217.9464
  16668901.764   -42284059.04149 -32260241.28149  16668902.8594   16668907.8764
  20167348.556   -14123618.94849 -10984527.11049  20167349.8784   20167356.6164
  17964175.586   -17077329.95049 -13292443.52849  17964177.1194   17964181.8944
  16182665.877   -37276831.35649 -29027651.97749  16182666.4164   16182670.6524
  19155309.033   -31467760.495 9 -24499315.253 9  19155310.046    19155314.741
  18111864.467   -33752382.43549 -25937386.22149  18111864.8064   18111870.1434
  18522398.739   -27447692.80849 -21359964.09849  18522399.5794   18522405.0414
 96  2  9 20  0 29.9860000  0  8 16 19  2 29 18 28 31 27
  20458635.667   -11391260.52849  -8857144.19549  20458635.3374   20458642.8674
  16651602.509   -42374968.12749 -32331079.52549  16651603.0774   16651608.0784
  20137716.718   -14279334.01249 -11105863.45749  20137718.4954   20137725.1364
  17966466.049   -17065289.32849 -13283061.26449  17966468.4604   17966473.5394
  16174874.612   -37317771.68849 -29059553.53349  16174875.6514   16174879.9684
  19145247.353   -31520642.897 9 -24540522.310 9  19145246.823    19145251.544
  18090261.147   -33865898.68549 -26025840.41649  18090263.6104   18090268.2334
  18496981.294   -27581263.14349 -21464044.85049  18496981.7414   18496986.8354
 96  2  9 20  0 59.9860000  0  8 16 19  2 29 18 28 31 27
  20434152.753   -11519920.31449  -8957398.55249  20434153.0384   20434159.0454
  16634350.043   -42465628.37749 -32401723.87249  16634351.1694   16634356.0544
  20108127.080   -14434832.80249 -11227031.31549  20108128.2424   20108134.5024
  17968827.049   -17052892.55649 -13273401.48449  17968827.4164   17968832.3184
  16167183.708   -37358193.03549 -29091050.68849  16167183.5574   16167188.2884
  19135294.690   -31572946.372 9 -24581278.260 9  19135293.563    19135298.703
  18068761.004   -33978895.14049 -26113889.57849  18068760.8764   18068766.1054
  18471584.092   -27714728.85249 -21568044.08149  18471584.3934   18471589.4824
 96  2  9 20  1 29.9860000  0  8 16 19  2 29 18 28 31 27
  20409756.160   -11648127.49949  -9057300.25449  20409755.8174   20409763.4074
  16617139.740   -42556065.70949 -32472194.52049  16617141.2564   16617146.6624
  20078574.612   -14590129.16349 -11348041.40549  20078575.6554   20078582.4044
  17971249.051   -17040167.22049 -13263485.68049  17971248.9884   17971254.2374
  16159582.731   -37398132.86949 -29122172.64349  16159583.5284   16159587.8794
  19125446.552   -31624694.038 9 -24621601.120 9  19125446.145    19125451.612
  18047352.915   -34091394.96649 -26201551.75049  18047353.4434   18047358.3364
  18446203.417   -27848104.14349 -21671972.85649  18446204.0864   18446209.2224
 96  2  9 20  1 59.9860000  0  8 16 19  2 29 18 28 31 27
  20385445.546   -11775875.85449  -9156844.43649  20385447.1864   20385453.3564
  16599967.514   -42646308.32049 -32542513.43449  16599968.6054   16599973.9974
  20049064.730   -14745218.66049 -11468890.31049  20049063.0904   20049070.6294
  17973731.222   -17027120.62049 -13253319.55049  17973731.5944   17973737.0004
  16152077.053   -37437576.12649 -29152907.65249  16152077.6444   16152082.1034
  19115705.654   -31675890.635 9 -24661494.576 9  19115704.093    19115709.389
  18026038.422   -34203404.45449 -26288831.84149  18026038.4184   18026044.1444
  18420839.763   -27981388.59549 -21775830.84849  18420840.7974   18420845.6664
 96  2  9 20  2 29.9860000  0  8 16 19  2 29 18 28 31 27
  20361221.729   -11903168.61649  -9256033.59049  20361222.8974   20361230.4844
  16582829.777   -42736368.90549 -32612690.50649  16582830.6774   16582835.7824
  20019588.325   -14900111.68349 -11589586.12949  20019588.3004   20019594.6624
  17976274.335   -17013749.12949 -13242900.25049  17976276.8154   17976281.4254
  16144666.721   -37476517.22649 -29183251.36949  16144667.1174   16144671.7734
  19106066.406   -31726538.190 9 -24700960.217 9  19106066.713    19106071.276
  18004816.522   -34314919.77449 -26375726.85849  18004818.4084   18004823.1004
  18395496.827   -28114565.57049 -21879605.08149  18395497.8474   18395502.4454
 96  2  9 20  2 59.9860000  0  8 16 19  2 29 18 28 31 27
  20337083.479   -12030013.87149  -9354874.01649  20337085.7264   20337093.1944
  16565724.193   -42826258.95749 -32682734.70649  16565725.2114   16565730.3054
  19990145.020   -15054829.96049 -11710145.77649  19990146.4594   19990152.7134
  17978882.075   -17000052.79149 -13232227.82349  17978882.6484   17978887.8034
  16137351.935   -37514957.63949 -29213204.94049  16137352.3894   16137357.0084
  19096531.658   -31776639.736 9 -24740000.394 9  19096532.245    19096536.937
  17983689.242   -34425941.55649 -26462237.30849  17983691.5494   17983696.2114
  18370174.816   -28247636.16349 -21983296.43449  18370175.7724   18370180.7204
 96  2  9 20  3 29.9860000  0  8 16 19  2 29 18 28 31 27
  20313030.568   -12156417.20049  -9453370.09449  20313031.3154   20313039.4104
  16548649.595   -42915985.65449 -32752651.60949  16548651.1344   16548655.8904
  19960732.053   -15209396.94149 -11830587.54249  19960733.2504   19960739.5374
  17981552.648   -16986024.46149 -13221296.70649  17981552.3564   17981557.4144
  16130134.310   -37552887.67649 -29242760.82249  16130134.3424   16130139.0944
  19087102.137   -31826196.459 9 -24778616.036 9  19087101.862    19087106.562
  17962662.229   -34536449.03149 -26548347.00249  17962662.7294   17962667.0594
  18344871.961   -28380606.26749 -22086909.48149  18344872.2304   18344876.9244
 96  2  9 20  3 59.9860000  0  8 16 19  2 29 18 28 31 27
  20289063.629   -12282375.66049  -9551519.51149  20289062.7674   20289069.8034
  16531607.816   -43005542.17049 -32822435.90549  16531609.2274   16531614.0364
  19931346.078   -15363828.99849 -11950924.17449  19931345.2884   19931351.7354
  17984283.640   -16971664.49349 -13210107.16949  17984284.8374   17984290.1874
  16123015.423   -37590298.78849 -29271912.34449  16123015.3954   16123019.7434
  19077774.030   -31875207.053 9 -24816806.116 9  19077775.270    19077780.269
  17941728.858   -34646446.26649 -26634059.10649  17941730.0874   17941735.3184
  18319585.814   -28513483.80249 -22190450.38649  18319586.2474   18319591.0684
 96  2  9 20  4 29.9860000  0  8 16 19  2 29 18 28 31 27
  20265180.587   -12407877.41949  -9649313.05849  20265180.9714   20265187.8244
  16514609.267   -43094873.90349 -32892045.04649  16514610.0184   16514614.6524
  19901987.318   -15518102.65149 -12071137.37849  19901988.1074   19901995.1014
  17987084.077   -16956950.77949 -13198641.98449  17987085.1414   17987090.3524
  16115995.359   -37627184.62649 -29300654.56249  16115996.5904   16116001.0014
  19068558.878   -31923646.766 9 -24854551.350 9  19068557.525    19068562.778
  17920897.028   -34755921.32349 -26719364.31349  17920898.4184   17920903.7314
  18294319.508   -28646254.58949 -22293908.11049  18294320.8914   18294325.7784
 96  2  9 20  4 59.9860000  0  8 16 19  2 29 18 28 31 27
  20241378.461   -12532955.89149  -9746776.78749  20241380.0614   20241385.0924
  16497647.375   -43184008.59649 -32961500.64249  16497648.4954   16497653.1214
  19872654.270   -15672246.64949 -12191249.55449  19872655.8764   19872662.3454
  17989944.410   -16941922.28549 -13186931.51049  17989944.7364   17989950.0854
  16109070.844   -37663576.50349 -29329011.86749  16109071.3584   16109075.7444
  19059444.153   -31971545.731 9 -24891875.220 9  19059442.992    19059448.017
  17900160.215   -34864906.25049 -26804287.59549  17900159.0414   17900163.6424
  18269065.493   -28778966.76149 -22397320.16349  18269067.0374   18269071.2534
 96  2  9 20  5 29.9860000  0  8 16 19  2 29 18 28 31 27
  20217660.815   -12657590.66349  -9843894.77549  20217662.0044   20217668.8574
  16480729.525   -43272912.51349 -33030776.42449  16480730.5194   16480734.9174
  19843355.901   -15826220.66949 -12311229.29349  19843355.5104   19843361.7644
  17992865.265   -16926565.06949 -13174964.89249  17992867.6554   17992872.4394
  16102243.948   -37699446.94449 -29356962.86549  16102245.2054   16102249.7024
  19050438.751   -32018874.438 9 -24928754.740 9  19050436.608    19050441.577
  17879518.126   -34973371.24949 -26888805.73849  17879519.1474   17879524.0024
  18243829.059   -28911584.75049 -22500658.83149  18243830.1704   18243835.0954
 96  2  9 20  5 59.9860000  0  8 16 19  2 29 18 28 31 27
  20194026.998   -12781792.22349  -9940675.19449  20194027.4564   20194033.0074
  16463855.812   -43361583.99949 -33099871.08049  16463856.9824   16463861.4274
  19814089.926   -15980010.34249 -12431065.39449  19814089.9524   19814096.2524
  17995847.544   -16910901.49149 -13162759.54549  17995848.0824   17995853.2794
  16095515.041   -37734814.21549 -29384521.77549  16095515.0174   16095519.5394
  19041538.425   -32065638.573 9 -24965194.315 9  19041537.462    19041542.184
  17858974.083   -35081329.95049 -26972929.35549  17858975.4354   17858979.7714
  18218610.818   -29044109.86049 -22603925.11749  18218611.1014   18218616.0004
 96  2  9 20  6 29.9860000  0  8 16 19  2 29 18 28 31 27
  20170471.591   -12905563.23649 -10037120.10849  20170475.0754   20170480.1974
  16447024.620   -43450032.99149 -33168792.36749  16447025.6184   16447030.1294
  19784861.112   -16133611.45249 -12550754.55249  19784860.6944   19784867.3754
  17998884.706   -16894939.50149 -13150321.67249  17998885.8644   17998890.1514
  16088879.911   -37769681.24149 -29411690.88149  16088880.2934   16088884.6354
  19032749.135   -32111842.706 9 -25001197.519 9  19032745.094    19032749.759
  17838530.457   -35188769.08849 -27056648.10949  17838529.8214   17838534.9894
  18193408.667   -29176547.06249 -22707122.91149  18193409.4554   18193414.2114
 96  2  9 20  6 59.9860000  0  8 16 19  2 29 18 28 31 27
  20147002.435   -13028900.15149 -10133226.76649  20147003.3514   20147010.8694
  16430230.885   -43538283.55649 -33237559.03849  16430232.0464   16430236.5534
  19755665.510   -16287025.67149 -12670298.07949  19755667.4134   19755672.3534
  18001976.588   -16878686.03549 -13137656.67549  18001978.2764   18001983.5294
  16082340.461   -37804046.85949 -29438469.29149  16082340.6594   16082345.0794
  19024061.285   -32157492.793 9 -25036769.003 9  19024057.883    19024062.913
  17818186.931   -35295668.86549 -27139946.58949  17818187.3464   17818192.6274
  18168224.454   -29308890.38849 -22810247.55149  18168225.2044   18168230.3754
 96  2  9 20  7 29.9860000  0  8 16 19  2 29 18 28 31 27
  20123610.290   -13151827.17049 -10229014.02449  20123610.3784   20123617.5344
  16413470.278   -43626362.42549 -33306191.91549  16413471.0424   16413475.7644
  19726504.082   -16440282.10949 -12789718.68149  19726503.4264   19726509.1584
  18005121.218   -16862166.41349 -13124784.28549  18005121.8004   18005126.7004
  16075887.290   -37837958.45449 -29464893.91649  16075887.7344   16075892.0584
  19015471.027   -32202623.800 9 -25071936.012 9  19015469.970    19015475.052
  17797938.695   -35402064.80949 -27222852.47949  17797940.7664   17797946.2274
  18143054.053   -29441160.10749 -22913314.84149  18143055.1204   18143060.0464
 96  2  9 20  7 59.9860000  0  8 16 19  2 29 18 28 31 27
  20100313.730   -13274257.24849 -10324414.05349  20100313.1774   20100319.6684
  16396757.626   -43714187.12649 -33374626.74049  16396758.5654   16396763.2544
  19697384.840   -16593299.28549 -12908952.82649  19697385.6174   19697391.0534
  18008334.791   -16845281.82149 -13111627.49749  18008335.1154   18008339.3224
  16069536.257   -37871333.68049 -29490900.59449  16069536.3184   16069540.8564
  19006994.943   -32247157.965 9 -25106637.954 9  19006995.183    19007000.561
  17777804.707   -35507878.36949 -27305304.55149  17777805.3114   17777810.2674
  18117912.069   -29573281.28649 -23016266.39049  18117913.6144   18117918.1824
 96  2  9 20  8 29.9850000  0  8 16 19  2 29 18 28 31 27
  20077098.329   -13396252.49649 -10419475.25749  20077098.8124   20077105.6954
  16380079.258   -43801830.94749 -33442920.62149  16380080.6184   16380085.4534
  19668297.717   -16746153.26749 -13028059.81649  19668297.8564   19668304.1614
  18011609.155   -16828083.28849 -13098226.08849  18011608.1724   18011613.2804
  16063274.125   -37904236.72949 -29516539.34349  16063274.8304   16063279.6874
  18998617.676   -32291170.593 9 -25140933.505 9  18998620.054    18998625.390
  17757761.884   -35613194.98749 -27387369.39749  17757764.0174   17757769.5214
  18092786.742   -29705316.27049 -23119150.77649  18092787.7354   18092793.0304
 96  2  9 20  8 59.9850000  0  8 16 19  2 29 18 28 31 27
  20053975.129   -13517761.63749 -10514157.69249  20053975.5304   20053984.0054
  16363446.401   -43889241.03449 -33511032.38049  16363446.9544   16363451.6784
  19639251.480   -16898788.46449 -13146996.30149  19639252.6314   19639259.7204
  18014953.290   -16810505.74549 -13084529.34349  18014952.3284   18014957.7224
  16057112.399   -37936621.13149 -29541773.95149  16057112.4764   16057117.2014
  18990352.550   -32334605.070 9 -25174778.562 9  18990354.964    18990359.502
  17737823.107   -35717974.16849 -27469015.47749  17737824.8014   17737829.9594
  18067688.697   -29837206.04349 -23221922.01049  18067690.1684   18067695.2634
 96  2  9 20  9 29.9850000  0  8 16 19  2 29 18 28 31 27
  20030943.666   -13638794.72549 -10608469.16649  20030944.1904   20030950.7954
  16346854.573   -43976426.96949 -33578969.47049  16346855.9474   16346860.7854
  19610247.757   -17051217.43849 -13265772.10249  19610246.7214   19610252.8714
  18018367.003   -16792558.01849 -13070544.14549  18018368.0554   18018373.1404
  16051045.127   -37968502.27749 -29566616.41349  16051045.7774   16051050.3694
  18982195.141   -32377478.321 9 -25208186.293 9  18982196.374    18982200.868
  17717980.904   -35822245.66449 -27550265.95549  17717982.5234   17717988.1244
  18042615.140   -29968971.73649 -23324596.56249  18042615.9794   18042620.9824
 96  2  9 20  9 59.9850000  0  8 16 19  2 29 18 28 31 27
  20007995.392   -13759386.42049 -10702436.70749  20007996.4674   20008003.0594
  16330296.450   -44063438.50249 -33646770.66349  16330298.1374   16330302.9704
  19581269.990   -17203483.62549 -13384421.05249  19581270.2424   19581276.8694
  18021844.713   -16774283.18349 -13056304.05349  18021845.7544   18021850.9234
  16045070.478   -37999900.71649 -29591082.74549  16045071.1144   16045075.5054
  18974137.312   -32419830.137 9 -25241187.712 9  18974136.940    18974141.751
  17698230.312   -35926046.02849 -27631149.31249  17698230.6874   17698235.5544
  18017554.188   -30100667.97449 -23427216.99149  18017554.9364   18017560.0234
 96  2  9 20 10 29.9850000  0  8 16 19  2 29 18 28 31 27
  19985136.440   -13879512.29749 -10796041.26949  19985136.9284   19985142.7904
  16313775.872   -44150261.52649 -33714424.96249  16313776.3664   16313781.2524
  19552328.133   -17355581.40449 -13502938.76449  19552328.6644   19552334.1024
  18025386.743   -16755674.03649 -13041803.45249  18025387.0684   18025391.4054
  16039188.335   -38030811.36549 -29615168.96849  16039189.0394   16039193.4174
  18966181.165   -32461644.624 9 -25273770.438 9  18966180.100    18966185.084
  17678572.289   -36029344.92249 -27711641.91849  17678573.2114   17678577.9454
  17992508.267   -30232280.27349 -23529772.01049  17992509.5844   17992514.8884
 96  2  9 20 10 59.9850000  0  8 16 19  2 29 18 28 31 27
  19962369.087   -13999154.17549 -10889268.69449  19962370.4234   19962375.2204
  16297295.067   -44236864.94349 -33781908.14649  16297296.0114   16297301.2444
  19523419.285   -17507496.67749 -13621314.26349  19523419.2034   19523425.8464
  18028991.209   -16736733.90949 -13027044.95449  18028991.4704   18028996.4264
  16033401.521   -38061222.47949 -29638865.96049  16033401.9704   16033406.3784
  18958329.094   -32502903.786 9 -25305920.455 9  18958329.250    18958333.762
  17659020.350   -36132091.91149 -27791704.46449  17659021.3634   17659025.9134
  17967481.810   -30363797.71749 -23632253.11949  17967482.6784   17967488.0644
 96  2  9 20 11 29.9850000  0  8 16 19  2 29 18 28 31 27
  19939690.884   -14118333.05149 -10982135.32849  19939691.0244   19939696.6844
  16280850.000   -44323281.73249 -33849245.90349  16280851.4474   16280856.4494
  19494537.422   -17659265.52549 -13739575.66749  19494538.1784   19494544.5304
  18032651.824   -16717495.78149 -13012054.24949  18032651.5564   18032657.1344
  16027707.617   -38091144.71049 -29662181.99449  16027708.1594   16027712.5194
  18950578.676   -32543640.309 9 -25337663.220 9  18950577.216    18950581.783
  17639571.692   -36234303.88249 -27871350.12049  17639570.4404   17639576.1814
  17942467.736   -30495250.39349 -23734683.75949  17942467.7074   17942473.4514
 96  2  9 20 11 59.9850000  0  8 16 19  2 29 18 28 31 27
  19917112.823   -14236988.41749 -11074594.05049  19917112.3524   19917118.6224
  16264453.473   -44409447.57349 -33916388.11349  16264454.7304   16264459.7624
  19465695.826   -17810824.36849 -13857673.42549  19465697.1424   19465703.9324
  18036377.532   -16697913.76649 -12996795.57649  18036378.4694   18036383.7054
  16022118.295   -38120516.08849 -29685068.79349  16022118.7964   16022122.9434
  18942937.858   -32583787.599 9 -25368946.843 9  18942937.264    18942942.223
  17620236.546   -36335899.21149 -27950515.27549  17620238.0744   17620243.1654
  17917479.605   -30626564.10449 -23837006.11549  17917480.2644   17917485.1784
 96  2  9 20 12 29.9850000  0  8 16 19  2 29 18 28 31 27
  19894620.557   -14355180.06349 -11166691.42049  19894621.1804   19894626.9014
  16248096.386   -44495406.78849 -33983369.31949  16248097.0914   16248102.1674
  19436889.831   -17962207.59749 -13975634.36449  19436890.2684   19436896.4844
  18040159.151   -16678043.19249 -12981312.04849  18040159.8384   18040164.8514
  16016623.602   -38149390.57049 -29707568.40449  16016624.3154   16016628.6604
  18935400.531   -32623392.251 9 -25399807.641 9  18935400.586    18935405.466
  17601013.889   -36436917.65749 -28029230.92049  17601014.3374   17601019.5794
  17892510.863   -30757771.70049 -23939245.78449  17892512.0524   17892517.2934
 96  2  9 20 12 59.9850000  0  8 16 19  2 29 18 28 31 27
  19872213.056   -14472930.42249 -11258444.94449  19872213.9554   19872221.0564
  16231772.821   -44581187.03049 -34050211.06149  16231773.6924   16231778.8324
  19408115.009   -18113416.61449 -14093459.53049  19408116.1344   19408122.4544
  18043988.868   -16657920.03349 -12965631.69549  18043988.8074   18043994.5434
  16011221.011   -38177783.27549 -29729692.60249  16011221.3364   16011225.6784
  18927963.572   -32662477.105 9 -25430263.389 9  18927962.925    18927968.325
  17581893.136   -36537397.25149 -28107526.67849  17581894.3894   17581899.2894
  17867557.702   -30888899.20449 -24041423.04149  17867559.0554   17867564.3524
 96  2  9 20 13 29.9850000  0  8 16 19  2 29 18 28 31 27
  19849893.434   -14590220.90149 -11349840.11349  19849894.2914   19849900.4844
  16215483.504   -44666788.49849 -34116913.50049  16215484.3204   16215489.1974
  19379379.341   -18264424.27349 -14211127.80249  19379379.9984   19379387.3764
  18047870.819   -16637516.92249 -12949733.20649  18047871.7324   18047877.2254
  16005913.703   -38205671.39249 -29751423.61549  16005914.2044   16005918.7484
  18920625.488   -32701025.080 9 -25460300.803 9  18920627.348    18920632.552
  17562873.479   -36637348.22049 -28185410.51549  17562873.7024   17562879.4564
  17842621.876   -31019939.48449 -24143532.33249  17842622.9854   17842627.7004
 96  2  9 20 13 59.9850000  0  8 16 19  2 29 18 28 31 27
  19827658.087   -14707064.43649 -11440887.00749  19827659.3434   19827666.4464
  16199230.370   -44752198.73749 -34183466.93049  16199231.3234   16199236.3074
  19350681.031   -18415234.47549 -14328642.21449  19350681.6234   19350688.3524
  18051804.975   -16616829.33449 -12933613.04249  18051808.0094   18051814.1154
  16000699.011   -38233075.66749 -29772777.60749  16000699.3134   16000703.9794
  18913392.626   -32739037.536 9 -25489920.913 9  18913393.961    18913398.658
  17543951.858   -36736776.51949 -28262887.07849  17543953.4774   17543958.4914
  17817700.742   -31150905.45149 -24245583.71849  17817700.9774   17817705.9944
 96  2  9 20 14 29.9850000  0  8 16 19  2 29 18 28 31 27
  19805513.886   -14823438.61549 -11531568.18349  19805513.8124   19805520.3124
  16183017.253   -44837402.14449 -34249859.19649  16183017.8014   16183022.4644
  19322024.992   -18565832.80249 -14445991.53649  19322024.5074   19322030.1924
  18055802.253   -16595835.67449 -12917254.38549  18055802.6484   18055808.2164
  15995577.556   -38259988.41949 -29793748.60049  15995577.9144   15995582.4134
  18906265.461   -32776505.431 9 -25519116.686 9  18906264.202    18906268.687
  17525133.435   -36835675.62849 -28339951.29949  17525133.3634   17525137.7974
  17792795.543   -31281782.89949 -24347566.12849  17792795.5884   17792800.1214
 96  2  9 20 14 59.9850000  0  8 16 19  2 29 18 28 31 27
  19783463.966   -14939308.84949 -11621856.66949  19783465.6404   19783470.3534
  16166848.118   -44922369.80249 -34316067.75949  16166849.0454   16166853.9264
  19293410.299   -18716196.65249 -14563158.14449  19293411.3374   19293417.4124
  18059859.655   -16574506.86149 -12900634.56449  18059861.6474   18059867.3904
  15990553.073   -38286388.88549 -29814320.40249  15990554.1784   15990558.6524
  18899240.482   -32813403.446 9 -25547868.394 9  18899242.900    18899247.534
  17506417.230   -36934024.47149 -28416586.73449  17506418.4964   17506423.2084
  17767913.747   -31412538.38049 -24449453.50149  17767913.6644   17767918.7964
 96  2  9 20 15 29.9850000  0  8 16 19  2 29 18 28 31 27
  19761507.289   -15054694.34249 -11711767.44949  19761508.1414   19761514.3944
  16150721.759   -45007117.69749 -34382105.07949  16150721.8724   16150726.6894
  19264834.365   -18866364.33949 -14680171.90249  19264834.8874   19264841.1464
  18063982.861   -16552848.95249 -12883758.30149  18063983.6534   18063988.5004
  15985625.101   -38312286.61949 -29834500.46649  15985625.8314   15985630.5024
  18892324.391   -32849747.150 9 -25576188.171 9  18892327.056    18892331.909
  17487807.923   -37031820.17449 -28492791.15349  17487808.3644   17487812.8784
  17743052.715   -31543181.61149 -24551253.41049  17743052.9804   17743058.2904
 96  2  9 20 15 59.9850000  0  8 16 19  2 29 18 28 31 27
  19739642.167   -15169604.99249 -11801308.20549  19739641.3994   19739646.5354
  16134634.226   -45091656.05249 -34447979.12549  16134634.7264   16134639.2614
  19236292.764   -19016350.59849 -14797044.29549  19236293.8044   19236299.7644
  18068158.954   -16530899.01349 -12866654.49049  18068161.1434   18068165.3224
  15980787.964   -38337710.17949 -29854311.04349  15980788.1034   15980792.2404
  18885513.815   -32885553.496 9 -25604089.225 9  18885513.050    18885518.248
  17469303.646   -37129061.07549 -28568563.25549  17469304.2234   17469308.7874
  17718212.241   -31673718.04849 -24652970.10049  17718213.1654   17718218.1864
 96  2  9 20 16 29.9850000  0  8 16 19  2 29 18 28 31 27
  19717869.178   -15284023.02649 -11890465.11449  19717869.6694   19717875.5584
  16118584.277   -45175996.60149 -34513699.03049  16118585.3194   16118590.1454
  19207789.071   -19166133.25449 -14913758.03549  19207790.1614   19207796.5754
  18072389.149   -16508671.17149 -12849334.12349  18072390.4094   18072395.2974
  15976041.932   -38362647.83049 -29873742.99149  15976042.3504   15976046.8894
  18878800.577   -32920818.381 9 -25631568.361 9  18878802.462    18878807.523
  17450903.362   -37225749.92449 -28643905.19349  17450904.8804   17450909.8104
  17693394.265   -31804134.18649 -24754593.05249  17693395.3374   17693399.8754
 96  2  9 20 16 59.9850000  0  8 16 19  2 29 18 28 31 27
  19696200.363   -15397884.24649 -11979188.14049  19696200.8034   19696207.5104
  16102584.315   -45260074.53349 -34579214.30449  16102585.5654   16102590.6114
  19179337.588   -19315660.35949 -15030272.63949  19179336.0914   19179342.8824
  18076681.705   -16486114.98849 -12831757.91349  18076683.4334   18076687.9094
  15971401.570   -38387033.35049 -29892744.70749  15971401.9344   15971406.7144
  18872205.418   -32955482.333 9 -25658579.229 9  18872206.451    18872211.215
  17432620.457   -37321832.96149 -28718775.07349  17432621.0214   17432625.6744
  17668608.747   -31934384.74049 -24856086.98149  17668609.5064   17668614.3054
 96  2  9 20 17 29.9850000  0  8 16 19  2 29 18 28 31 27
  19674625.247   -15511261.02149 -12067533.67449  19674626.6234   19674632.5194
  16086619.510   -45343972.42149 -34644589.28349  16086620.3854   16086625.4584
  19150910.296   -19465031.85949 -15146665.98449  19150911.9484   19150918.0594
  18081018.283   -16463329.79149 -12814003.23449  18081019.0094   18081023.5934
  15966848.110   -38410960.94349 -29911389.59649  15966848.9224   15966853.2794
  18865706.495   -32989634.569 9 -25685191.359 9  18865707.480    18865712.072
  17414436.074   -37417391.95049 -28793236.59449  17414436.8854   17414441.5864
  17643834.500   -32064573.84549 -24957533.01949  17643835.7724   17643840.2744
 96  2  9 20 17 59.9850000  0  8 16 19  2 29 18 28 31 27
  19653152.720   -15624109.56449 -12155467.59549  19653150.4504   19653157.3234
  16070698.403   -45427638.81649 -34709783.87849  16070699.1884   16070704.4584
  19122528.170   -19614189.66149 -15262892.82249  19122528.0374   19122534.7854
  18085407.645   -16440271.61049 -12796035.85849  18085407.1894   18085412.0784
  15962386.338   -38434405.54149 -29929658.12649  15962387.4824   15962391.7744
  18859310.483   -33023236.116 9 -25711374.383 9  18859312.994    18859317.753
  17396356.332   -37512404.74949 -28867272.51649  17396356.8694   17396361.3134
  17619081.439   -32194651.99149 -25058892.60349  17619082.8984   17619087.4724
 96  2  9 20 18 29.9850000  0  8 16 19  2 29 18 28 31 27
  19631780.573   -15736408.53449 -12242973.26549  19631780.9414   19631788.0074
  16054827.501   -45511041.77449 -34774773.19649  16054828.0454   16054833.3804
  19094188.047   -19763110.38749 -15378934.91349  19094188.9824   19094195.9164
  18089854.654   -16416894.28149 -12777819.78749  18089855.6044   18089860.2524
  15958025.453   -38457325.90049 -29947518.15849  15958025.9554   15958030.5184
  18853031.939   -33056258.117 9 -25737105.795 9  18853029.344    18853034.169
  17378386.133   -37606843.27449 -28940860.96249  17378385.1624   17378389.8744
  17594356.728   -32324581.36349 -25160136.26249  17594357.8984   17594362.7044
 96  2  9 20 18 59.9850000  0  8 16 19  2 29 18 28 31 27
  19610506.449   -15848211.73449 -12330092.64349  19610506.9324   19610512.6554
  16038999.876   -45594213.43449 -34839582.28249  16039000.9114   16039006.2374
  19065886.129   -19911849.93249 -15494835.81949  19065886.0784   19065891.2374
  18094359.419   -16393224.28349 -12759375.66449  18094359.7524   18094365.0944
  15953755.293   -38479766.23149 -29965004.14149  15953755.5644   15953759.9734
  18846846.605   -33088743.262 9 -25762418.896 9  18846848.081    18846852.319
  17360517.278   -37700734.22849 -29014022.73149  17360518.5874   17360523.2284
  17569651.488   -32454412.10249 -25261303.05849  17569651.5834   17569656.5064
 96  2  9 20 19 29.9850000  0  8 16 19  2 29 18 28 31 27
  19589331.768   -15959488.98149 -12416802.19649  19589330.6384   19589337.5134
  16023223.715   -45677118.48149 -34904183.62149  16023224.8084   16023229.8684
  19037626.467   -20060345.73049 -15610546.79749  19037628.1514   19037634.4804
  18098928.099   -16369202.93849 -12740657.77149  18098930.8824   18098936.1794
  15949584.077   -38501683.82449 -29982082.79749  15949584.7474   15949589.0904
  18840774.688   -33120649.322 9 -25787280.764 9  18840775.706    18840780.814
  17342766.097   -37794019.30049 -29086712.38949  17342767.2064   17342771.2934
  17544971.804   -32584097.15349 -25362356.33149  17544973.6934   17544978.5794
 96  2  9 20 19 59.9850000  0  8 16 19  2 29 18 28 31 27
  19568243.767   -16070306.78049 -12503153.72849  19568243.4414   19568249.3984
  16007487.080   -45759816.10349 -34968623.33249  16007487.8214   16007492.9274
  19009409.139   -20208629.57749 -15726092.62349  19009409.8594   19009416.4424
  18103561.176   -16344863.74449 -12721692.20649  18103562.7834   18103567.6954
  15945506.894   -38523111.72049 -29998779.87149  15945507.4494   15945511.8094
  18834805.581   -33152027.351 9 -25811731.189 9  18834804.076    18834809.903
  17325121.111   -37886745.59849 -29158966.63149  17325121.6054   17325125.8214
  17520314.056   -32713677.16549 -25463327.74949  17520315.6124   17520320.3764
 96  2  9 20 20 29.9840000  0  8 16 19  2 29 18 28 31 27
  19547253.585   -16180605.32349 -12589100.64749  19547254.2224   19547260.4014
  15991797.458   -45842266.07449 -35032870.06549  15991798.3984   15991803.3584
  18981239.804   -20356655.80349 -15841437.68849  18981241.5564   18981247.2814
  18108257.967   -16320179.58449 -12702457.83349  18108259.9044   18108264.5364
  15941533.706   -38543994.80749 -30015052.42549  15941533.3254   15941537.7994
  18828942.922   -33182832.909 9 -25835735.545 9  18828942.468    18828947.526
  17307595.324   -37978843.41249 -29230731.14749  17307595.5024   17307600.2954
  17495683.600   -32843118.65049 -25564191.23149  17495683.3454   17495687.9764
 96  2  9 20 20 59.9840000  0  8 16 19  2 29 18 28 31 27
  19526358.923   -16290401.96249 -12674656.45749  19526359.8564   19526367.2484
  15976149.665   -45924496.04649 -35096945.37249  15976150.3004   15976155.5314
  18953114.810   -20504455.65449 -15956606.37949  18953115.2734   18953122.1744
  18113014.818   -16295185.39649 -12682981.88049  18113015.6424   18113022.0284
  15937657.299   -38564361.57849 -30030922.64849  15937657.8614   15937662.2794
  18823184.703   -33213091.253 9 -25859313.484 9  18823185.022    18823189.409
  17290184.950   -38070333.41249 -29302022.03849  17290185.4754   17290190.6074
  17471070.243   -32972457.50849 -25664974.74649  17471070.7394   17471076.1584
 96  2  9 20 21 29.9840000  0  8 16 19  2 29 18 28 31 27
  19505560.285   -16399705.71349 -12759828.20049  19505559.6684   19505567.5224
  15960540.089   -46006523.89549 -35160863.17849  15960541.0874   15960546.1254
  18925031.959   -20652036.95949 -16071604.76649  18925032.3114   18925039.1254
  18117824.873   -16269913.46749 -12663289.50449  18117825.0544   18117830.5604
  15933879.579   -38584213.68349 -30046391.84049  15933880.0524   15933884.4744
  18817524.871   -33242816.854 9 -25882476.306 9  18817528.577    18817532.930
  17272888.629   -38161229.50949 -29372850.14649  17272888.5154   17272893.3574
  17446477.941   -33101687.02349 -25765673.05249  17446479.7974   17446484.7244
 96  2  9 20 21 59.9840000  0  8 16 19  2 29 18 28 31 27
  19484859.829   -16508487.36349 -12844593.10449  19484859.1204   19484867.1874
  15944972.371   -46088331.62649 -35224609.46549  15944973.6364   15944978.6854
  18896990.440   -20799395.34949 -16186429.45249  18896990.4164   18896997.5924
  18122687.281   -16244358.32549 -12643376.43249  18122688.2324   18122692.8194
  15930203.702   -38603529.38349 -30061443.04549  15930204.4854   15930208.7584
  18811980.253   -33271988.679 9 -25905207.595 9  18811976.807    18811981.754
  17255706.506   -38251516.82949 -29443203.88749  17255707.3424   17255712.2694
  17421913.346   -33230776.92149 -25866262.56549  17421914.0824   17421919.6314
 96  2  9 20 22 29.9840000  0  8 16 19  2 29 18 28 31 27
  19464261.847   -16616735.27649 -12928942.12149  19464261.3544   19464267.4354
  15929449.495   -46169907.08849 -35288174.76349  15929450.4494   15929455.3594
  18868992.288   -20946527.62149 -16301077.94549  18868992.5124   18868998.6034
  18127602.986   -16218523.49749 -12623245.42749  18127604.1694   18127609.7594
  15926631.679   -38622305.20149 -30076073.56949  15926631.7424   15926636.0794
  18806529.656   -33300597.282 9 -25927500.046 9  18806532.401    18806537.933
  17238645.136   -38341185.47549 -29513075.55149  17238644.3584   17238649.1684
  17397377.612   -33359714.02149 -25966733.03049  17397378.4224   17397383.6504
 96  2  9 20 22 59.9840000  0  8 16 19  2 29 18 28 31 27
  19443747.928   -16724534.70349 -13012941.68049  19443747.5504   19443753.4004
  15913957.183   -46251318.76049 -35351612.42449  15913958.5174   15913963.0194
  18841025.312   -21093492.54849 -16415596.04649  18841025.9934   18841031.9924
  18132561.152   -16192460.81749 -12602936.88249  18132563.8594   18132568.9034
  15923149.767   -38640600.62349 -30090329.75549  15923150.1664   15923154.5444
  18801185.095   -33328707.369 9 -25949404.015 9  18801183.797    18801188.885
  17221683.626   -38430310.20849 -29582523.37249  17221684.6724   17221688.8254
  17372860.354   -33488550.47949 -26067125.05949  17372861.8724   17372866.8034
 96  2  9 20 23 29.9840000  0  8 16 19  2 29 18 28 31 27
  19423347.974   -16831737.18449 -13096476.09049  19423347.4554   19423354.6244
  15898524.749   -46332421.66249 -35414809.49149  15898525.5024   15898529.9094
  18813120.995   -21240127.76949 -16529857.23449  18813122.0884   18813128.0484
  18137595.191   -16166014.33449 -12582329.27349  18137596.8704   18137602.0494
  15919785.384   -38658278.66749 -30104104.87049  15919786.0114   15919790.7054
  18795955.692   -33356171.589 9 -25970804.725 9  18795957.687    18795962.498
  17204854.881   -38518748.11249 -29651436.02249  17204855.3264   17204859.9924
  17348390.744   -33617143.06949 -26167327.06249  17348391.4394   17348396.0204
 96  2  9 20 23 59.9840000  0  8 16 19  2 29 18 28 31 27
  19403029.078   -16938511.80649 -13179677.11249  19403028.8374   19403036.6944
  15883115.752   -46413392.32649 -35477903.51749  15883116.6894   15883121.1274
  18785246.989   -21386609.42449 -16643998.76349  18785247.5964   18785254.3904
  18142665.107   -16139362.14549 -12561561.36849  18142668.2164   18142673.4334
  15916499.662   -38675549.61749 -30117562.77549  15916499.6384   15916504.4214
  18790823.017   -33383176.398 9 -25991847.436 9  18790818.702    18790823.599
  17188122.303   -38606678.25849 -29719953.01049  17188123.1534   17188127.4644
  17323928.454   -33745691.47349 -26267494.63949  17323929.1644   17323934.0624
 96  2  9 20 24 29.9840000  0  8 16 19  2 29 18 28 31 27
  19382808.085   -17044776.04449 -13262480.41649  19382807.9394   19382814.1394
  15867751.538   -46494135.70449 -35540820.43149  15867751.8354   15867756.7204
  18757420.136   -21532845.93549 -16757949.26349  18757419.3484   18757426.0924
  18147791.094   -16112427.14749 -12540573.10449  18147794.0194   18147798.5804
  15913303.058   -38692343.59849 -30130649.00549  15913303.9034   15913308.5594
  18785778.552   -33409641.573 9 -26012469.685 9  18785782.613    18785787.475
  17171504.073   -38694015.81949 -29788008.25149  17171503.3724   17171507.8064
  17299489.285   -33874127.42649 -26367574.59249  17299489.0874   17299493.6274
 96  2  9 20 24 59.9840000  0  8 16 19  2 29 18 28 31 27
  19362685.688   -17150513.47349 -13344873.21549  19362686.8574   19362693.1484
  15852432.146   -46574634.19849 -35603546.52749  15852433.5224   15852438.3244
  18729638.741   -21678831.94449 -16871704.57349  18729639.4284   18729646.4194
  18152974.491   -16085198.31849 -12519355.87749  18152975.8544   18152980.5644
  15910197.544   -38708661.67049 -30143364.40349  15910198.2184   15910203.1494
  18780851.673   -33435558.178 9 -26032664.444 9  18780851.403    18780856.065
  17154998.729   -38780748.29849 -29855592.00149  17154998.3924   17155002.6994
  17275069.206   -34002452.13949 -26467567.86549  17275069.1424   17275074.4134
 96  2  9 20 25 29.9840000  0  8 16 19  2 29 18 28 31 27
  19342660.278   -17255748.41649 -13426874.45949  19342661.3634   19342666.7764
  15837154.741   -46654920.00849 -35666106.89849  15837155.4514   15837160.6244
  18701897.745   -21824611.74649 -16985299.19649  18701898.4484   18701905.0504
  18158203.912   -16057720.88749 -12497944.93149  18158204.0264   18158209.6094
  15907171.955   -38724558.18249 -30155751.31449  15907173.4894   15907178.0784
  18776016.021   -33460966.260 9 -26052462.975 9  18776016.296    18776020.970
  17138601.622   -38866912.29449 -29922732.77149  17138601.8504   17138606.6694
  17250660.839   -34130712.21649 -26567510.76449  17250662.2824   17250667.1124
 96  2  9 20 25 59.9840000  0  8 16 19  2 29 18 28 31 27
  19322738.335   -17360437.00549 -13508449.97449  19322738.8704   19322745.7464
  15821927.395   -46734937.08849 -35728457.87349  15821928.7344   15821933.9464
  18674202.194   -21970147.32649 -17098703.50349  18674203.6604   18674210.3274
  18163487.427   -16029941.87449 -12476299.00049  18163490.1244   18163495.9784
  15904242.101   -38739964.34849 -30167756.13549  15904241.8684   15904246.4804
  18771286.989   -33485815.721 9 -26071826.231 9  18771287.166    18771292.117
  17122323.574   -38952452.59249 -29989387.54949  17122324.3934   17122328.9834
  17226277.068   -34258849.69149 -26667358.14049  17226278.8614   17226283.5004
 96  2  9 20 26 29.9840000  0  8 16 19  2 29 18 28 31 27
  19302909.183   -17464645.69049 -13589651.54249  19302908.6964   19302916.6074
  15806740.171   -46814748.90349 -35790648.89949  15806741.0234   15806746.3414
  18646544.803   -22115491.60049 -17211958.75549  18646545.7574   18646551.2644
  18168823.296   -16001913.35549 -12454458.63049  18168823.3834   18168828.6054
  15901395.233   -38754916.28849 -30179407.01549  15901396.6394   15901401.4414
  18766654.254   -33510160.134 9 -26090795.924 9  18766654.289    18766659.350
  17106154.203   -39037422.91549 -30055598.18549  17106154.8834   17106159.7414
  17201910.036   -34386901.62749 -26767138.85849  17201910.8884   17201915.8614
 96  2  9 20 26 59.9840000  0  8 16 19  2 29 18 28 31 27
  19283177.318   -17568330.03449 -13670444.54749  19283179.2014   19283185.6774
  15791597.394   -46894322.66849 -35852654.43149  15791598.5454   15791603.8224
  18618931.980   -22260597.73049 -17325028.43949  18618932.2824   18618939.0604
  18174213.104   -15973588.79049 -12432387.58849  18174214.6324   18174218.8464
  15898646.606   -38769364.89149 -30190665.68749  15898647.1534   15898651.8344
  18762124.148   -33533960.223 9 -26109341.479 9  18762125.453    18762130.608
  17090101.737   -39121775.43849 -30121327.42549  17090102.9934   17090107.5714
  17177568.759   -34514812.92249 -26866809.98649  17177570.4354   17177575.2474
 96  2  9 20 27 29.9840000  0  8 16 19  2 29 18 28 31 27
  19263548.314   -17671484.51349 -13750824.66649  19263548.8604   19263555.1754
  15776500.287   -46973659.96349 -35914475.70449  15776501.1154   15776506.3974
  18591366.883   -22405450.63249 -17437900.80649  18591368.6854   18591373.7564
  18179659.050   -15944972.47349 -12410089.21249  18179659.8854   18179664.2074
  15895994.154   -38783304.68249 -30201527.87649  15895994.6364   15895999.0434
  18757702.378   -33557217.312 9 -26127463.907 9  18757700.522    18757705.265
  17074168.922   -39205502.89149 -30186569.59749  17074169.7824   17074174.7054
  17153256.188   -34642578.58649 -26966367.63349  17153257.1234   17153262.2604
 96  2  9 20 27 59.9840000  0  8 16 19  2 29 18 28 31 27
  19244011.608   -17774147.13749 -13830821.51649  19244013.6354   19244019.6114
  15761440.136   -47052799.00249 -35976142.49049  15761441.5144   15761446.5214
  18563845.932   -22550086.39749 -17550603.97949  18563845.0374   18563851.8094
  18185152.223   -15916106.12149 -12387595.99049  18185153.0084   18185157.5584
  15893433.582   -38796764.28049 -30212015.90249  15893433.2884   15893437.8184
  18753371.541   -33579969.825 9 -26145193.163 9  18753370.671    18753375.386
  17058350.629   -39288634.50849 -30251347.47049  17058350.2334   17058355.0564
  17128964.878   -34770234.33349 -27065839.62649  17128965.2494   17128969.7194
 96  2  9 20 28 29.9840000  0  8 16 19  2 29 18 28 31 27
  19224575.780   -17876284.92949 -13910409.41049  19224577.8874   19224583.8274
  15746422.749   -47131718.48049 -36037638.19249  15746423.8804   15746428.8004
  18536366.614   -22694488.81849 -17663125.31449  18536366.7164   18536372.5714
  18190692.933   -15886986.43549 -12364905.37549  18190694.1584   18190699.1254
  15890964.838   -38809733.91349 -30222122.13149  15890965.3584   15890969.6394
  18749138.783   -33602202.554 9 -26162517.393 9  18749139.389    18749144.535
  17042647.817   -39371150.75649 -30315645.83449  17042647.8554   17042652.6094
  17104696.548   -34897764.36249 -27165213.66149  17104697.2764   17104701.7664
 96  2  9 20 28 59.9840000  0  8 16 19  2 29 18 28 31 27
  19205243.206   -17977879.65649 -13989574.12849  19205245.0804   19205249.1474
  15731450.278   -47210400.10749 -36098948.55349  15731451.3824   15731456.4154
  18508931.996   -22838657.44749 -17775464.47049  18508931.1574   18508937.4044
  18196283.849   -15857610.87949 -12342015.38449  18196283.7204   18196288.5574
  15888589.726   -38822212.40649 -30231845.65249  15888590.6104   15888595.2524
  18745012.993   -33623908.998 9 -26179431.519 9  18745008.903    18745013.980
  17027062.541   -39453050.99049 -30379464.19449  17027062.7634   17027067.6184
  17080451.968   -35025170.09549 -27264490.84349  17080452.8284   17080457.3654
 96  2  9 20 29 29.9840000  0  8 16 19  2 29 18 28 31 27
  19186015.643   -18078923.72649 -14068309.76249  19186016.6774   19186022.7664
  15716524.222   -47288837.27249 -36160068.42349  15716525.3394   15716530.2384
  18481540.855   -22982596.43849 -17887624.68849  18481540.4944   18481546.8464
  18201922.208   -15827970.94549 -12318919.36349  18201924.2714   18201929.0614
  15886310.857   -38834189.43949 -30241178.42049  15886311.5294   15886316.0344
  18740979.130   -33645081.322 9 -26195929.466 9  18740980.158    18740984.772
  17011595.238   -39534333.29149 -30442801.05449  17011594.9044   17011600.8074
  17056232.842   -35152444.53349 -27363665.71849  17056233.1754   17056237.4934
 96  2  9 20 29 59.9840000  0  8 16 19  2 29 18 28 31 27
  19166889.362   -18179435.28149 -14146630.45449  19166889.2954   19166897.0144
  15701642.717   -47367042.28449 -36221007.39549  15701643.4304   15701648.1714
  18454189.579   -23126322.70349 -17999619.14849  18454190.3614   18454196.7554
  18207614.106   -15798068.74549 -12295618.98749  18207615.4874   18207619.7034
  15884125.811   -38845670.88949 -30250125.02549  15884126.5114   15884131.1924
  18737049.578   -33665730.028 9 -26212019.376 9  18737051.177    18737055.884
  16996241.962   -39615017.37849 -30505671.75849  16996241.7094   16996247.0434
  17032037.635   -35279591.49449 -27462741.25649  17032038.1424   17032042.0564
 96  2  9 20 30 29.9840000  0  8 16 19  2 29 18 28 31 27
  19147858.388   -18279436.75549 -14224553.69349  19147859.7194   19147866.2084
  15686800.818   -47445034.38549 -36281780.45949  15686802.0384   15686806.8754
  18426880.072   -23269846.05549 -18111455.50649  18426879.1964   18426885.6504
  18213349.725   -15767922.42149 -12272128.37249  18213351.8014   18213356.3724
  15882031.984   -38856676.03149 -30258700.48349  15882032.4974   15882037.0584
  18733219.986   -33685872.942 9 -26227715.156 9  18733217.976    18733222.698
  16980995.970   -39695131.70849 -30568098.49149  16980996.2974   16981001.9304
  17007863.944   -35406623.18549 -27561726.97949  17007864.8604   17007868.8744
 96  2  9 20 30 59.9840000  0  8 16 19  2 29 18 28 31 27
  19128925.566   -18378929.98949 -14302080.88349  19128926.2214   19128933.4744
  15671999.395   -47522815.60349 -36342389.20449  15672000.6824   15672005.7144
  18399610.647   -23413139.56149 -18223112.74549  18399610.8884   18399617.4344
  18219135.887   -15737512.55249 -12248432.42849  18219138.0974   18219143.7544
  15880029.664   -38867198.22149 -30266899.60849  15880029.9724   15880034.7534
  18729479.567   -33705495.827 9 -26243005.753 9  18729483.430    18729488.686
  16965859.827   -39774670.58949 -30630076.84349  16965860.6914   16965865.4604
  16983714.852   -35533528.02149 -27660613.85449  16983715.5554   16983719.8664
 96  2  9 20 31 29.9840000  0  8 16 19  2 29 18 28 31 27
  19110090.967   -18477907.75949 -14379206.42049  19110091.7294   19110098.2524
  15657239.516   -47600379.04349 -36402828.24849  15657240.9134   15657245.7704
  18372392.760   -23556168.61249 -18334563.90749  18372393.6324   18372400.1544
  18224976.723   -15706829.78149 -12224523.81949  18224976.5034   18224982.2364
  15878120.206   -38877228.02249 -30274715.05449  15878121.6994   15878126.1594
  18725851.750   -33724584.760 9 -26257880.251 9  18725851.240    18725856.687
  16950837.093   -39853618.98049 -30691595.05249  16950837.6014   16950842.3554
  16959594.230   -35660283.49449 -27759384.33449  16959594.9204   16959599.0874
 96  2  9 20 31 59.9840000  0  8 16 19  2 29 18 28 31 27
  19091349.183   -18576394.41849 -14455949.27649  19091350.1874   19091357.5954
  15642519.714   -47677735.57649 -36463106.06449  15642520.5544   15642525.0844
  18345225.023   -23698941.52649 -18445815.49649  18345225.3074   18345230.7284
  18230861.212   -15675905.37749 -12200426.93449  18230862.1554   18230866.4834
  15876299.780   -38886801.54049 -30282174.95749  15876299.9004   15876304.5324
  18722315.007   -33743164.055 9 -26272357.642 9  18722315.975    18722321.124
  16935921.846   -39931995.79249 -30752667.87849  16935922.9794   16935927.7204
  16935497.917   -35786910.50349 -27858054.71149  16935498.4594   16935502.9174
 96  2  9 20 32 29.9830000  0  8 16 19  2 29 18 28 31 27
  19072712.382   -18674335.13349 -14532266.72049  19072713.2134   19072720.1844
  15627847.024   -47754840.94749 -36523188.17849  15627847.8344   15627852.4744
  18318111.038   -23841426.44849 -18556842.68649  18318111.1574   18318117.8974
  18236796.293   -15644719.36549 -12176126.19749  18236796.2834   18236801.2874
  15874570.150   -38895889.51149 -30289256.52249  15874570.5084   15874575.1534
  18718882.316   -33761198.400 9 -26286410.405 9  18718884.380    18718888.793
  16921125.466   -40009757.23749 -30813261.21249  16921125.5114   16921130.7804
  16911433.978   -35913367.61249 -27956592.71049  16911434.7674   16911439.1124
 96  2  9 20 32 59.9830000  0  8 16 19  2 29 18 28 31 27
  19054169.047   -18771785.67449 -14608202.20349  19054168.3104   19054175.5894
  15613212.225   -47831747.82149 -36583115.60649  15613212.9044   15613217.4554
  18291039.256   -23983689.26949 -18667696.80049  18291039.5804   18291045.7754
  18242771.095   -15613321.71149 -12151660.53149  18242770.3294   18242776.2584
  15872922.253   -38904548.37549 -30296003.70449  15872922.9574   15872927.4394
  18715545.009   -33778749.101 9 -26300086.290 9  18715544.234    18715548.652
  16906435.016   -40086951.24849 -30873412.38549  16906436.3054   16906441.6504
  16887389.277   -36039722.76349 -28055051.25649  16887389.6624   16887394.0254
 96  2  9 20 33 29.9830000  0  8 16 19  2 29 18 28 31 27
  19035734.048   -18868657.68449 -14683686.89149  19035734.4294   19035741.2474
  15598633.530   -47908358.87449 -36642812.53149  15598634.5044   15598639.1704
  18264023.393   -24125656.86549 -18778320.87449  18264024.2634   18264030.3144
  18248799.240   -15581638.45049 -12126972.34249  18248800.1424   18248805.7064
  15871373.155   -38912690.66349 -30302348.36549  15871373.2174   15871378.0594
  18712310.273   -33795743.996 9 -26313329.104 9  18712309.853    18712314.662
  16891871.185   -40163490.73649 -30933053.53849  16891870.9524   16891875.3124
  16863377.723   -36165903.47349 -28153373.87849  16863378.4354   16863383.0874
 96  2  9 20 33 59.9830000  0  8 16 19  2 29 18 28 31 27
  19017398.262   -18965005.91149 -14758763.44049  19017400.0384   19017407.3714
  15584099.590   -47984735.33849 -36702326.65949  15584100.5054   15584105.2854
  18237047.618   -24267416.84849 -18888783.17049  18237047.7864   18237054.7244
  18254871.795   -15549730.54149 -12102109.08149  18254871.6804   18254876.5464
  15869910.262   -38920369.74949 -30308332.08949  15869911.8034   15869916.8164
  18709166.936   -33812250.826 9 -26326191.620 9  18709168.842    18709173.877
  16877420.001   -40239429.00149 -30992226.20349  16877420.4194   16877425.0294
  16839384.165   -36291987.60849 -28251621.24549  16839385.3634   16839389.8984
 96  2  9 20 34 29.9830000  0  8 16 19  2 29 18 28 31 27
  18999174.953   -19060774.76949 -14833388.51549  18999175.7134   18999182.0454
  15569617.306   -48060838.35649 -36761627.71449  15569618.6614   15569623.0364
  18210119.620   -24408920.42649 -18999045.67249  18210120.7494   18210126.9294
  18260998.355   -15517536.07449 -12077022.54449  18260998.5084   18261003.9654
  15868551.132   -38927519.65249 -30313903.45949  15868551.3004   15868556.2434
  18706134.489   -33828216.394 9 -26338632.363 9  18706131.237    18706135.972
  16863093.754   -40314712.71849 -31050888.84349  16863094.2504   16863099.4394
  16815419.874   -36417924.55049 -28349753.92449  16815420.1244   16815424.5584
 96  2  9 20 34 59.9830000  0  8 16 19  2 29 18 28 31 27
  18981054.111   -19155995.54449 -14907586.51049  18981055.0824   18981063.8304
  15555183.627   -48136689.42749 -36820732.44549  15555184.6234   15555189.1444
  18183241.525   -24550172.02349 -19109111.83449  18183241.8514   18183247.6354
  18267176.566   -15485062.91049 -12051718.83149  18267177.5664   18267183.5934
  15867286.007   -38934164.64549 -30319081.39849  15867286.9404   15867291.5884
  18703186.465   -33843661.982 9 -26350667.946 9  18703191.762    18703196.603
  16848889.708   -40389356.10049 -31109052.51449  16848890.1794   16848895.3394
  16791478.737   -36543732.97549 -28447786.45949  16791479.6034   16791484.1534
 96  2  9 20 35 29.9830000  0  8 16 19  2 29 18 28 31 27
  18963034.704   -19250691.76949 -14981375.77949  18963035.5914   18963041.7474
  15540791.074   -48212323.40649 -36879668.01749  15540791.9184   15540796.4714
  18156399.748   -24691222.32649 -19219021.14249  18156399.9204   18156406.5764
  18273402.466   -15452351.52649 -12026229.49049  18273402.6144   18273408.0514
  15866109.076   -38940349.99849 -30323901.17649  15866109.9434   15866114.8644
  18700344.910   -33858621.725 9 -26362324.927 9  18700344.739    18700349.563
  16834800.382   -40463394.25549 -31166744.58249  16834801.1344   16834805.8064
  16767558.043   -36669440.80649 -28545740.60949  16767558.4634   16767562.9424
 96  2  9 20 35 59.9830000  0  8 16 19  2 29 18 28 31 27
  18945123.474   -19344822.15349 -15054724.12549  18945124.1604   18945130.3524
  15526447.934   -48287695.28149 -36938399.35249  15526449.1674   15526453.6524
  18129606.560   -24832024.32449 -19328736.96149  18129606.8304   18129612.5644
  18279679.638   -15419361.02949 -12000522.65149  18279680.6214   18279685.3504
  15865025.894   -38946041.12749 -30328335.84349  15865027.1754   15865031.8924
  18697598.132   -33873052.214 9 -26373569.514 9  18697598.377    18697603.405
  16820834.563   -40536784.21149 -31223931.56849  16820836.0224   16820840.1464
  16743667.235   -36794986.19749 -28643568.17249  16743667.9064   16743672.3364
 96  2  9 20 36 29.9830000  0  8 16 19  2 29 18 28 31 27
  18927317.316   -19438395.28049 -15127638.26049  18927317.3224   18927323.7224
  15512153.520   -48362813.73249 -36996933.21749  15512154.7204   15512159.1574
  18102861.179   -24972574.32749 -19438256.42749  18102860.8664   18102867.0854
  18286008.760   -15386102.07149 -11974606.62849  18286010.4224   18286014.2234
  15864031.381   -38951265.61749 -30332406.89149  15864032.8664   15864037.4904
  18694949.986   -33886965.305 9 -26384410.931 9  18694951.418    18694956.291
  16806990.391   -40609537.11749 -31280622.14649  16806991.4384   16806995.2164
  16719805.072   -36920376.15649 -28741274.63549  16719806.6944   16719811.0624
 96  2  9 20 36 59.9830000  0  8 16 19  2 29 18 28 31 27
  18909604.585   -19531471.80849 -15200165.43049  18909605.3504   18909611.0824
  15497894.984   -48437741.36749 -37055318.38949  15497896.2304   15497900.9364
  18076149.686   -25112942.15749 -19547633.93849  18076149.4824   18076155.7664
  18292372.998   -15352659.21449 -11948547.30349  18292373.3334   18292378.9694
  15863112.507   -38956100.10049 -30336174.04049  15863113.2374   15863117.3924
  18692390.178   -33900431.865 9 -26394904.378 9  18692389.764    18692394.275
  16793252.789   -40681729.07349 -31336875.62049  16793253.5644   16793257.9534
  16695961.517   -37045681.35949 -28838915.04449  16695962.2564   16695966.3614
 96  2  9 20 37 29.9830000  0  8 16 19  2 29 18 28 31 27
  18891999.546   -19623990.76649 -15272258.12649  18891999.7434   18892005.2164
  15483683.431   -48512423.94249 -37113512.61249  15483684.7554   15483689.2654
  18049484.819   -25253066.74849 -19656821.91549  18049484.6844   18049491.1014
  18298779.610   -15318985.10749 -11922307.77549  18298781.8414   18298786.4254
  15862279.798   -38960475.80349 -30339583.70549  15862280.7314   15862284.8464
  18689917.180   -33913395.575 9 -26405006.014 9  18689922.243    18689926.911
  16779629.972   -40753311.12749 -31392653.84949  16779631.7334   16779636.8414
  16672143.671   -37170844.05249 -28936444.41249  16672144.3944   16672148.5654
 96  2  9 20 37 59.9830000  0  8 16 19  2 29 18 28 31 27
  18874502.554   -19715932.56749 -15343901.08349  18874502.9394   18874508.6814
  15469523.109   -48586837.33349 -37171497.07549  15469524.2284   15469528.8454
  18022878.174   -25392887.52349 -19765773.15849  18022877.6884   18022883.9934
  18305240.394   -15285044.66149 -11895860.73649  18305239.6684   18305246.1154
  15861543.902   -38964344.73549 -30342598.47749  15861543.9904   15861548.4844
  18687559.796   -33925818.414 9 -26414686.167 9  18687557.581    18687562.696
  16766132.560   -40824246.69349 -31447928.32849  16766133.3164   16766137.9974
  16648360.919   -37295820.68249 -29033828.79549  16648362.0764   16648366.5584
 96  2  9 20 38 29.9830000  0  8 16 19  2 29 18 28 31 27
  18857108.956   -19807338.87349 -15415126.77949  18857110.4224   18857115.1394
  15455403.086   -48661037.79749 -37229315.62449  15455404.2374   15455409.0934
  17996319.677   -25532447.59049 -19874521.24649  17996320.6314   17996326.6974
  18311738.445   -15250892.08349 -11869248.40449  18311739.4064   18311744.5434
  15860896.527   -38967746.39649 -30345249.14849  15860896.7394   15860901.1514
  18685291.685   -33937740.436 9 -26423976.080 9  18685289.083    18685293.949
  16752748.390   -40894575.69749 -31502730.15949  16752750.1914   16752754.6184
  16624606.530   -37420653.21049 -29131100.88449  16624607.1574   16624611.8344
 96  2  9 20 38 59.9830000  0  8 16 19  2 29 18 28 31 27
  18839811.706   -19898240.42349 -15485959.15449  18839812.5484   18839817.8854
  15441319.735   -48735048.54749 -37286986.34449  15441320.7564   15441325.3094
  17969807.803   -25671772.17849 -19983085.84749  17969807.8064   17969813.6294
  18318272.497   -15216558.63449 -11842495.11849  18318273.1714   18318277.1844
  15860335.356   -38970690.98949 -30347543.65649  15860336.3874   15860340.8884
  18683109.290   -33949186.089 9 -26432894.819 9  18683111.344    18683116.199
  16739477.670   -40964323.32149 -31557078.96049  16739477.2624   16739482.2234
  16600876.379   -37545353.23849 -29228269.72749  16600877.5374   16600882.2314
 96  2  9 20 39 29.9830000  0  8 16 19  2 29 18 28 31 27
  18822606.460   -19988654.24549 -15556411.47749  18822605.7284   18822613.6794
  15427268.635   -48808884.36749 -37344520.75449  15427270.1314   15427274.7564
  17943339.865   -25810864.38049 -20091469.36049  17943339.5574   17943344.9524
  18324839.173   -15182041.55549 -11815598.73549  18324841.1664   18324845.5784
  15859862.495   -38973181.99849 -30349484.72549  15859862.2254   15859866.7934
  18681023.586   -33960167.757 9 -26441451.967 9  18681022.085    18681026.711
  16726316.801   -41033477.72149 -31610965.51649  16726317.4474   16726323.2984
  16577171.934   -37669920.47449 -29325335.09749  16577173.1044   16577177.8404
 96  2  9 20 39 59.9830000  0  8 16 19  2 29 18 28 31 27
  18805510.019   -20078499.00049 -15626420.38949  18805509.8594   18805516.9294
  15413267.440   -48882462.95049 -37401854.72249  15413268.6484   15413273.2104
  17916927.457   -25949656.41249 -20199618.99049  17916928.6964   17916933.9604
  18331458.076   -15147267.15049 -11788501.87749  18331459.8964   18331463.2934
  15859486.706   -38975155.29349 -30351022.38949  15859486.6614   15859491.2374
  18679035.386   -33970611.436 9 -26449589.940 9  18679034.276    18679039.482
  16713286.449   -41101953.53849 -31664323.30749  16713286.6954   16713293.1344
  16553505.371   -37794291.09649 -29422247.26949  16553505.9864   16553511.1044
 96  2  9 20 40 29.9830000  0  8 16 19  2 29 18 28 31 27
  18788501.190   -20167880.95349 -15696068.66949  18788501.1564   18788507.5764
  15399294.590   -48955888.18649 -37459069.18649  15399296.1384   15399300.8074
  17890549.009   -26088279.72749 -20307637.14249  17890549.4364   17890555.5184
  18338102.566   -15112353.58049 -11761296.55049  18338102.0394   18338107.2314
  15859184.323   -38976743.22549 -30352259.75349  15859184.8694   15859189.6124
  18677122.375   -33980640.289 9 -26457404.673 9  18677125.978    18677130.934
  16700362.113   -41169869.23749 -31717244.63649  16700363.1554   16700369.4934
  16529850.690   -37918597.01449 -29519109.00349  16529851.3954   16529856.7074
 96  2  9 20 40 59.9830000  0  9 16 12 19  2 29 18 28 31 27
  18771601.233   -20256683.95549 -15765265.81849  18771601.3664   18771607.7184
  19238324.779    -8163295.88719  -6346026.88819  19238326.582    19238336.173
  15385377.575   -49029026.71949 -37516060.26149  15385378.6114   15385383.2194
  17864222.706   -26226619.90549 -20415434.66749  17864223.8634   17864229.4024
  18344796.293   -15077169.85449 -11733880.71349  18344797.7364   18344803.3754
  15858978.889   -38977824.62049 -30353102.42749  15858979.3244   15858983.5034
  18675318.066   -33990140.573 9 -26464807.519 9  18675318.192    18675322.876
  16687569.815   -41237099.06049 -31769631.52549  16687569.7084   16687575.5144
  16506228.787   -38042728.19649 -29615834.59149  16506230.0934   16506235.2364
 96  2  9 20 41 29.9830000  0  9 16 12 19  2 29 18 28 31 27
  18754793.812   -20345008.75049 -15834090.34049  18754794.3284   18754799.0174
  19211893.926    -8302196.675 9  -6454261.202 9  19211894.702    19211903.367
  15371496.665   -49101970.72249 -37572899.74249  15371497.8864   15371502.4874
  17837930.119   -26364786.95449 -20523097.29149  17837930.9514   17837937.6134
  18351526.201   -15041820.90449 -11706336.14649  18351524.5624   18351530.1204
  15858847.751   -38978511.22649 -30353637.46649  15858848.6114   15858852.9754
  18673593.392   -33999214.256 9 -26471877.948 9  18673591.547    18673596.055
  16674887.927   -41303743.01849 -31821561.88749  16674888.6274   16674893.2894
  16482619.917   -38166793.35849 -29712508.72549  16482620.9994   16482626.2804
 96  2  9 20 41 59.9830000  0  9 16 12 19  2 29 18 28 31 27
  18738087.715   -20432802.28049 -15902500.88849  18738087.7164   18738094.1344
  19185493.552    -8440931.621 9  -6562366.304 9  19185494.301    19185502.385
  15357666.335   -49174652.37249 -37629534.79649  15357667.0634   15357671.4244
  17811679.855   -26502734.03849 -20630588.51249  17811680.2354   17811686.9584
  18358291.028   -15006255.63949 -11678623.01549  18358292.7954   18358297.8044
  15858801.031   -38978757.52849 -30353829.41149  15858801.6124   15858806.0794
  18671955.499   -34007803.042 9 -26478570.555 9  18671957.056    18671961.938
  16662325.570   -41369758.92249 -31873002.85649  16662326.1104   16662330.8304
  16459034.662   -38290739.60249 -29809090.19749  16459035.2114   16459040.0814
 96  2  9 20 42 29.9830000  0  9 16 12 19  2 29 18 28 31 27
  18721480.540   -20520071.80049 -15970503.09749  18721480.1444   18721486.9644
  19159125.022    -8579498.176 9  -6670340.192 9  19159125.417    19159134.715
  15343883.917   -49247077.50949 -37685969.97249  15343884.9094   15343889.3364
  17785471.495   -26640457.79149 -20737905.70149  17785472.4684   17785479.0264
  18365100.011   -14970467.67049 -11650736.35449  18365102.4864   18365107.5074
  15858840.092   -38978557.31449 -30353673.41849  15858840.1754   15858844.2054
  18670415.373   -34015905.955 9 -26484884.542 9  18670415.072    18670419.948
  16649882.092   -41435152.57149 -31923958.94249  16649881.8944   16649886.8234
  16435473.571   -38414550.84349 -29905566.47749  16435474.6324   16435479.4704
 96  2  9 20 42 59.9830000  0  9 16 12 19  2 29 18 28 31 27
  18704971.708   -20606827.50749 -16038104.95049  18704972.4254   18704978.1874
  19132787.729    -8717899.405 9  -6778185.241 9  19132789.140    19132798.156
  15330147.906   -49319258.24749 -37742214.70049  15330149.1644   15330153.7654
  17759306.947   -26777953.44649 -20845045.16649  17759307.6584   17759313.4054
  18371955.095   -14934457.02349 -11622676.16849  18371954.8584   18371960.3464
  15858962.191   -38977908.12049 -30353167.57749  15858963.3844   15858968.0044
  18668962.450   -34023527.705 9 -26490823.606 9  18668964.517    18668969.851
  16637554.421   -41499933.91549 -31974437.91349  16637554.4284   16637559.3274
  16411940.153   -38538220.60549 -30001932.50949  16411940.9434   16411945.9214
 96  2  9 20 43 29.9830000  0  9 16 12 19  2 29 18 28 31 27
  18688559.447   -20693076.45049 -16105311.93249  18688558.9864   18688566.3224
  19106479.022    -8856152.458 9  -6885914.815 9  19106479.808    19106489.407
  15316456.450   -49391211.17649 -37798281.92049  15316457.2064   15316461.6304
  17733185.485   -26915230.08849 -20952013.96249  17733185.3154   17733190.9594
  18378846.031   -14898239.22449 -11594454.57149  18378848.1684   18378853.3894
  15859162.805   -38976854.34149 -30352346.47949  15859163.8324   15859168.5794
  18667602.131   -34030686.909 9 -26496402.225 9  18667602.777    18667607.688
  16625338.828   -41564130.27049 -32024461.05149  16625338.4754   16625342.9194
  16388431.395   -38661760.39549 -30098197.27149  16388432.5614   16388437.3694
 96  2  9 20 43 59.9830000  0  9 16 12 19  2 29 18 28 31 27
  18672253.748   -20778762.84149 -16172080.55749  18672252.9504   18672260.2424
  19080208.068    -8994209.298 9  -6993491.459 9  19080209.139    19080216.539
  15302815.434   -49462892.57149 -37854137.55449  15302816.6134   15302821.0264
  17707116.061   -27052224.81349 -21058763.08549  17707115.6684   17707121.7834
  18385788.762   -14861759.19249 -11566028.64549  18385788.3374   18385794.8764
  15859449.889   -38975346.56849 -30351171.61549  15859450.4794   15859455.0744
  18666339.234   -34037337.354 9 -26501584.424 9  18666337.300    18666341.723
  16613242.383   -41627695.06349 -32073992.05849  16613242.6374   16613247.2424
  16364957.448   -38785117.64149 -30194319.78949  16364958.1664   16364962.8824
 96  2  9 20 44 29.9820000  0  9 16 12 19  2 29 18 28 31 27
  18656041.266   -20863960.67449 -16238468.48149  18656041.0604   18656047.0334
  19053957.902    -9132156.184 9  -7100982.513 9  19053959.430    19053964.554
  15289211.480   -49534384.77949 -37909845.76949  15289211.9664   15289216.6554
  17681083.801   -27189018.09149 -21165355.22949  17681085.2384   17681090.9534
  18392761.286   -14825109.67949 -11537470.66449  18392763.1254   18392769.1344
  15859807.239   -38973464.02949 -30349704.72549  15859808.6994   15859812.9974
  18665152.799   -34043571.459 9 -26506442.196 9  18665151.227    18665155.223
  16601249.956   -41690718.61749 -32123101.31949  16601249.6184   16601254.3054
  16341501.716   -38908375.24149 -30290364.66149  16341502.6944   16341507.5444
 96  2  9 20 44 59.9820000  0  9 16 12 19  2 29 18 28 31 27
  18639948.552   -20948524.56349 -16304362.42149  18639949.3964   18639955.4134
  19027752.410    -9269863.470 9  -7208286.861 9  19027753.145    19027761.318
  15275670.020   -49605541.98449 -37965292.94049  15275671.0654   15275675.6974
  17655117.133   -27325479.29649 -21271688.62449  17655117.7314   17655122.9084
  18399793.296   -14788163.96949 -11508681.87749  18399793.9734   18399799.6734
  15860265.549   -38971064.95349 -30347835.34349  15860265.2964   15860269.6164
  18664069.094   -34049252.582 9 -26510869.072 9  18664069.653    18664074.403
  16589384.553   -41753062.72449 -32171681.13949  16589386.2284   16589390.7064
  16318091.732   -39031398.89549 -30386227.23549  16318092.4004   16318097.1644
 96  2  9 20 45 29.9820000  0  9 16 12 19  2 29 18 28 31 27
  18623949.712   -21032600.54549 -16369876.16749  18623950.4224   18623955.7874
  19001563.676    -9407478.614 9  -7315519.338 9  19001565.697    19001575.176
  15262165.422   -49676511.36449 -38020593.75149  15262165.9174   15262170.6584
  17629187.380   -27461746.43949 -21377870.80649  17629187.0864   17629192.6514
  18406849.518   -14751097.36649 -11479798.87049  18406847.2824   18406853.0574
  15860792.112   -38968291.55149 -30345674.27749  15860793.3654   15860797.4454
  18663064.492   -34054534.086 9 -26514984.558 9  18663064.223    18663069.406
  16577623.076   -41814875.00149 -32219846.54149  16577623.3304   16577627.9654
  16294696.114   -39154340.85249 -30482026.15249  16294697.2424   16294701.9074
 96  2  9 20 45 59.9820000  0  9 16 12 19  2 29 18 28 31 27
  18608056.906   -21116114.85749 -16434952.26849  18608057.8314   18608064.0474
  18975408.720    -9544922.027 9  -7422618.029 9  18975410.980    18975420.131
  15248707.047   -49747233.01749 -38075701.53449  15248708.1554   15248712.9194
  17603308.883   -27597732.84849 -21483834.22749  17603309.5334   17603314.8294
  18413935.494   -14713847.34949 -11450772.96749  18413934.9364   18413941.2584
  15861413.597   -38965031.07549 -30343133.67249  15861413.7914   15861418.3354
  18662148.078   -34059338.069 9 -26518727.960 9  18662150.525    18662155.448
  16565975.594   -41876077.61249 -32267536.87449  16565976.2594   16565981.0414
  16271331.744   -39277124.12949 -30577701.42449  16271332.4544   16271337.4424
 96  2  9 20 46 29.9820000  0  9 16 12 19  2 29 18 28 31 27
  18592268.228   -21199087.18849 -16499606.04649  18592268.1624   18592274.9794
  18949285.966    -9682210.755 9  -7529596.224 9  18949286.414    18949294.319
  15235291.362   -49817735.61949 -38130638.62949  15235291.9174   15235296.6984
  17577482.022   -27733454.61149 -21589591.43149  17577482.9054   17577488.3214
  18421050.837   -14676449.26449 -11421631.66949  18421052.1604   18421058.3894
  15862123.673   -38961296.44349 -30340223.59549  15862124.4664   15862128.7004
  18661324.941   -34063683.289 9 -26522113.868 9  18661324.058    18661328.653
  16554443.160   -41936686.99049 -32314764.95349  16554443.0304   16554447.6184
  16247994.770   -39399763.72649 -30673264.74049  16247995.0724   16247999.7244
 96  2  9 20 46 59.9820000  0  9 16 12 19  2 29 18 28 31 27
  18576582.808   -21281520.47749 -16563839.78549  18576581.3344   18576587.7784
  18923190.409    -9819336.211 9  -7636447.201 9  18923191.914    18923200.899
  15221914.891   -49888025.80249 -38185410.19849  15221916.1984   15221920.8344
  17551710.116   -27868891.68549 -21695126.81349  17551709.9414   17551714.9374
  18428196.572   -14638901.41949 -11392373.68549  18428197.9204   18428203.9384
  15862924.383   -38957092.04049 -30336947.45649  15862925.0474   15862929.1724
  18660586.312   -34067562.817 9 -26525136.912 9  18660585.889    18660590.294
  16543027.250   -41996668.99249 -32361504.17149  16543028.9324   16543033.2164
  16224684.678   -39522252.86549 -30768710.81349  16224686.0684   16224690.6914
 96  2  9 20 47 29.9820000  0  9 16 12 19  2 29 18 28 31 27
  18560999.166   -21363411.04349 -16627650.62549  18560999.2434   18561005.7664
  18897130.155    -9956291.081 9  -7743165.270 9  18897130.313    18897139.067
  15208578.938   -49958105.79349 -38240017.98349  15208580.3484   15208585.0694
  17525991.842   -28004035.30849 -21800433.51249  17525992.3734   17525998.2454
  18435373.928   -14601186.40549 -11362985.44449  18435375.6954   18435380.4534
  15863812.944   -38952422.55749 -30333308.92649  15863813.7724   15863817.9804
  18659936.844   -34070971.363 9 -26527792.958 9  18659937.111    18659941.987
  16531737.662   -42056004.56249 -32407739.67049  16531737.8404   16531742.5764
  16201404.210   -39644595.18949 -30864042.48449  16201405.0834   16201409.2334
 96  2  9 20 47 59.9820000  0  9 16 12 19  2 29 18 28 31 27
  18545522.835   -21444734.81549 -16691019.79949  18545522.9464   18545531.3754
  18871101.902   -10093064.284 9  -7849741.753 9  18871103.116    18871111.572
  15195286.781   -50027959.20149 -38294449.21249  15195287.9914   15195292.5534
  17500328.855   -28138895.10149 -21905519.05149  17500329.3254   17500335.6434
  18442585.253   -14563278.19349 -11333446.65949  18442588.8394   18442594.2684
  15864788.906   -38947293.23049 -30329312.07649  15864789.6574   15864794.2454
  18659381.524   -34073899.461 9 -26530074.632 9  18659380.037    18659385.138
  16520574.065   -42114666.38349 -32453450.17049  16520575.0134   16520579.8294
  16178154.840   -39766774.62549 -30959247.23149  16178155.2424   16178159.5774
 96  2  9 20 48 29.9820000  0  9 16 12 19  2 29 18 28 31 27
  18530148.849   -21525525.55849 -16753973.61149  18530149.9874   18530155.8574
  18845102.259   -10229691.624 9  -7956204.599 9  18845104.760    18845112.676
  15182034.122   -50097602.73749 -38348716.90249  15182035.2154   15182040.0854
  17474712.473   -28273510.54849 -22010414.18849  17474713.1174   17474718.9734
  18449833.229   -14525198.07749 -11303773.91449  18449834.5604   18449840.0864
  15865841.970   -38941761.42849 -30325001.60249  15865842.7984   15865846.9764
  18658905.197   -34076384.606 9 -26532011.159 9  18658906.701    18658912.259
  16509533.784   -42172677.20849 -32498653.41149  16509535.2664   16509540.3814
  16154929.199   -39888822.07249 -31054349.12949  16154930.5914   16154934.7834
 96  2  9 20 48 59.9820000  0  9 16 12 19  2 29 18 28 31 27
  18514881.870   -21605752.64849 -16816488.22249  18514882.8394   18514890.3364
  18819138.099   -10366144.034 9  -8062531.136 9  18819138.778    18819146.417
  15168829.696   -50166994.05249 -38402788.06049  15168830.6514   15168835.3464
  17449149.646   -28407850.39949 -22115094.58049  17449148.5764   17449155.3204
  18457123.363   -14486899.52849 -11273930.97449  18457123.3704   18457128.6394
  15866975.791   -38935806.08549 -30320361.09849  15866975.7314   15866980.1834
  18658521.500   -34078399.825 9 -26533581.495 9  18658523.664    18658528.562
  16498625.200   -42230009.67849 -32543328.06249  16498625.4944   16498630.5224
  16131732.840   -40010722.75949 -31149336.67249  16131733.5464   16131737.7464
 96  2  9 20 49 29.9820000  0  9 16 12 19  2 29 18 28 31 27
  18499716.648   -21685444.44749 -16878585.73249  18499718.3644   18499726.2084
  18793196.004   -10502456.417 9  -8168748.565 9  18793197.211    18793206.699
  15155668.256   -50236156.18149 -38456680.63149  15155669.4774   15155673.9634
  17423628.858   -28541956.79349 -22219593.05649  17423630.1704   17423635.0354
  18464447.450   -14448405.12649 -11243935.40949  18464448.1454   18464454.0124
  15868183.173   -38929459.04049 -30315415.38149  15868183.3884   15868187.7414
  18658224.623   -34079981.691 9 -26534814.145 9  18658223.066    18658227.442
  16487831.694   -42286725.96149 -32587522.55849  16487833.3524   16487837.5964
  16108560.075   -40132497.74249 -31244226.26049  16108560.5314   16108564.7154
 96  2  9 20 49 59.9820000  0  9 16 12 19  2 29 18 28 31 27
  18484655.276   -21764597.69149 -16940263.59749  18484655.1774   18484661.7024
  18767285.981   -10638615.634 9  -8274846.637 9  18767287.036    18767296.591
  15142555.490   -50305069.94349 -38510379.67349  15142555.6654   15142560.1404
  17398156.013   -28675819.64649 -22323901.75849  17398156.2534   17398161.9414
  18471812.910   -14409700.22949 -11213775.81749  18471813.7274   18471820.0944
  15869468.880   -38922698.99149 -30310147.83949  15869469.8854   15869474.1274
  18658004.778   -34081118.650 9 -26535700.124 9  18658006.252    18658011.035
  16477156.093   -42342831.08749 -32631240.83749  16477156.7744   16477160.8034
  16085413.065   -40254133.99149 -31339007.74949  16085413.6094   16085417.9184
 96  2  9 20 50 29.9820000  0  9 16 12 19  2 29 18 28 31 27
  18469687.588   -21843251.03749 -17001551.92449  18469688.8774   18469694.1324
  18741404.458   -10774637.414 9  -8380837.643 9  18741405.168    18741413.437
  15129483.714   -50373756.55549 -38563901.71449  15129484.8764   15129489.5564
  17372726.033   -28809454.86449 -22428033.08049  17372726.3014   17372732.3784
  18479216.804   -14370800.32749 -11183464.27949  18479216.8334   18479221.1764
  15870830.842   -38915543.73149 -30304572.33949  15870831.6504   15870835.8824
  18657868.326   -34081828.271 9 -26536253.109 9  18657870.824    18657876.109
  16466589.137   -42398360.60849 -32674510.58649  16466589.1134   16466593.7174
  16062288.569   -40375650.86849 -31433696.21549  16062289.6724   16062294.2474
 96  2  9 20 50 59.9820000  0  9 16 12 19  2 29 18 28 31 27
  18454811.174   -21921429.62049 -17062470.30849  18454811.9284   18454818.2654
  18715542.696   -10910534.072 9  -8486731.134 9  18715543.924    18715552.413
  15116453.015   -50442230.65449 -38617258.16249  15116454.5664   15116459.4434
  17347333.482   -28942896.29249 -22532013.40149  17347333.6334   17347338.7074
  18486650.706   -14331732.49249 -11153021.88549  18486651.6024   18486656.8634
  15872266.569   -38907999.58449 -30298693.81249  15872267.0874   15872271.4644
  18657814.042   -34082124.899 9 -26536484.275 9  18657814.457    18657820.151
  16456127.928   -42453330.58749 -32717344.32649  16456128.9704   16456133.2744
  16039186.533   -40497053.98949 -31528296.03649  16039187.2234   16039192.0654
 96  2  9 20 51 29.9820000  0  9 16 12 19  2 29 18 28 31 27
  18440041.699   -21999050.27349 -17122953.95549  18440041.9494   18440047.7954
  18689723.596   -11046216.000 9  -8592457.298 9  18689723.994    18689732.208
  15103482.896   -50510390.57549 -38670369.79449  15103484.3074   15103489.0254
  17321990.587   -29076072.91749 -22635787.37449  17321990.5104   17321996.4044
  18494131.265   -14292414.96549 -11122384.92849  18494133.2214   18494138.0454
  15873792.641   -38899980.41149 -30292445.13549  15873792.8664   15873797.1804
  18657850.009   -34081920.672 9 -26536325.176 9  18657853.286    18657859.136
  16445793.471   -42507640.67349 -32759663.86849  16445794.3854   16445798.5524
  16016128.416   -40618229.92549 -31622718.82649  16016128.2564   16016132.9844
 96  2  9 20 51 59.9820000  0  9 16 12 19  2 29 18 28 31 27
  18425370.899   -22076139.95549 -17183023.84549  18425371.0324   18425378.8074
  18663940.621   -11181714.044 9  -8698040.199 9  18663940.936    18663948.379
  15090567.295   -50578266.96149 -38723260.48849  15090567.8714   15090572.3994
  17296690.476   -29209019.97049 -22739382.46249  17296691.3494   17296697.1534
  18501653.140   -14252892.06149 -11091587.95849  18501653.2414   18501658.9494
  15875404.850   -38891507.29649 -30285842.73649  15875405.6454   15875409.5864
  18657981.263   -34081248.054 9 -26535801.102 9  18657981.472    18657987.015
  16435580.859   -42561312.87149 -32801486.35949  16435581.1484   16435585.2654
  15993102.994   -40739224.06049 -31716999.96049  15993103.7254   15993108.3004
 96  2  9 20 52 29.9820000  0  9 16 12 19  2 29 18 28 31 27
  18410789.999   -22152759.29949 -17242727.24649  18410790.7184   18410797.7974
  18638176.027   -11317105.286 9  -8803539.886 9  18638176.894    18638185.682
  15077690.440   -50645929.27349 -38775984.37449  15077691.9124   15077696.8374
  17271422.854   -29341802.90149 -22842849.66849  17271423.4584   17271429.3364
  18509198.133   -14213253.84749 -11060701.12549  18509196.8514   18509202.5584
  15877088.034   -38882662.90649 -30278951.03249  15877088.2004   15877092.8544
  18658186.299   -34080186.215 9 -26534973.731 9  18658183.742    18658188.866
  16425475.754   -42614409.13749 -32842860.06749  16425477.3084   16425481.4174
  15970102.193   -40860091.53049 -31811182.38749  15970103.3674   15970108.2324
 96  2  9 20 52 59.9820000  0  9 16 12 19  2 29 18 28 31 27
  18396311.134   -22228842.60949 -17302012.94949  18396313.3084   18396319.5884
  18612438.917   -11452343.841 9  -8908920.541 9  18612440.663    18612449.254
  15064867.517   -50713319.12449 -38828495.94949  15064868.1214   15064873.0614
  17246200.657   -29474351.32649 -22946134.14349  17246200.7124   17246205.8274
  18516768.213   -14173463.17049 -11029695.50049  18516769.9144   18516774.6034
  15878848.688   -38873404.88249 -30271737.01649  15878849.8674   15878854.5294
  18658466.813   -34078690.955 9 -26533808.645 9  18658468.036    18658473.290
  16415492.401   -42666873.89449 -32883741.69549  16415493.0534   16415498.1154
  15947137.540   -40980775.99549 -31905222.21849  15947138.4294   15947142.6724
 96  2  9 20 53 29.9820000  0  9 16 12 19  2 29 18 28 31 27
  18381943.675   -22304346.79049 -17360847.39449  18381944.9094   18381952.1924
  18586737.259   -11587403.078 9  -9014161.462 9  18586739.420    18586748.324
  15052099.249   -50780413.29049 -38880777.12449  15052100.5304   15052105.2954
  17221032.617   -29606605.53149 -23049189.35349  17221033.5954   17221039.4774
  18524375.660   -14133489.86249 -10998547.55949  18524374.6454   18524379.8414
  15880694.496   -38863710.26749 -30264182.80249  15880694.8704   15880699.5564
  18658840.928   -34076737.758 9 -26532286.718 9  18658839.737    18658844.657
  16405632.324   -42718693.08449 -32924120.29149  16405632.1884   16405636.9224
  15924209.261   -41101263.14249 -31999108.29949  15924210.3864   15924214.9094
 96  2  9 20 53 59.9820000  0  9 16 12 19  2 29 18 28 31 27
  18367677.407   -22379323.05149 -17419270.47749  18367676.9384   18367683.3884
  18561065.335   -11722337.546 9  -9119305.204 9  18561064.002    18561070.566
  15039375.243   -50847283.11949 -38932883.49149  15039375.8894   15039380.3354
  17195914.529   -29738601.73849 -23152043.52349  17195915.5354   17195921.5514
  18532004.289   -14093394.50249 -10967304.51049  18532005.6764   18532010.3894
  15882611.491   -38853635.45649 -30256332.32849  15882612.2244   15882616.7294
  18659285.389   -34074382.755 9 -26530451.698 9  18659288.191    18659293.207
  16395882.230   -42769930.88449 -32964045.84749  16395882.2424   16395886.3654
  15901305.598   -41221622.92649 -32092895.13349  15901306.6624   15901311.3124
